[[{"header":{"parameterUnit":"m.s-1","parameterCategory":1,"la1":30.6,"la2":29.2853,"lo1":-89.7004,"lo2":-87.6739,"dx":0.0162,"dy":0.0183,"nx":112,"ny":82,"refTime":"2022-12-16T06:00:00:Z","depth":0,"parameterNumber":2,"parameterNumberName":"U-component_of_WINDS"},"data":[0.0,0.0,0.0,0.0,0.0,0.0,0.0,0.0,0.0,0.0,0.0,0.0,0.0,0.0,0.0,0.0,0.0,0.0,0.0,0.0,0.0,0.0,0.0,0.0,0.0,0.0,0.0,0.0,0.0,0.0,0.0,0.0,0.0,0.0,0.0,0.0,0.0,0.0,0.0,0.0,0.0,0.0,0.0,0.0,0.0,0.0,0.0,0.0,0.0,0.0,0.0,0.0,0.0,0.0,0.0,0.0,0.0,0.0,0.0,0.0,0.0,0.0,0.0,0.0,0.0,0.0,0.0,0.0,0.0,0.0,0.0,0.0,0.0,0.0,0.0,0.0,0.0,0.0,0.0,0.0,0.0,0.0,0.0,0.0,0.0,0.0,0.0,0.0,0.0,0.0,3.9722,4.5755,5.3564,5.8352,5.8298,5.7619,5.3075,4.3387,0.0,0.0,0.0,0.0,0.0,0.0,0.0,0.0,0.0,0.0,0.0,0.0,0.0,0.0,0.0,0.0,0.0,0.0,0.0,0.0,0.0,0.0,0.0,0.0,0.0,0.0,0.0,0.0,0.0,0.0,0.0,0.0,0.0,0.0,0.0,0.0,0.0,0.0,0.0,0.0,0.0,0.0,0.0,0.0,0.0,0.0,0.0,0.0,0.0,0.0,0.0,0.0,0.0,0.0,0.0,0.0,0.0,0.0,0.0,0.0,0.0,0.0,0.0,0.0,0.0,0.0,0.0,0.0,0.0,0.0,0.0,0.0,0.0,0.0,0.0,0.0,0.0,0.0,0.0,0.0,0.0,0.0,0.0,0.0,0.0,0.0,0.0,0.0,0.0,0.0,0.0,0.0,0.0,0.0,0.0,0.0,0.0,0.0,0.0,0.0,0.0,0.0,0.0,0.0,4.1338,5.2705,5.7117,5.9201,5.9201,5.8517,5.4227,4.5099,0.0,0.0,0.0,0.0,0.0,0.0,0.0,0.0,0.0,0.0,0.0,0.0,0.0,0.0,0.0,0.0,0.0,0.0,0.0,0.0,0.0,0.0,0.0,0.0,0.0,0.0,0.0,0.0,0.0,0.0,0.0,0.0,0.0,0.0,0.0,0.0,0.0,0.0,0.0,0.0,0.0,0.0,0.0,0.0,0.0,0.0,0.0,0.0,0.0,0.0,0.0,0.0,0.0,0.0,0.0,0.0,0.0,0.0,0.0,0.0,0.0,0.0,0.0,0.0,0.0,0.0,0.0,0.0,0.0,0.0,0.0,0.0,0.0,0.0,0.0,0.0,0.0,0.0,0.0,0.0,0.0,0.0,0.0,0.0,0.0,0.0,0.0,0.0,0.0,0.0,0.0,0.0,0.0,0.0,0.0,0.0,0.0,0.0,0.0,0.0,0.0,0.0,0.0,3.9698,4.5973,5.528,5.7925,5.9121,5.9389,5.932,5.5142,4.5517,4.0784,0.0,0.0,0.0,0.0,0.0,0.0,0.0,0.0,0.0,0.0,0.0,0.0,0.0,0.0,0.0,0.0,0.0,0.0,0.0,0.0,0.0,0.0,0.0,0.0,0.0,0.0,0.0,0.0,0.0,0.0,0.0,0.0,0.0,0.0,0.0,0.0,0.0,0.0,0.0,0.0,0.0,0.0,0.0,0.0,0.0,0.0,0.0,0.0,0.0,0.0,0.0,0.0,0.0,0.0,0.0,0.0,0.0,0.0,0.0,0.0,0.0,0.0,0.0,0.0,0.0,0.0,0.0,0.0,0.0,0.0,0.0,0.0,0.0,0.0,0.0,0.0,0.0,0.0,0.0,0.0,0.0,0.0,0.0,0.0,0.0,0.0,0.0,0.0,0.0,0.0,0.0,0.0,0.0,0.0,0.0,0.0,0.0,0.0,0.0,0.0,0.0,0.0,4.6684,5.1371,5.6547,5.8214,5.904,5.9231,5.9677,5.5608,4.5388,4.1532,0.0,0.0,0.0,0.0,0.0,0.0,0.0,0.0,0.0,0.0,0.0,0.0,0.0,0.0,0.0,0.0,0.0,0.0,0.0,0.0,0.0,0.0,0.0,0.0,0.0,0.0,0.0,0.0,0.0,0.0,0.0,0.0,0.0,0.0,0.0,0.0,0.0,0.0,0.0,0.0,0.0,0.0,0.0,0.0,0.0,0.0,0.0,0.0,0.0,0.0,0.0,0.0,0.0,0.0,0.0,0.0,0.0,0.0,0.0,0.0,0.0,0.0,0.0,0.0,0.0,0.0,0.0,0.0,0.0,0.0,0.0,0.0,0.0,0.0,0.0,0.0,0.0,0.0,0.0,0.0,0.0,0.0,0.0,0.0,0.0,0.0,0.0,0.0,0.0,0.0,0.0,0.0,0.0,0.0,0.0,0.0,0.0,0.0,0.0,0.0,0.0,0.0,5.0634,5.6583,5.7795,5.9066,5.9533,5.8791,5.9195,5.5112,4.4908,4.0534,0.0,0.0,0.0,0.0,0.0,0.0,0.0,0.0,0.0,0.0,0.0,0.0,0.0,0.0,0.0,0.0,0.0,0.0,0.0,0.0,0.0,0.0,0.0,0.0,0.0,0.0,0.0,0.0,0.0,0.0,0.0,0.0,0.0,0.0,0.0,0.0,0.0,0.0,0.0,0.0,0.0,0.0,0.0,0.0,0.0,0.0,0.0,0.0,0.0,0.0,0.0,0.0,0.0,0.0,0.0,0.0,0.0,0.0,0.0,0.0,0.0,0.0,0.0,0.0,0.0,0.0,0.0,0.0,0.0,0.0,0.0,0.0,0.0,0.0,0.0,0.0,0.0,0.0,0.0,0.0,0.0,0.0,0.0,0.0,0.0,0.0,0.0,0.0,0.0,0.0,0.0,0.0,0.0,0.0,0.0,0.0,0.0,0.0,0.0,0.0,0.0,0.0,4.9281,5.5078,5.84,5.9615,6.0339,6.066,6.0376,5.5937,4.6081,0.0,0.0,0.0,0.0,0.0,0.0,0.0,0.0,0.0,0.0,0.0,0.0,0.0,0.0,0.0,0.0,0.0,0.0,0.0,0.0,0.0,0.0,0.0,0.0,0.0,0.0,0.0,0.0,0.0,0.0,0.0,0.0,0.0,0.0,0.0,0.0,0.0,0.0,0.0,0.0,0.0,0.0,0.0,0.0,0.0,0.0,0.0,0.0,0.0,0.0,0.0,0.0,0.0,0.0,0.0,0.0,0.0,0.0,0.0,0.0,0.0,0.0,0.0,0.0,0.0,0.0,0.0,0.0,0.0,0.0,0.0,0.0,0.0,0.0,0.0,0.0,0.0,0.0,0.0,0.0,0.0,0.0,0.0,0.0,0.0,0.0,0.0,0.0,0.0,0.0,0.0,0.0,0.0,0.0,0.0,0.0,0.0,0.0,0.0,0.0,0.0,0.0,4.2231,4.9435,5.5262,5.8841,6.0162,6.0951,6.14,6.0792,5.6206,4.6337,0.0,0.0,0.0,0.0,0.0,0.0,0.0,0.0,0.0,0.0,0.0,0.0,0.0,0.0,0.0,0.0,0.0,0.0,0.0,0.0,0.0,0.0,0.0,0.0,0.0,0.0,0.0,0.0,0.0,0.0,0.0,0.0,0.0,0.0,0.0,0.0,0.0,0.0,0.0,0.0,0.0,0.0,0.0,0.0,0.0,0.0,0.0,0.0,0.0,0.0,0.0,0.0,0.0,0.0,0.0,0.0,0.0,0.0,0.0,0.0,0.0,0.0,0.0,0.0,0.0,0.0,0.0,0.0,0.0,0.0,0.0,0.0,0.0,0.0,0.0,0.0,0.0,0.0,0.0,0.0,0.0,0.0,0.0,0.0,0.0,0.0,0.0,0.0,0.0,0.0,0.0,0.0,0.0,0.0,0.0,0.0,0.0,0.0,0.0,0.0,0.0,0.0,4.2983,5.1995,5.8327,5.9153,6.0676,6.13,6.0493,6.0141,5.5593,0.0,0.0,0.0,0.0,0.0,0.0,0.0,0.0,0.0,0.0,0.0,0.0,0.0,0.0,0.0,0.0,0.0,0.0,0.0,0.0,0.0,0.0,0.0,0.0,0.0,0.0,0.0,0.0,0.0,0.0,0.0,0.0,0.0,0.0,0.0,0.0,0.0,0.0,0.0,0.0,0.0,0.0,0.0,0.0,0.0,0.0,0.0,0.0,0.0,0.0,0.0,0.0,0.0,0.0,0.0,0.0,0.0,0.0,0.0,0.0,0.0,0.0,0.0,0.0,0.0,0.0,0.0,0.0,0.0,0.0,0.0,0.0,0.0,0.0,0.0,0.0,0.0,0.0,0.0,0.0,0.0,0.0,0.0,0.0,0.0,0.0,0.0,0.0,0.0,0.0,0.0,0.0,0.0,0.0,0.0,0.0,0.0,0.0,0.0,0.0,0.0,0.0,0.0,4.3754,5.2839,5.9373,6.075,6.2365,6.3168,6.2687,6.2897,5.8239,4.7035,0.0,0.0,0.0,0.0,0.0,0.0,0.0,0.0,0.0,0.0,0.0,0.0,0.0,0.0,0.0,0.0,0.0,0.0,0.0,0.0,0.0,0.0,0.0,0.0,0.0,0.0,0.0,0.0,0.0,0.0,0.0,0.0,0.0,0.0,0.0,0.0,0.0,0.0,0.0,0.0,0.0,0.0,0.0,0.0,0.0,0.0,0.0,0.0,0.0,0.0,0.0,0.0,0.0,0.0,0.0,0.0,0.0,0.0,0.0,0.0,0.0,0.0,0.0,0.0,0.0,0.0,0.0,0.0,0.0,0.0,0.0,0.0,0.0,0.0,0.0,0.0,0.0,0.0,0.0,0.0,0.0,0.0,0.0,0.0,0.0,0.0,0.0,0.0,0.0,0.0,0.0,0.0,0.0,0.0,0.0,0.0,0.0,0.0,0.0,0.0,0.0,0.0,4.4085,5.2913,5.9593,6.1832,6.3282,6.4131,6.4279,6.4289,6.015,5.0353,0.0,0.0,0.0,0.0,0.0,0.0,0.0,0.0,0.0,0.0,0.0,0.0,0.0,0.0,0.0,0.0,0.0,0.0,0.0,0.0,0.0,0.0,0.0,0.0,0.0,0.0,0.0,0.0,0.0,0.0,0.0,0.0,0.0,0.0,0.0,0.0,0.0,0.0,0.0,0.0,0.0,0.0,0.0,0.0,0.0,0.0,0.0,0.0,0.0,0.0,0.0,0.0,0.0,0.0,0.0,0.0,0.0,0.0,0.0,0.0,0.0,0.0,0.0,0.0,0.0,0.0,0.0,0.0,0.0,0.0,0.0,0.0,0.0,0.0,0.0,0.0,0.0,0.0,0.0,0.0,0.0,0.0,0.0,0.0,0.0,0.0,0.0,0.0,0.0,0.0,0.0,0.0,0.0,0.0,0.0,0.0,0.0,0.0,0.0,0.0,0.0,0.0,4.4195,5.2656,5.9428,6.2585,6.3759,6.4585,6.5246,6.4899,6.1582,5.441,0.0,0.0,0.0,0.0,0.0,0.0,0.0,0.0,0.0,0.0,0.0,0.0,0.0,0.0,0.0,0.0,0.0,0.0,0.0,0.0,0.0,0.0,0.0,0.0,0.0,0.0,0.0,0.0,0.0,0.0,0.0,0.0,0.0,0.0,0.0,0.0,0.0,0.0,0.0,0.0,0.0,0.0,0.0,0.0,0.0,0.0,0.0,0.0,0.0,0.0,0.0,0.0,0.0,0.0,0.0,0.0,0.0,0.0,0.0,0.0,2.911,2.4587,0.0,0.0,0.0,0.0,0.0,0.0,0.0,0.0,0.0,0.0,0.0,0.0,0.0,0.0,0.0,0.0,0.0,0.0,0.0,0.0,0.0,0.0,0.0,0.0,0.0,0.0,0.0,0.0,0.0,0.0,0.0,0.0,0.0,0.0,0.0,0.0,0.0,0.0,0.0,0.0,4.5021,5.3977,6.0896,6.3539,6.5118,6.5797,6.5356,6.6474,6.3747,5.5578,5.3505,0.0,0.0,0.0,0.0,0.0,0.0,0.0,0.0,0.0,0.0,0.0,0.0,0.0,0.0,0.0,0.0,0.0,0.0,0.0,0.0,0.0,0.0,0.0,0.0,0.0,0.0,0.0,0.0,0.0,0.0,0.0,0.0,0.0,0.0,0.0,0.0,0.0,0.0,0.0,0.0,0.0,0.0,0.0,0.0,0.0,0.0,0.0,0.0,0.0,0.0,0.0,0.0,0.0,0.0,0.0,0.0,0.0,0.0,0.0,3.4183,3.1312,0.0,0.0,0.0,0.0,0.0,0.0,0.0,0.0,0.0,0.0,0.0,0.0,0.0,0.0,0.0,0.0,0.0,0.0,0.0,0.0,0.0,0.0,0.0,0.0,0.0,0.0,0.0,0.0,0.0,0.0,0.0,0.0,0.0,0.0,0.0,0.0,0.0,0.0,0.0,0.0,4.7336,5.5488,6.1985,6.5286,6.615,6.6494,6.6457,6.717,6.5182,5.942,5.6721,0.0,0.0,0.0,0.0,0.0,0.0,0.0,0.0,0.0,0.0,0.0,0.0,0.0,0.0,0.0,0.0,0.0,0.0,0.0,0.0,0.0,0.0,0.0,0.0,0.0,0.0,0.0,0.0,0.0,0.0,0.0,0.0,0.0,0.0,0.0,0.0,0.0,0.0,0.0,0.0,0.0,0.0,0.0,0.0,0.0,0.0,0.0,0.0,0.0,0.0,0.0,0.0,0.0,4.0274,4.1722,4.3921,4.3043,4.3195,4.3943,4.0318,3.9662,4.0795,3.5947,0.0,0.0,0.0,0.0,0.0,0.0,0.0,0.0,0.0,0.0,0.0,0.0,0.0,0.0,0.0,0.0,0.0,0.0,0.0,0.0,0.0,0.0,4.0783,4.3205,4.5393,4.5164,3.8725,0.0,0.0,0.0,0.0,0.0,0.0,0.0,0.0,0.0,0.0,0.0,5.0399,5.7394,6.3159,6.689,6.6943,6.6971,6.7632,6.7549,6.6362,6.384,5.9791,5.4816,0.0,0.0,0.0,0.0,0.0,0.0,0.0,0.0,0.0,0.0,0.0,0.0,0.0,0.0,0.0,0.0,0.0,0.0,0.0,0.0,0.0,0.0,0.0,0.0,0.0,0.0,0.0,0.0,0.0,0.0,0.0,0.0,3.226,3.4138,0.0,0.0,0.0,0.0,0.0,0.0,0.0,0.0,0.0,0.0,0.0,0.0,0.0,3.8402,4.241,4.3541,4.6677,5.172,5.0625,5.0643,5.17,5.1105,5.0932,5.1067,5.0952,0.0,4.3221,4.5542,0.0,0.0,0.0,0.0,0.0,0.0,0.0,0.0,0.0,0.0,0.0,0.0,0.0,0.0,0.0,0.0,0.0,0.0,0.0,0.0,0.0,0.0,4.9966,5.1353,5.1952,5.1933,5.0894,4.3787,3.7408,3.6741,3.609,3.4549,0.0,0.0,0.0,0.0,0.0,0.0,5.3751,6.0285,6.5102,6.7077,6.7442,6.7577,6.7687,6.8068,6.7752,6.6404,6.4086,6.0332,5.4837,5.0794,0.0,0.0,0.0,0.0,0.0,0.0,0.0,0.0,0.0,0.0,0.0,0.0,0.0,0.0,0.0,0.0,0.0,0.0,0.0,0.0,0.0,0.0,0.0,0.0,0.0,0.0,0.0,0.0,0.0,3.0528,3.3051,3.9438,3.5275,3.1061,0.0,0.0,0.0,0.0,0.0,0.0,0.0,0.0,0.0,4.2277,4.2797,4.4968,4.9085,4.9625,5.1356,5.4284,5.3665,5.3799,5.4607,5.4357,5.4241,5.426,5.4493,5.2974,5.0314,5.0313,4.7186,4.1341,0.0,0.0,0.0,0.0,3.7957,3.8392,4.1354,4.8221,5.4818,4.9548,0.0,0.0,0.0,0.0,0.0,0.0,0.0,4.046,4.5726,4.9372,5.2423,5.5374,5.6069,5.6069,5.6069,5.2585,4.8202,4.3944,4.2451,4.0194,3.4808,3.6313,0.0,0.0,0.0,5.2379,5.7427,6.3069,6.7241,6.8916,6.905,6.9045,6.9045,6.9242,6.8742,6.7142,6.6029,6.3455,5.9062,5.4637,4.9086,0.0,0.0,0.0,0.0,0.0,0.0,0.0,0.0,0.0,0.0,0.0,0.0,0.0,0.0,0.0,0.0,0.0,0.0,0.0,0.0,0.0,0.0,0.0,0.0,0.0,0.0,0.0,0.0,3.2352,3.3966,4.2027,3.9617,3.5985,0.0,0.0,0.0,0.0,0.0,0.0,4.0365,4.0312,4.2816,4.8336,4.874,5.0356,5.351,5.3741,5.428,5.5145,5.5145,5.5568,5.6357,5.6203,5.6126,5.6126,5.5816,5.5953,5.6171,5.3575,5.25,5.1491,4.1234,3.7087,3.8402,5.1045,5.571,5.5703,5.5703,5.5703,5.4818,4.9471,4.649,4.4393,4.1239,0.0,0.0,0.0,0.0,4.547,5.0125,5.2587,5.4664,5.7857,5.8781,5.8934,5.8934,5.8761,5.6893,5.102,4.9441,4.7104,4.085,4.2432,0.0,4.3683,5.0259,5.6841,6.1305,6.5609,6.8854,7.0328,7.0289,7.0091,7.0091,7.0091,6.9536,6.8219,6.7241,6.5558,6.3004,5.8508,5.4107,4.9817,0.0,0.0,0.0,0.0,0.0,0.0,0.0,0.0,0.0,0.0,0.0,0.0,0.0,0.0,0.0,0.0,0.0,0.0,0.0,0.0,0.0,0.0,0.0,0.0,0.0,0.0,0.0,0.0,0.0,4.0854,4.3799,0.0,0.0,0.0,0.0,3.893,4.2125,4.479,4.6538,4.6525,4.8432,5.276,5.3683,5.4222,5.4434,5.5184,5.6011,5.6857,5.6857,5.7319,5.8146,5.7569,5.73,5.7242,5.6179,5.664,5.803,5.6228,5.5476,5.5415,5.4722,5.4434,5.453,5.5378,5.5705,5.5703,5.5703,5.5703,5.5472,5.403,5.0991,4.7721,4.674,4.5278,0.0,0.0,4.9433,5.2202,5.5703,5.7857,5.9165,5.9396,6.0069,6.0666,6.0666,6.0012,5.9108,5.7931,5.77,5.6258,5.1836,0.0,5.273,5.3067,5.5959,6.0027,6.5413,6.7883,6.9498,7.0384,7.0289,7.0091,7.0091,7.0091,7.0255,7.0667,6.8178,6.6844,6.7155,6.2885,5.8492,5.426,4.9913,0.0,0.0,0.0,0.0,0.0,0.0,0.0,0.0,0.0,0.0,0.0,0.0,0.0,0.0,0.0,0.0,0.0,0.0,0.0,0.0,0.0,0.0,0.0,0.0,0.0,0.0,0.0,0.0,4.5844,4.621,0.0,4.3635,4.387,4.4201,4.4378,4.7959,5.0626,5.1799,5.1818,5.2722,5.4741,5.5645,5.6107,5.6107,5.6953,5.753,5.7838,5.7838,5.7992,5.83,5.8434,5.83,5.8011,5.8684,5.8723,5.828,5.7992,5.7665,5.7376,5.7376,5.7376,5.7415,5.7761,5.7896,5.7838,5.7492,5.7376,5.7319,5.6896,5.5818,5.4607,5.4318,5.3799,5.351,5.4414,5.6107,5.7915,5.9127,6.0685,6.1954,6.1954,6.2185,6.2416,6.2416,6.2166,6.1858,6.157,6.0204,5.8069,5.4895,5.6896,5.8216,5.618,6.0959,6.55,6.7428,7.002,7.1761,7.2062,7.1798,7.1633,7.1633,7.1174,7.0956,7.1138,6.9049,6.7546,6.7014,6.4731,6.2199,5.9435,5.7338,5.1625,0.0,0.0,0.0,0.0,0.0,0.0,0.0,0.0,0.0,0.0,0.0,0.0,0.0,0.0,0.0,0.0,0.0,0.0,0.0,0.0,0.0,0.0,0.0,0.0,0.0,3.8481,4.2972,4.8041,4.8555,4.8075,4.7007,4.8464,4.9537,4.9664,5.2255,5.4299,5.5359,5.5376,5.5722,5.6549,5.7126,5.7434,5.7434,5.8011,5.8434,5.8704,5.8992,5.93,5.9608,6.0223,6.0223,5.9777,6.09,6.0746,5.9781,6.0535,6.0473,5.9877,5.8742,5.83,5.8338,5.8704,5.8838,5.8819,5.8723,5.8896,5.9146,5.9146,5.9146,5.9146,5.9146,5.9358,5.9588,5.9588,6.0589,6.1647,6.1647,6.2685,6.382,6.4109,6.4378,6.4666,6.4974,6.5032,6.5032,6.5032,6.2743,6.0165,5.8204,6.0204,6.1223,5.8665,6.332,6.7225,6.7532,6.9978,7.193,7.2496,7.2262,7.211,7.211,7.0624,7.0146,7.1248,6.8636,6.731,6.7947,6.5147,6.2985,6.1685,5.9685,5.3799,4.3912,0.0,0.0,0.0,0.0,0.0,0.0,0.0,0.0,0.0,0.0,0.0,0.0,0.0,0.0,0.0,0.0,0.0,0.0,0.0,0.0,0.0,0.0,0.0,4.1139,4.3605,4.6163,4.7127,5.1042,5.2952,5.1144,5.2717,5.413,5.4701,5.4727,5.5451,5.7126,5.7107,5.7434,5.828,5.8319,5.8357,5.8377,5.8415,5.8819,5.9627,6.0473,6.132,6.2147,6.2935,6.3007,6.2526,6.2526,6.2526,6.2622,6.3705,6.382,6.2993,5.9723,5.8473,5.8473,5.8473,5.8473,5.8569,5.9358,6.0165,6.0877,6.0877,6.0877,6.0877,6.0877,6.1493,6.2166,6.2166,6.2781,6.3435,6.3435,6.407,6.4936,6.5782,6.6571,6.7359,6.8225,6.8398,6.8398,6.8398,6.5743,6.3205,6.2416,6.23,6.1993,6.1146,6.3185,0.0,6.5955,6.7943,6.9894,7.1421,7.1334,7.1193,7.1156,6.8293,6.7871,7.1082,6.7016,6.6294,7.0248,6.4352,6.0993,6.0916,5.6722,5.1645,4.5778,0.0,0.0,0.0,0.0,0.0,0.0,0.0,0.0,0.0,0.0,0.0,0.0,0.0,0.0,0.0,0.0,0.0,0.0,0.0,0.0,0.0,4.6947,4.9056,4.4795,4.7644,5.0779,5.2395,5.4169,5.5122,5.4749,5.5228,5.5572,5.5653,5.5628,5.6143,5.7277,5.8088,5.8457,5.83,5.8877,5.9473,6.0108,6.0742,6.1454,6.2262,6.2512,6.2743,6.2974,6.3205,6.3224,6.3065,6.3065,6.3065,6.3084,6.3416,6.3455,6.3224,6.23,6.1935,6.1935,6.1935,6.1935,6.1973,6.2185,6.2416,6.2608,6.2608,6.2608,6.2608,6.2608,6.3224,6.3916,6.3916,6.4955,6.6051,6.6051,6.6705,6.7417,6.7667,6.7878,6.8109,6.8359,6.8398,6.8398,6.8398,6.7648,6.6936,6.6705,6.6667,6.659,6.6359,6.7936,6.9244,6.9494,7.0432,7.0577,6.9296,6.8859,6.844,6.7871,6.7008,6.7614,7.0257,6.8524,6.776,6.8625,6.6802,6.5025,6.3589,5.8165,5.3645,0.0,0.0,0.0,0.0,0.0,0.0,0.0,0.0,0.0,0.0,0.0,0.0,0.0,0.0,0.0,0.0,0.0,0.0,0.0,0.0,0.0,0.0,4.9116,5.1586,4.9605,5.1433,5.351,5.4955,5.559,5.6058,5.6482,5.629,5.6239,5.6544,5.7027,5.7527,5.8085,5.8858,5.9281,5.9358,6.0146,6.0819,6.1339,6.2185,6.2839,6.3301,6.3666,6.3839,6.3858,6.4224,6.4647,6.5089,6.507,6.532,6.5743,6.5532,6.5455,6.5301,0.0,0.0,0.0,0.0,6.3589,6.4282,6.3545,6.4084,6.5007,6.4545,6.4718,6.5084,6.5084,6.5628,6.6186,6.6186,6.6898,6.7648,6.7648,6.8013,6.8494,6.8859,6.8936,6.9052,6.9379,6.9456,6.9456,6.9456,6.9456,0.0,6.9456,6.8571,6.7628,6.6917,6.8225,6.9302,6.9302,6.9823,6.9935,6.924,6.858,6.8017,6.7559,6.6274,0.0,0.0,0.0,6.6406,6.6238,6.5976,0.0,0.0,0.0,5.6222,5.5068,5.1125,0.0,0.0,4.3028,4.236,0.0,0.0,0.0,0.0,0.0,0.0,0.0,0.0,0.0,0.0,0.0,0.0,0.0,0.0,0.0,0.0,4.9179,5.2916,5.4414,5.4722,5.5049,5.5761,5.5934,5.6319,5.7069,5.6547,5.6525,5.7431,5.8434,5.9165,5.955,5.9742,0.0,0.0,0.0,6.2281,6.2377,6.3089,6.3512,6.3608,6.4378,6.4782,6.4916,6.559,6.6551,6.7693,6.7693,6.8232,6.9078,6.8609,6.8398,6.8109,6.507,6.3839,6.3743,6.3257,6.4353,6.5897,6.4462,0.0,0.0,6.6415,6.6865,6.7775,6.7775,6.8121,6.8552,6.8552,6.8609,6.8686,6.8686,6.8686,6.8879,6.9648,6.984,7.0033,7.0744,7.0898,7.0898,7.0898,7.0898,7.0898,7.0898,6.9033,6.7013,6.5532,6.6571,6.7532,6.7532,6.7882,6.8633,6.9841,6.91,0.0,6.8366,6.5815,6.5521,6.8568,6.5819,6.4153,6.4356,6.3981,6.2752,6.055,5.9704,5.9608,6.0223,6.0012,5.9569,5.8627,4.8413,4.6182,0.0,0.0,0.0,0.0,0.0,0.0,0.0,0.0,0.0,0.0,0.0,0.0,0.0,0.0,0.0,4.9099,5.221,5.4493,5.5338,5.6069,5.6569,5.6722,5.6761,5.7107,5.7973,5.7492,5.7393,5.8062,5.8335,5.9627,6.2324,6.2132,6.2185,6.2801,6.2993,6.3416,6.4109,6.4262,6.4705,6.5397,6.557,0.0,6.659,6.6103,6.6756,6.8263,6.8686,6.8744,6.8552,6.8436,6.8398,6.834,6.7667,6.7141,6.6756,6.666,6.6891,6.7352,6.7878,6.7852,6.7564,6.7352,6.8006,6.8879,6.8879,6.9148,0.0,6.9456,6.9917,7.0417,7.0417,7.0417,7.0456,7.0629,7.0667,7.0706,7.086,7.0898,7.0898,7.0898,7.0898,7.0898,7.0898,7.0494,7.0052,6.9725,6.9956,7.0167,7.0167,6.95,6.8426,6.6786,6.6239,6.5742,6.5081,6.5044,6.5888,6.7797,6.7049,6.6908,6.7798,6.7165,6.6738,6.6686,6.584,6.5147,6.4666,6.3262,6.2493,6.2224,5.7376,5.6357,0.0,0.0,0.0,0.0,0.0,0.0,0.0,0.0,0.0,0.0,0.0,4.1348,4.4316,0.0,4.9457,5.1782,5.401,5.5667,5.6261,5.6722,5.6992,5.6992,5.7376,5.7934,5.8627,5.8184,5.8308,5.9476,6.0335,6.1535,6.3214,6.3055,6.3012,6.3301,6.3724,6.4166,6.4609,6.5032,6.5667,6.6494,6.6494,6.6936,6.7744,6.7314,6.7859,6.909,6.9771,6.9906,6.9648,6.9648,6.9648,6.9648,6.9648,6.8794,6.7545,6.6961,6.7268,6.8198,6.9552,6.9687,6.9237,6.9237,6.961,7.0033,7.0033,7.0167,7.0302,7.0302,7.0591,7.0898,7.0898,7.0898,7.0898,7.0898,7.0898,7.0898,7.0898,7.0898,7.0898,7.0898,7.0898,7.0898,7.0898,7.0898,7.0898,7.0898,7.0898,7.0898,7.0898,7.0214,6.9152,6.7674,6.7131,6.6616,6.5977,6.6256,6.6843,6.7632,6.7772,6.807,6.8631,6.8351,6.8343,6.8597,6.8021,6.7552,6.7148,6.6282,6.5859,6.582,6.4128,6.3128,0.0,0.0,0.0,0.0,0.0,0.0,0.0,3.8379,3.9238,4.2715,4.4082,4.5527,4.8418,5.0703,5.2599,5.3958,5.5457,5.6607,5.7184,5.7396,5.7492,5.7492,5.8107,5.8781,5.9358,5.9117,5.9437,6.0693,6.2062,6.3113,6.3772,6.3589,6.3589,6.3801,6.4493,6.4936,6.5089,6.5782,6.6532,6.734,6.734,6.7802,6.8648,6.859,6.9071,6.9975,7.0637,7.0906,7.0898,7.0898,7.0898,7.0898,7.0898,6.9821,6.8141,6.7211,6.773,6.9083,7.0417,7.0906,7.0898,7.0898,7.0898,7.0898,7.0898,7.0898,7.0898,7.0898,7.0898,7.0898,7.0898,7.0898,7.0898,7.0898,7.0898,7.0898,7.0898,7.0898,7.0898,7.0898,7.0898,7.0898,7.0898,7.0898,7.0898,7.0898,7.0898,7.0898,7.0898,7.0413,6.9883,6.9353,6.8821,6.829,6.7722,6.7687,6.7687,6.7687,6.8097,6.8368,6.8511,6.8771,6.8944,6.9065,6.8935,6.8821,6.8648,6.8648,6.8648,6.8648,6.8648,6.7455,3.4955,3.4338,3.5137,3.7559,3.8594,4.0527,0.0,4.6855,4.7266,5.0703,5.2109,5.3047,5.4199,5.4668,5.5328,5.6715,5.7124,5.747,5.8066,5.8781,5.9223,5.9223,5.9319,5.9685,6.0531,6.0809,6.0913,6.0809,6.0976,6.2406,6.5441,6.4647,6.457,6.557,6.5705,6.609,6.6801,6.6917,6.7398,6.8263,6.8263,6.8706,6.9552,6.9263,6.9725,7.0764,7.086,7.0898,7.0898,7.0898,7.0898,7.0898,7.0898,7.0744,7.0533,7.0398,7.0475,7.0648,7.0821,7.0898,7.0898,7.0898,7.0898,7.0898,7.0898,7.0898,7.0898,7.0898,7.0898,7.0898,7.0898,7.0898,7.0898,7.0898,7.0898,7.0898,7.0898,7.0898,7.0898,7.0898,7.0898,7.0898,7.0898,7.0898,7.0898,7.0898,7.0898,7.0898,7.0898,7.0413,6.9883,6.9353,6.8821,6.829,6.7722,6.7687,6.7687,6.7687,6.7776,6.8014,6.8511,6.897,6.9475,6.9942,7.0392,7.0264,6.9552,6.9552,6.9552,6.9552,6.9552,6.8994,4.0563,4.0287,4.0684,4.3808,4.4863,4.6055,4.9551,5.0078,5.0644,5.3594,5.4492,5.5019,5.5898,5.5984,5.6263,5.7235,5.7325,5.7674,5.8838,5.93,5.9681,6.0204,6.0704,6.0954,6.0815,6.2002,6.3049,6.3726,6.3758,6.4372,6.5807,6.5436,6.5416,6.5878,6.634,6.6763,6.709,6.7609,6.8302,6.9148,6.8648,6.8859,6.9687,6.934,6.9456,6.9956,7.061,7.0898,7.0898,7.0898,7.0898,7.0898,7.0898,7.0898,7.0898,7.0898,7.0898,7.0898,7.0898,7.0898,7.0898,7.0898,7.0898,7.0898,7.0898,7.0898,7.0898,7.0898,7.0898,7.0898,7.0898,7.0898,7.0898,7.0898,7.0898,7.0898,7.0898,7.0898,7.0898,7.0898,7.0898,7.0898,7.0898,7.0898,7.0898,7.0898,7.0898,7.0898,7.0898,7.07,7.0247,6.9393,6.8539,6.793,6.7741,6.7687,6.7687,6.7687,6.7687,6.781,6.8014,6.8866,6.9433,6.9626,7.0463,7.0725,7.0398,7.0398,7.0398,7.0398,7.0398,7.0206,4.3665,4.4317,4.5195,4.8457,4.9961,5.0976,5.2207,5.2656,5.3379,5.5273,5.5664,5.5859,5.6484,5.6483,5.6706,5.7609,5.7657,5.8097,5.9646,5.9877,6.0084,6.0723,6.1762,6.2185,6.1565,6.28,6.4364,6.6049,6.5999,6.5897,6.5903,6.5897,6.6032,6.6359,6.684,6.7321,6.7802,6.8205,6.884,6.9687,6.8975,6.8879,6.934,6.909,6.8975,6.9052,7.011,7.0571,7.0591,7.0802,7.0898,7.0898,7.0898,7.0898,7.0898,7.0898,7.0898,7.0898,7.0898,7.0898,7.0898,7.0898,7.0898,7.0898,7.0898,7.0898,7.0898,7.0898,7.0898,7.0898,7.0898,7.0898,7.0898,7.0898,7.0898,7.0898,7.0898,7.0898,7.0898,7.0898,7.0898,7.0898,7.0898,7.0898,7.0898,7.0898,7.0898,7.0898,7.0898,7.0777,7.035,6.9393,6.8464,6.7844,6.7741,6.7687,6.7687,6.7687,6.7687,6.7687,6.7687,6.875,6.9313,6.9313,7.033,7.0898,7.0898,7.0898,7.0898,7.0898,7.0898,7.0898,4.2441,4.4316,4.6855,4.9492,5.2656,5.5117,5.5176,5.584,5.6465,5.6543,5.6562,5.6562,5.6601,5.6484,5.6904,5.8412,5.8553,5.9004,6.055,6.0762,6.0762,6.08,6.2262,6.3262,6.3243,6.3281,6.4301,6.6692,6.6288,6.5897,6.5897,6.5897,6.6397,6.752,6.7244,6.7917,6.961,6.8821,6.884,6.9706,6.9321,6.8917,6.8456,6.8436,6.8417,6.8475,6.936,6.9744,6.9802,7.0571,7.0898,7.0898,7.0898,7.0898,7.0898,7.0898,7.0898,7.0898,7.0898,7.0898,7.0898,7.0898,7.0898,7.0898,7.0898,7.0898,7.0898,7.0898,7.0898,7.0898,7.0898,7.0898,7.0898,7.0898,7.0898,7.0898,7.0898,7.0898,7.0898,7.0898,7.0898,7.0898,7.0898,7.0898,7.0898,7.0898,7.0898,7.0898,7.0898,7.0463,6.9902,6.9353,6.8821,6.8259,6.7722,6.7687,6.7687,6.7687,6.7687,6.7687,6.7687,6.875,6.9313,6.9313,7.033,7.0898,7.0898,7.0898,7.0898,7.0898,7.0898,7.0898,4.6074,4.8164,5.0312,5.293,5.4883,5.6152,5.6152,5.6387,5.6601,5.6601,5.7051,5.7461,5.7461,5.7715,5.828,5.9379,5.9345,5.955,6.0646,6.08,6.08,6.08,6.2281,6.3455,6.3858,6.4589,6.5359,6.6167,6.6032,6.5897,6.5897,6.6962,6.7577,6.7597,6.8398,6.9109,6.9687,6.9417,6.9667,7.0483,6.8905,6.7654,6.6763,6.7282,6.7532,6.759,6.8456,6.9033,6.9379,6.9648,6.9552,6.9283,6.9629,6.934,6.8737,6.9109,6.961,7.0187,7.0706,7.0898,7.0898,7.0898,7.0898,7.0898,7.0898,7.0898,7.0898,7.0898,7.0898,7.0898,7.0898,7.0898,7.0898,7.0898,7.0898,7.0898,7.0898,7.0898,7.0898,7.0898,7.0898,7.0898,7.0898,7.0898,7.0898,7.0898,7.0898,7.0898,7.0898,7.0413,7.0007,6.9847,6.9021,6.8416,6.8259,6.7878,6.7687,6.7687,6.8176,6.8227,6.7741,6.9045,6.9664,6.9313,7.033,7.0898,7.0898,7.0898,7.0898,7.0898,7.0898,7.0898,4.9316,5.1269,5.2871,5.5195,5.6191,5.6601,5.6601,5.6601,5.6601,5.6601,5.6751,5.6899,5.6893,5.7344,5.8182,5.965,6.0188,6.0661,6.1339,6.1839,6.2108,6.2012,6.3051,6.3801,6.3878,6.5089,6.5897,6.5897,6.5897,6.6423,6.7622,6.8142,6.8527,6.877,6.9379,6.9706,6.9706,6.9571,6.936,6.9097,6.7674,6.659,6.5917,6.6436,6.6667,6.6724,6.7571,6.7975,6.8052,6.8456,6.8436,6.8141,6.8494,6.8225,6.766,6.8205,6.8763,6.9398,7.0494,7.0898,7.0898,7.0898,7.0898,7.0898,7.0898,7.0898,7.0898,7.0898,7.0898,7.0898,7.0898,7.0898,7.0898,7.0898,7.0898,7.0898,7.0898,7.0898,7.0898,7.0898,7.0898,7.0898,7.0898,7.0898,7.0898,7.0898,7.0898,7.0898,7.0898,7.0603,7.033,7.0129,6.9294,6.8724,6.8633,6.8051,6.7687,6.7687,6.8396,6.861,6.8107,6.9372,6.9938,6.9588,7.0463,7.0898,7.0898,7.0898,7.0898,7.0898,7.0898,7.0898,5.1933,5.3496,5.459,5.6191,5.6601,5.6601,5.6601,5.6562,5.6523,5.6484,5.5696,5.501,5.4922,5.5486,5.6731,5.9104,6.0978,6.2202,6.2444,6.3661,6.4436,6.4191,6.4397,6.4262,6.3424,6.4872,6.5897,6.5897,6.6051,6.7526,7.06,6.9361,6.9258,7.0791,7.0129,6.9744,6.9706,6.9302,6.8058,6.5897,6.5897,6.5897,6.5897,6.5897,6.5897,6.5936,6.6705,6.6609,6.5987,6.7083,6.7506,6.7506,6.7506,6.7506,6.7564,6.809,6.8321,6.8571,7.0117,7.0733,7.0821,7.0879,7.086,7.0821,7.0879,7.0898,7.0898,7.0898,7.0898,7.0898,7.0898,7.0898,7.0898,7.0898,7.0898,7.0898,7.0841,7.0879,7.0898,7.0841,7.0879,7.0898,7.0898,7.0898,7.0898,7.0898,7.0898,7.0898,7.0898,7.0898,7.07,7.0214,6.9645,6.9204,6.8902,6.8121,6.7686,6.7686,6.834,6.8819,6.8912,6.9682,7.0095,7.0095,7.0622,7.0879,7.0841,7.0879,7.0879,7.0841,7.0879,7.0898,5.4219,5.5742,5.6855,5.664,5.6601,5.6601,5.6601,5.6094,5.5449,5.4805,5.4373,5.3756,5.2511,5.4798,5.6892,5.6928,5.9837,6.2111,6.2183,6.3034,6.3603,6.3531,6.3993,6.4199,6.3988,6.5147,6.5897,6.5897,6.82,6.9438,6.9047,6.9836,7.0175,6.9994,7.0379,7.0302,6.9706,6.8552,6.7308,6.5897,6.5897,6.5897,6.5897,6.5897,6.5897,6.5897,6.6109,6.609,6.5917,6.6224,6.634,6.634,6.634,6.634,6.6359,6.6494,6.7032,6.7667,6.7301,6.8244,6.979,7.0618,7.0321,6.9802,7.0648,7.0898,7.0898,7.0898,7.0898,7.0898,7.0898,7.0898,7.0898,7.0898,7.0898,7.0744,7.0148,7.0475,7.0725,7.0129,7.0494,7.0898,7.0898,7.0898,7.0898,7.0898,7.0898,7.0898,7.0898,7.0898,7.0852,7.07,7.008,6.9621,6.9549,6.8428,6.7703,6.7703,6.7885,6.8679,7.0275,7.0194,7.0095,7.0095,7.0622,7.0591,7.0014,7.061,7.0591,7.0014,7.0629,7.0898,5.6777,5.7734,5.8164,5.6914,5.6601,5.6504,5.6113,5.5351,5.4375,5.3125,5.2129,5.1305,5.0756,5.3262,5.5789,5.6848,6.0493,6.3335,6.3719,6.4462,6.4834,6.4474,6.4743,6.4955,6.4955,6.5513,6.6519,6.7988,6.845,6.8604,6.8411,6.9521,7.0021,6.9706,7.0148,6.986,6.8783,6.7494,6.6513,6.5897,6.5897,6.5897,6.5897,6.5897,6.5897,6.5897,6.5897,6.5897,6.5897,6.5897,6.5897,6.5897,6.5897,6.5897,6.5897,6.5897,6.6282,6.6705,6.6128,6.6705,6.7859,6.8513,6.8929,6.9333,7.0129,7.0379,7.0379,7.0379,7.0379,7.0379,7.0379,7.0648,7.0802,7.0456,7.0648,7.0687,6.9879,7.0052,7.0244,6.9783,7.036,7.0898,7.0898,7.0898,7.0898,7.0898,7.0898,7.0898,7.0898,7.0898,7.0898,7.0898,7.0241,6.9923,7.0247,6.8709,6.7897,6.8372,6.8401,6.9039,7.0501,7.0465,7.0444,7.0444,7.0748,7.0687,7.0225,7.0321,7.0148,6.9706,7.0167,7.0379,5.9023,5.9199,5.8789,5.7031,5.6601,5.6367,5.5508,5.4453,5.3164,5.1426,4.9512,4.8322,4.8836,5.1099,5.3841,5.6813,6.1016,6.4258,6.5268,6.6186,6.6571,6.5994,6.5897,6.5897,6.5897,6.5897,6.7289,7.0639,6.7795,6.6673,6.8431,6.8886,6.9225,6.9513,6.9456,6.8821,6.7616,6.6455,6.5897,6.5897,6.5897,6.5897,6.5897,6.5897,6.5897,6.5897,6.5897,6.5974,6.609,6.5955,6.5955,6.6051,6.5936,6.5897,6.5897,6.5897,6.5897,6.5897,6.5897,6.5897,6.5917,6.6077,6.7384,6.9013,6.9398,6.9533,6.9533,6.9533,6.9533,6.9533,6.9533,7.0052,7.0398,6.9687,7.0052,7.036,6.9533,6.936,6.9398,6.9513,7.0187,7.0744,7.0744,7.0821,7.0898,7.0898,7.0898,7.0898,7.0898,7.0898,7.0898,7.0898,7.0341,7.0195,7.0858,6.9208,6.8522,6.947,6.9397,6.9626,7.0171,7.0563,7.0824,7.0898,7.0898,7.0783,7.0571,6.9975,6.959,6.936,6.9475,6.959,5.9336,5.9199,5.8789,5.7031,5.6601,5.6367,5.5508,5.3516,5.1367,4.9687,4.7747,4.5959,4.4727,4.8137,5.1337,5.1926,5.6713,6.0935,6.2536,6.407,6.5295,6.5974,6.5955,6.5897,6.5897,6.5897,6.7289,7.0639,6.7795,6.6821,6.8963,6.8725,6.8571,6.8629,6.8186,6.7866,6.7597,6.6455,6.5897,6.5897,6.5897,6.5897,6.5897,6.5897,6.5897,6.5897,6.5897,6.6397,6.7154,6.6263,6.6282,6.6821,6.6147,6.5897,6.5897,6.5897,6.5897,6.5897,6.5897,6.5897,6.6051,6.6994,6.7378,6.7609,6.8398,6.8629,6.8629,6.8629,6.8629,6.8629,6.8629,6.8744,6.8802,6.8667,6.8744,6.8609,6.7744,6.7552,6.7763,6.8494,6.9321,6.9917,6.9917,7.0456,7.0898,7.0898,7.0898,7.0898,7.0898,7.0898,7.0898,7.0898,7.0785,7.0777,7.0892,7.0566,7.0411,7.0617,7.0043,7.0024,7.0739,7.0424,7.0463,7.0898,7.0898,7.0225,6.884,6.9417,6.8956,6.7571,6.8302,6.9013,5.8984,5.8848,5.8789,5.7031,5.6601,5.6133,5.4355,5.2305,5.0039,4.7402,4.5308,4.3948,4.4006,4.66,4.9296,5.1028,5.5568,5.9477,6.1189,6.3262,6.4949,6.5878,6.609,6.609,6.5917,6.7487,6.8912,6.9932,6.8001,6.7269,6.8309,6.7955,6.7725,6.7725,6.7654,6.7327,6.6705,6.6167,6.5897,6.5897,6.5897,6.5897,6.5897,6.5897,6.5897,6.5897,6.5897,6.6186,6.6667,6.675,6.6673,6.6436,6.6051,6.5897,6.5897,6.5897,6.5897,6.5897,6.5897,6.5897,6.5994,6.6532,6.6878,6.7167,6.759,6.7725,6.7725,6.7725,6.7725,6.7725,6.7725,6.8071,6.8302,6.784,6.7725,6.7609,6.7186,6.7455,6.7763,6.7725,6.8436,6.9167,6.9629,7.0014,7.0417,7.0841,7.0898,7.0898,7.0898,7.0898,7.0898,7.0898,7.0898,7.0898,7.0898,7.0911,7.0907,7.0907,7.0585,7.0533,7.0888,7.0658,7.0652,7.0898,7.0898,7.0302,6.909,6.9052,6.8359,6.7109,6.7532,6.8186,5.8926,5.8808,5.8828,5.7265,5.6844,5.6044,5.3085,5.123,4.9101,4.5469,4.3318,4.2558,4.4058,4.5601,4.76,5.0606,5.438,5.7711,5.9935,6.2296,6.4334,6.582,6.6167,6.6128,6.5705,6.8219,6.9631,6.8956,6.8205,6.7616,6.725,6.6974,6.684,6.684,6.709,6.6801,6.5897,6.5897,6.5897,6.5897,6.5897,6.5897,6.5897,6.5897,6.5897,6.5897,6.5897,6.6032,6.6301,6.6962,6.6808,6.6128,6.5974,6.5897,6.5897,6.5897,6.5897,6.5897,6.5897,6.5897,6.5897,6.5897,6.632,6.684,6.684,6.684,6.684,6.684,6.684,6.684,6.684,6.734,6.7686,6.7013,6.684,6.684,6.684,6.7378,6.7667,6.6974,6.7532,6.834,6.9013,6.9456,6.9917,7.0552,7.0783,7.0898,7.0898,7.0898,7.0898,7.0898,7.0898,7.0898,7.0898,7.0898,7.0898,7.0898,7.0898,7.0898,7.0898,7.0898,7.0898,7.0898,7.0898,7.0417,6.9417,6.8744,6.7859,6.684,6.684,6.7301,6.0039,5.9707,5.8965,5.8027,5.7642,5.6459,5.242,5.0683,4.8769,4.4668,4.2904,4.2403,4.3349,4.4722,4.6317,4.8145,5.0721,5.3897,5.7953,6.005,6.2435,6.5942,6.6109,6.5667,6.4968,6.5955,6.7013,6.7948,6.8198,6.7667,6.6128,6.6032,6.6013,6.6013,6.6032,6.6013,6.5897,6.5897,6.5897,6.5897,6.5897,6.5897,6.5897,6.5897,6.5897,6.5897,6.5897,6.6474,6.7385,6.6436,6.6417,6.6917,6.6186,6.5897,6.5897,6.5897,6.5897,6.5897,6.5897,6.5897,6.5897,6.5897,6.5955,6.6013,6.6013,6.6013,6.6013,6.6013,6.6013,6.6013,6.6013,6.607,6.6109,6.6032,6.6013,6.6013,6.6013,6.607,6.6109,6.6032,6.6647,6.7244,6.7321,6.8648,6.9725,6.9802,7.0437,7.0898,7.0898,7.0898,7.0898,7.0898,7.0898,7.0898,7.0898,7.0898,7.0898,7.0898,7.0898,7.0898,7.0898,7.0898,7.0898,7.0898,7.0898,7.011,6.8532,6.8456,6.759,6.6013,6.6013,6.6436,5.8945,5.9394,5.9726,5.8887,5.8176,5.6557,5.2365,5.0258,4.7851,4.3164,4.179,4.1688,4.2472,4.3472,4.4874,4.7029,4.9066,5.1529,5.4764,5.7194,5.9945,6.3495,6.5313,6.5702,6.4339,6.6146,6.7482,6.7691,6.7826,6.7436,6.6244,6.6013,6.5897,6.5897,6.5897,6.5897,6.5897,6.5897,6.5897,6.5897,6.5897,6.5897,6.5897,6.5897,6.5897,6.5897,6.5897,6.6417,6.7225,6.6282,6.6359,6.7013,6.6205,6.5897,6.5897,6.5897,6.5897,6.5897,6.5897,6.5897,6.5897,6.5897,6.5897,6.5897,6.5897,6.5897,6.5897,6.5897,6.5897,6.5897,6.5897,6.5897,6.5897,6.5897,6.5897,6.5897,6.5897,6.5897,6.5897,6.5897,6.6147,6.6532,6.7013,6.7667,6.8494,6.9533,7.0379,7.0906,7.0898,7.0898,7.0898,7.0898,7.0898,7.0898,7.0898,7.0898,7.0898,7.0898,7.0898,7.0898,7.0898,7.0898,7.0898,7.0898,7.0417,6.959,6.8398,6.7878,6.7032,6.5897,6.5897,6.632,5.8242,5.914,5.9961,5.9648,5.8433,5.6217,5.2001,4.9442,4.6591,4.1794,4.0703,4.0837,4.157,4.2322,4.3662,4.6124,4.7524,4.9525,5.307,5.5234,5.7747,6.1205,6.358,6.4466,6.3243,6.5876,6.7575,6.7329,6.7497,6.7258,6.643,6.6179,6.6052,6.6057,6.6051,6.6051,6.6051,6.5974,6.5955,6.5955,6.5917,6.5897,6.5897,6.5897,6.5897,6.5897,6.5897,6.6359,6.7032,6.6224,6.6359,6.7013,6.6205,6.5897,6.5897,6.5897,6.5897,6.5897,6.5897,6.5897,6.5897,6.5897,6.5897,6.5897,6.5897,6.5897,6.5897,6.5897,6.5897,6.5897,6.5897,6.5897,6.5897,6.5897,6.5897,6.5897,6.5897,6.5897,6.5897,6.5897,6.5897,6.607,6.6647,6.6936,6.7513,6.8744,7.006,7.0906,7.0879,7.0898,7.0898,7.0898,7.0898,7.0898,7.0898,7.0898,7.0898,7.0898,7.0898,7.0898,7.0898,7.0591,7.0398,7.0398,6.9687,6.8898,6.8013,6.7398,6.6686,6.5897,6.5897,6.6205,5.8496,5.9199,5.9394,6.0195,5.8379,5.5322,5.1162,4.8086,4.4959,4.0776,3.9805,3.9934,4.0675,4.1461,4.2797,4.522,4.5624,4.7717,5.3667,5.4612,5.6039,5.9607,6.0754,6.1314,6.1497,6.4494,6.6458,6.6597,6.7227,6.7256,6.6445,6.6406,6.6406,6.6409,6.6404,6.6404,6.6404,6.6186,6.609,6.609,6.5955,6.5897,6.5897,6.5897,6.5897,6.5897,6.5897,6.6359,6.7032,6.6224,6.6359,6.7013,6.6205,6.5897,6.5897,6.5897,6.5897,6.5897,6.5897,6.5897,6.5897,6.5897,6.5897,6.5897,6.5897,6.5897,6.5897,6.5897,6.5897,6.5897,6.5897,6.5897,6.5897,6.5897,6.5897,6.5897,6.5897,6.5897,6.5897,6.5897,6.5897,6.5897,6.5897,6.6571,6.7109,6.7109,6.929,7.0887,7.0887,7.0906,7.0898,7.0898,7.0898,7.0898,7.0898,7.0898,7.0898,7.0898,7.0898,7.0898,7.0898,6.9821,6.9217,6.9217,6.8706,6.7975,6.7109,6.709,6.6686,6.5897,6.5897,6.5897,5.4375,5.5625,5.6445,5.6113,5.4863,5.2809,4.9229,4.6772,4.4035,3.9878,3.8984,3.9153,3.9799,4.0622,4.214,4.512,4.5607,4.7069,5.1299,5.3608,5.6126,5.9597,6.1963,6.3575,6.4258,6.4687,6.5237,6.5879,6.6661,6.7003,6.6757,6.6737,6.6625,6.6406,6.6406,6.6406,6.6406,6.6331,6.6225,6.609,6.6051,6.6032,6.6032,6.607,6.607,6.6032,6.609,6.6821,6.7936,6.7269,6.7404,6.7859,6.6455,6.5897,6.5897,6.5897,6.5897,6.5897,6.5897,6.5897,6.5897,6.5897,6.5897,6.5897,6.5897,6.5897,6.5897,6.5897,6.5897,6.5897,6.5897,6.5897,6.5897,6.5897,6.5897,6.5897,6.5897,6.5897,6.5897,6.5897,6.5897,6.5897,6.5897,6.6109,6.6532,6.7244,6.7436,6.8302,7.0606,7.0887,7.0906,7.0906,7.0898,7.0898,7.0898,7.0898,7.0898,7.0898,7.0898,7.0898,7.0906,6.9821,6.8852,6.8121,6.7725,6.7378,6.709,6.6551,6.6147,6.5897,6.5897,6.5897,4.9707,5.1797,5.3164,5.2285,5.1367,4.9863,4.6816,4.4474,4.2031,3.878,3.8105,3.82,3.8526,3.9575,4.1428,4.4652,4.5184,4.6685,5.1029,5.3242,5.5839,5.9682,6.1699,6.3232,6.4488,6.4648,6.4925,6.5546,6.6399,6.6904,6.6892,6.6892,6.6795,6.66,6.658,6.658,6.658,6.6502,6.6409,6.6244,6.6232,6.623,6.6211,6.6273,6.6262,6.6262,6.6194,6.6859,0.0,6.768,6.7674,6.7782,6.6436,6.5897,6.5897,6.5897,6.5897,6.5897,6.5897,6.5897,6.5897,6.5897,6.5897,6.5897,6.5897,6.5897,6.5897,6.5897,6.5897,6.5897,6.5897,6.5897,6.5897,6.5897,6.5897,6.5897,6.5897,6.5897,6.5897,6.5897,6.5897,6.5897,6.5897,6.5897,6.6128,6.6782,6.634,6.6641,6.8732,6.8994,6.9494,7.0779,7.0887,7.0906,7.0906,7.0898,7.0898,7.0898,7.0898,7.0898,7.0906,6.8987,6.7633,6.6961,6.6737,6.6647,6.6647,6.6128,6.5897,6.5897,6.5897,6.5897,0.0,4.746,4.9433,4.8553,4.7734,4.6484,4.3984,4.1543,0.0,3.7656,3.7246,3.7246,3.7363,3.8652,4.0793,4.4141,4.468,4.6646,5.2319,5.3648,5.5729,6.0211,6.0586,6.1172,6.293,6.444,6.5383,6.5505,6.6367,6.6894,6.6894,6.6894,6.6894,6.6894,6.6894,6.6894,6.6894,6.6719,6.6582,6.6502,6.6442,6.6406,6.6401,6.6409,6.6452,6.6477,6.6242,6.6627,6.741,6.7468,6.7327,6.7013,6.6205,6.5897,6.5897,6.5897,6.5897,6.5897,6.5897,6.5897,6.5897,6.5897,6.5897,6.5897,6.5897,6.5897,6.5897,6.5897,6.5897,6.5897,6.5897,6.5897,6.5897,6.5897,6.5897,6.5897,6.5897,6.5897,6.5897,6.5897,6.5897,6.5897,6.5897,6.5897,6.5897,6.5897,6.5891,6.591,6.591,6.5904,6.7076,7.0221,7.0529,7.0529,7.0529,7.0771,7.0898,7.0898,7.0898,7.0898,7.0898,6.7902,6.6127,6.5897,6.5891,6.5897,6.5897,6.5897,6.5897,6.5897,6.5897,6.5897,3.6285,0.0,4.4017,4.3091,4.2783,4.2344,0.0,3.9746,3.8594,3.7519,3.6777,3.707,3.9629,3.9866,4.1193,4.5735,4.6444,4.7798,5.1799,5.5899,5.9924,6.3764,6.3613,6.3398,6.3945,6.4919,6.5262,6.4648,6.6035,6.6894,6.6894,6.6894,6.6894,6.6894,6.6894,6.6894,6.6894,6.6855,6.6722,6.6498,6.6537,6.6527,6.6477,6.6514,6.6567,6.6563,6.6451,6.6787,6.7353,6.6596,6.6609,6.7013,6.6205,6.5897,6.5897,6.5897,6.5897,6.5897,6.5897,6.5897,6.5897,6.5897,6.5897,6.5897,6.5897,6.5897,6.5897,6.5897,6.5897,6.5897,6.5897,6.5897,6.5897,6.5897,6.5897,6.5897,6.5897,6.5897,6.5897,6.5897,6.5897,6.5897,6.5897,6.5897,6.5897,6.5897,6.5897,6.5897,6.5897,6.591,6.6199,6.6994,6.7083,6.7076,6.7076,6.9436,7.0887,7.0894,7.0887,7.0914,7.0902,7.0131,6.8527,6.5949,6.5897,6.5897,6.5897,6.5897,6.5897,6.5897,6.5897,6.5897,3.3345,3.7143,4.0846,3.9497,4.011,4.0671,3.9392,3.8516,3.7715,3.6875,3.6328,3.668,3.8887,4.0199,4.2189,4.602,4.8598,5.1451,5.5307,5.8988,6.2027,6.4056,6.3876,6.3613,6.3691,6.4492,6.4805,6.4336,6.5918,6.6894,6.6894,6.6894,6.6894,6.6894,6.6894,6.6894,6.6894,6.6894,6.6828,6.6681,6.6712,6.6722,6.6681,6.6727,6.6739,6.6738,6.6575,6.6704,6.6962,6.6327,6.6263,6.659,6.6147,6.5936,6.5897,6.5897,6.5897,6.5897,6.5897,6.5897,6.5897,6.5897,6.5897,6.5897,6.5897,6.5897,6.5897,6.5897,6.5897,6.5897,6.5897,6.5897,6.5897,6.5897,6.5897,6.5897,6.5897,6.5897,6.5897,6.5897,6.5897,6.5897,6.5897,6.5897,6.5897,6.5897,6.5897,6.5897,6.5897,6.5897,6.5891,6.5891,6.591,6.5884,6.5884,6.7545,6.9271,7.0798,6.9456,6.8609,6.8616,6.8623,6.7731,6.5936,6.5897,6.5897,6.5897,6.5897,6.5897,6.5897,6.5897,6.5897,3.3219,3.6517,3.9215,3.7276,3.8508,3.9867,3.8495,3.7575,3.6816,3.6133,3.6211,3.6855,3.8398,4.1035,4.3938,4.6816,5.1048,5.5455,5.9665,6.1502,6.2588,6.3107,6.2935,6.282,6.2988,6.3672,6.416,6.4297,6.5781,6.6758,6.6894,6.6894,6.6894,6.6894,6.6894,6.6894,6.6894,6.6894,6.6894,6.6894,6.6888,6.6897,6.6891,6.6892,6.6894,6.6894,6.6666,6.6578,6.6577,6.6348,6.6198,6.614,6.6159,6.607,6.5955,6.5936,6.5917,6.5917,6.5897,6.5897,6.5897,6.5897,6.5897,6.5897,6.5897,6.5897,6.5897,6.5897,6.5897,6.5897,6.5897,6.5897,6.5897,6.5897,6.5897,6.5897,6.5897,6.5897,6.5897,6.5897,6.5897,6.5897,6.5897,6.5897,6.5897,6.5897,6.5897,6.5897,6.5897,6.5897,6.5897,6.5897,6.5897,6.5897,6.5897,6.5891,6.7109,6.9951,6.7468,6.5897,6.5897,6.5884,6.5891,6.5897,6.5897,6.5897,6.5897,6.5897,6.5897,6.5897,6.5897,6.5897,3.3771,3.6914,3.8919,3.6433,3.6699,3.7512,3.7281,3.6649,3.6074,3.6016,3.7168,3.957,4.4082,4.5351,4.7225,5.1863,5.3893,5.6109,5.9551,6.0373,6.1428,6.3681,6.262,6.2065,6.2927,6.3125,6.3515,6.4238,6.5234,6.6113,6.6855,6.6894,6.6894,6.6894,6.6894,6.6894,6.6894,6.6894,6.6894,6.6894,6.6904,6.6897,6.69,6.6902,6.6894,6.6894,6.6853,6.6749,6.6588,6.6491,6.6402,6.6353,6.6344,6.6346,6.6307,6.6128,6.607,6.6051,6.5936,6.5897,6.5897,6.5897,6.5897,6.5897,6.5897,6.5897,6.5897,6.5897,6.5897,6.5897,6.5897,6.5897,6.5897,6.5897,6.5897,6.5897,6.5897,6.5897,6.5897,6.5897,6.5897,6.5897,6.5897,6.5897,6.5897,6.5897,6.5897,6.5897,6.5897,6.5897,6.5897,6.5897,6.5897,6.5897,6.5897,6.5897,6.6109,6.6634,6.6179,6.591,6.5917,6.5897,6.5897,6.5897,6.5897,6.5897,6.5897,6.5897,6.5897,6.5897,6.5897,6.5897,3.2116,3.4595,3.7095,3.8073,4.0677,4.3145,4.3651,4.3156,4.2104,4.0306,4.1004,4.2812,4.5664,4.7402,5.0527,5.7012,5.8808,6.0056,6.2041,6.2787,6.321,6.3468,6.2794,6.2313,6.2304,6.2715,6.3359,6.4238,6.5117,6.5976,6.6855,6.6894,6.6894,6.6894,6.6894,6.6894,6.6894,6.6894,6.6894,6.6894,6.6894,6.6907,6.6902,6.6895,6.6894,6.6894,6.6894,6.6844,6.6762,6.6741,6.6625,6.6512,6.6508,6.6456,6.638,6.6314,6.623,6.6128,6.5955,6.5955,6.6032,6.5936,6.5897,6.5897,6.5897,6.5897,6.5897,6.5897,6.5897,6.5897,6.5897,6.5897,6.5897,6.5897,6.5897,6.5897,6.5897,6.5897,6.5897,6.5897,6.5897,6.5897,6.5897,6.5897,6.5897,6.5897,6.5897,6.5897,6.5897,6.5897,6.5897,6.5897,6.5897,6.5897,6.5897,6.5897,6.5897,6.5897,6.5897,6.5897,6.5897,6.5897,6.5897,6.5897,6.5897,6.5897,6.5897,6.5897,6.5897,6.5897,6.5897,6.5897,3.167,3.3628,3.6397,4.0321,4.354,4.6434,4.8931,4.8276,4.6615,4.4853,4.5465,4.6635,4.7695,5.0156,5.4004,6.0117,6.1836,6.2832,6.4121,6.4707,6.4492,6.3164,6.2812,6.2422,6.1758,6.2305,6.3066,6.3926,6.4609,6.5469,6.6543,6.6601,6.6699,6.6894,6.6894,6.6894,6.6894,6.6894,6.6894,6.6894,6.6894,6.6894,6.6894,6.6894,6.6894,6.6894,6.6894,6.6894,6.6893,6.6897,6.6813,6.6679,6.6674,6.6566,6.6448,6.6467,6.6358,6.6232,6.6077,6.6097,6.6167,6.6051,6.5994,6.5974,6.6013,6.6013,6.6013,6.6013,6.6013,6.5994,6.5917,6.5897,6.5897,6.5897,6.5897,6.5897,6.5897,6.5897,6.5897,6.5897,6.5897,6.5897,6.5897,6.5897,6.5897,6.5897,6.5897,6.5897,6.5897,6.5897,6.5897,6.5897,6.5897,6.5897,6.5897,6.5897,6.5897,6.5897,6.5897,6.5897,6.5897,6.5897,6.5897,6.5897,6.5897,6.5897,6.5897,6.5897,6.5897,6.5897,6.5897,6.5897,3.4844,3.6746,3.8878,4.2412,4.1034,4.0711,4.7874,4.6416,4.4422,4.742,4.9471,5.1237,5.2941,5.5488,5.7793,5.916,6.0058,6.1465,6.3945,6.3652,6.3144,6.3008,6.2285,6.1777,6.1719,6.1758,6.2168,6.3027,6.3144,6.3926,6.5605,6.5683,6.6055,6.6875,6.6894,6.6894,6.6894,6.6894,6.6894,6.6894,6.6894,6.6894,6.6894,6.6894,6.6894,6.6894,6.6894,6.6894,6.6894,6.6892,6.6893,6.6875,6.6874,6.6756,6.658,6.6597,6.6512,6.6386,6.6367,6.6283,6.623,6.6346,6.6288,6.6186,6.6346,6.6365,6.6365,6.6365,6.6365,6.6307,6.5974,6.5897,6.5897,6.5897,6.5897,6.5897,6.5897,6.5897,6.5897,6.5897,6.5897,6.5897,6.5897,6.5897,6.5897,6.5897,6.5897,6.5897,6.5897,6.5897,6.5897,6.5897,6.5897,6.5897,6.5897,6.5897,6.5897,6.5897,6.5897,6.5897,6.5897,6.5897,6.5897,6.5897,6.5897,6.5897,6.5897,6.5897,6.5897,6.5897,6.5897,6.5897,3.2994,3.6285,3.9843,4.2116,4.2858,4.4601,5.0663,5.2335,5.254,5.2357,5.3347,5.4349,5.4674,5.7324,5.9746,6.0605,6.1015,6.1933,6.4004,6.3555,6.3008,6.3008,6.2226,6.1699,6.1699,6.1699,6.2051,6.293,6.3008,6.3515,6.4726,6.5312,6.5996,6.6875,6.6894,6.6894,6.6894,6.6894,6.6894,6.6894,6.6894,6.6894,6.6894,6.6894,6.6894,6.6894,6.6894,6.6894,6.6894,6.6894,6.6894,6.6894,6.6894,6.6855,6.6797,6.6797,6.6752,6.6702,6.6702,6.6564,6.639,6.6439,6.6433,6.6394,6.6394,6.6394,6.6394,6.6394,6.6394,6.636,6.6251,6.6109,6.6013,6.6013,6.5955,6.5897,6.5897,6.5897,6.5897,6.5897,6.5897,6.5897,6.5897,6.5897,6.5897,6.5897,6.5897,6.5897,6.5897,6.5897,6.5897,6.5897,6.5897,6.5897,6.5897,6.5897,6.5897,6.5897,6.5897,6.5897,6.5897,6.5897,6.5897,6.5897,6.5897,6.5897,6.5897,6.5897,6.5897,6.5897,6.5897,6.5897,3.3417,3.6981,4.099,4.2595,4.4686,4.7606,5.2543,5.4611,5.5566,5.5852,5.6268,5.6559,5.6546,5.8223,6.0078,6.1465,6.1699,6.2305,6.4043,6.3555,6.289,6.2617,6.2051,6.1699,6.1699,6.1699,6.1953,6.2539,6.2598,6.2969,6.3848,6.4453,6.543,6.6855,6.6621,6.6621,6.6894,6.6894,6.6894,6.6894,6.6894,6.6894,6.6894,6.6894,6.6894,6.6894,6.6894,6.6894,6.6894,6.6894,6.6894,6.6894,6.6894,6.6894,6.6894,6.6894,6.6894,6.6894,6.6894,6.6777,6.6639,6.6629,6.6642,6.6622,6.6564,6.6564,6.6566,6.656,6.6562,6.6567,6.6554,6.6331,6.6086,6.6101,6.5994,6.5897,6.5897,6.5897,6.5897,6.5897,6.5897,6.5897,6.5897,6.5897,6.5897,6.5897,6.5897,6.5897,6.5897,6.5897,6.5897,6.5897,6.5897,6.5897,6.5897,6.5897,6.5897,6.5897,6.5897,6.5897,6.5897,6.5897,6.5897,6.5897,6.5897,6.5897,6.5897,6.5897,6.5897,6.5897,6.5897,6.5897,3.7186,3.9514,4.2584,4.4341,4.5953,4.8263,5.2788,5.1567,5.1183,5.7242,5.8024,5.7949,5.899,5.8496,5.875,6.1289,6.1699,6.2305,6.4043,6.3535,6.2676,6.1797,6.1699,6.1699,6.1699,6.1699,6.1699,6.1699,6.1699,6.207,6.2949,6.3008,6.418,6.6777,6.6035,6.6015,6.6894,6.6894,6.6894,6.6894,6.6894,6.6894,6.6894,6.6894,6.6894,6.6894,6.6894,6.6894,6.6894,6.6894,6.6894,6.6894,6.6894,6.6894,6.6894,6.6894,6.6894,6.6894,6.6894,6.6894,6.6894,6.6894,6.6894,6.6894,6.6894,6.6894,6.6908,6.6907,6.6905,6.6905,6.6905,6.65,6.6106,6.6117,6.5994,6.5897,6.5897,6.5897,6.5897,6.5897,6.5897,6.5897,6.5897,6.5897,6.5897,6.5897,6.5897,6.5897,6.5897,6.5897,6.5897,6.5897,6.5897,6.5897,6.5897,6.5897,6.5897,6.5897,6.5897,6.5897,6.5897,6.5897,6.5897,6.5897,6.5897,6.5897,6.5897,6.5897,6.5897,6.5897,6.5897,6.5897,3.5925,4.0821,4.5646,4.4845,4.9092,5.3667,5.4397,5.4664,5.5306,5.7311,5.8552,5.9079,5.8413,5.9043,6.0117,6.1484,6.1191,6.1387,6.3144,6.2637,6.1992,6.1738,6.1699,6.1699,6.1699,6.1699,6.1699,6.1699,6.1699,6.1816,6.207,6.2676,6.3066,6.3242,6.418,6.539,6.6894,6.6289,6.6289,6.6894,6.6894,6.6894,6.6894,6.6894,6.6894,6.6894,6.6894,6.6894,6.6894,6.6894,6.6894,6.6894,6.6894,6.6894,6.6894,6.6894,6.6894,6.6894,6.6894,6.6894,6.6894,6.6894,6.6894,6.6894,6.6894,6.6894,6.6894,6.6898,6.6891,6.6891,6.6891,6.6687,6.6447,6.6447,6.625,6.6032,6.6032,6.5955,6.5897,6.5897,6.5897,6.5897,6.5897,6.5897,6.5897,6.5897,6.5897,6.5897,6.5897,6.5897,6.5897,6.5897,6.5897,6.5897,6.5897,6.5897,6.5897,6.5897,6.5897,6.5897,6.5897,6.5897,6.5897,6.5897,6.5897,6.5897,6.5897,6.5897,6.5897,6.5897,6.5897,6.5897,4.0216,4.515,4.9752,4.9635,5.2608,5.5662,5.6137,5.6717,5.731,5.7812,5.8792,5.9524,5.9354,6.0195,6.1191,6.207,6.1777,6.1797,6.2851,6.2246,6.1699,6.1699,6.1699,6.1699,6.1699,6.1699,6.1699,6.1699,6.1699,6.1699,6.1699,6.2207,6.2246,6.1719,6.2715,6.3769,6.4824,6.5332,6.5859,6.6387,6.6738,6.6894,6.6894,6.6894,6.6894,6.6894,6.6894,6.6894,6.6894,6.6894,6.6894,6.6894,6.6894,6.6894,6.6894,6.6894,6.6894,6.6894,6.6894,6.6894,6.6894,6.6894,6.6894,6.6894,6.6894,6.6894,6.6894,6.6894,6.6894,6.6894,6.6894,6.6816,6.6708,6.662,6.6396,6.622,6.6222,6.6147,6.607,6.6032,6.6013,6.6013,6.6013,6.6013,6.6032,6.609,6.609,6.609,6.609,6.6051,6.6013,6.6013,6.5936,6.5897,6.5897,6.5897,6.5897,6.5897,6.5897,6.5897,6.5897,6.5897,6.5897,6.5897,6.5897,6.5897,6.5897,6.5897,6.5897,6.5897,6.5897,6.5897,4.6966,5.0587,5.3953,5.6352,5.5942,5.5535,5.7816,5.795,5.7822,5.8528,5.8909,5.9585,6.1093,6.1621,6.2051,6.2773,6.2949,6.2969,6.289,6.2207,6.1699,6.1699,6.1699,6.1699,6.1699,6.1699,6.1699,6.1699,6.1699,6.1699,6.1699,6.1699,6.1699,6.1699,6.1699,6.1758,6.1855,6.4199,6.5449,6.5605,6.6406,6.6816,6.6894,6.6894,6.6894,6.6894,6.6894,6.6894,6.6894,6.6894,6.6894,6.6894,6.6894,6.6894,6.6894,6.6894,6.6894,6.6894,6.6894,6.6894,6.6894,6.6894,6.6894,6.6894,6.6894,6.6894,6.6894,6.6894,6.6894,6.6894,6.6894,6.6894,6.6855,6.668,6.6525,6.6425,6.6413,6.641,6.6362,6.6247,6.6227,6.6227,6.6227,6.6227,6.6266,6.6381,6.6381,6.6381,6.6381,6.6285,6.6208,6.617,6.6015,6.5914,6.5897,6.5897,6.5897,6.5897,6.5897,6.5897,6.5897,6.5897,6.5897,6.5897,6.5897,6.5897,6.5897,6.5897,6.5897,6.5897,6.5897,6.5897,4.2753,4.8218,5.3596,5.4797,5.6393,5.7831,5.8466,5.8908,5.9065,5.863,5.9746,6.073,6.0518,6.1719,6.2558,6.2051,6.2558,6.2754,6.207,6.1816,6.1699,6.1699,6.1699,6.1699,6.1699,6.1699,6.1699,6.1699,6.1699,6.1699,6.1699,6.1699,6.1699,6.1699,6.1699,6.2129,6.3027,6.3379,6.4258,6.5605,6.5781,6.623,6.6894,6.6894,6.6894,6.6894,6.6894,6.6894,6.6894,6.6894,6.6894,6.6894,6.6894,6.6894,6.6894,6.6894,6.6894,6.6894,6.6894,6.6894,6.6894,6.6894,6.6894,6.6894,6.6894,6.6894,6.6894,6.6894,6.6894,6.6894,6.6894,6.6894,6.6894,6.6855,6.6697,6.6566,6.6561,6.6457,6.6392,6.6373,6.6373,6.6373,6.6373,6.6373,6.6373,6.6411,6.6299,6.6241,6.6241,6.6299,6.626,6.5988,6.593,6.5913,6.5909,6.5897,6.5897,6.5897,6.5897,6.5897,6.5897,6.5897,6.5897,6.5897,6.5897,6.5897,6.5897,6.5897,6.5897,6.5897,6.5897,6.5897,4.4269,4.906,5.3119,5.5162,5.6742,5.7934,5.8469,5.9104,5.9604,5.9685,6.0473,6.1079,6.0786,6.1914,6.2637,6.1836,6.2422,6.2695,6.1816,6.1699,6.1699,6.1699,6.1699,6.1699,6.1699,6.1699,6.1699,6.1699,6.1699,6.1699,6.1699,6.1699,6.1699,6.1699,6.1699,6.1992,6.2578,6.2851,6.3457,6.4375,6.5195,6.6055,6.6894,6.6894,6.6894,6.6894,6.6894,6.6894,6.6894,6.6894,6.6894,6.6894,6.6894,6.6894,6.6894,6.6894,6.6894,6.6894,6.6894,6.6894,6.6894,6.6894,6.6894,6.6894,6.6894,6.6894,6.6894,6.6894,6.6894,6.6894,6.6894,6.6894,6.6894,6.6894,6.6816,6.6738,6.6738,6.6699,6.6629,6.6629,6.6629,6.6629,6.6629,6.6629,6.6605,6.6472,6.6501,6.6532,6.6532,6.659,6.6571,6.6395,6.6375,6.6369,6.6387,6.6389,6.6241,6.5923,6.5897,6.6032,6.6384,6.607,6.5897,6.5897,6.5897,6.5897,6.5897,6.5897,6.5897,6.5897,6.5897,6.5897,4.5419,4.9565,5.2549,5.6107,5.7107,5.7456,5.8284,5.9117,5.9967,6.0785,6.0858,6.0848,6.1043,6.1909,6.2324,6.1601,6.2324,6.2695,6.1816,6.1699,6.1699,6.1699,6.1699,6.1699,6.1699,6.1699,6.1699,6.1699,6.1699,6.1699,6.1699,6.1699,6.1699,6.1699,6.1699,6.1699,6.1699,6.2422,6.2851,6.3027,6.4609,6.5918,6.6894,6.6582,6.6621,6.6894,6.6699,6.6719,6.6894,6.6894,6.6894,6.6894,6.6894,6.6894,6.6894,6.6894,6.6894,6.6894,6.6894,6.6894,6.6894,6.6894,6.6894,6.6894,6.6894,6.6894,6.6894,6.6894,6.6894,6.6894,6.6894,6.6894,6.6894,6.6894,6.6894,6.6894,6.6894,6.6894,6.6894,6.6894,6.6894,6.6894,6.6894,6.6894,6.682,6.6593,6.677,6.6894,6.6894,6.6894,6.6894,6.6894,6.6894,6.6894,6.6894,6.6909,6.6672,6.6107,6.6077,6.6309,6.6865,6.6328,6.5982,6.5897,6.5897,6.5955,6.607,6.607,6.6013,6.5897,6.5897,6.5897,3.766,4.46,5.1837,5.5953,5.7572,5.8168,5.83,5.9515,6.067,6.0792,6.0362,6.0003,6.015,6.1012,6.1426,6.0683,6.1933,6.2695,6.1816,6.1699,6.1699,6.1699,6.1699,6.1699,6.1699,6.1699,6.1699,6.1699,6.1699,6.1699,6.1699,6.1699,6.1699,6.1699,6.1699,6.1699,6.1699,6.1816,6.2246,6.3008,6.4004,6.5332,6.6855,6.5332,6.5469,6.6836,6.5859,6.5996,6.6894,6.6894,6.6894,6.6894,6.6894,6.6894,6.6894,6.6894,6.6894,6.6894,6.6894,6.6894,6.6894,6.6894,6.6894,6.6894,6.6894,6.6894,6.6894,6.6894,6.6894,6.6894,6.6894,6.6894,6.6894,6.6894,6.6894,6.6894,6.6894,6.6894,6.6894,6.6894,6.6894,6.6894,6.6894,6.6894,6.6894,6.6839,6.6871,6.6894,6.6894,6.6894,6.6894,6.6894,6.6894,6.6894,6.6894,6.6893,6.6867,6.6781,6.677,6.6821,6.6891,6.6591,6.626,6.5923,6.5897,6.6186,6.6769,6.6769,6.6481,6.5897,6.5897,6.5897,3.7822,4.4732,5.0875,5.4666,5.659,5.7726,5.828,5.9258,6.0112,6.0211,5.9573,5.9165,5.9881,6.037,6.0598,6.0428,6.1445,6.2148,6.1758,6.1699,6.1699,6.1699,6.1699,6.1699,6.1699,6.1699,6.1699,6.1699,6.1699,6.1699,6.1699,6.1699,6.1699,6.1699,6.1699,6.1699,6.1699,6.1699,6.2148,6.3008,6.3398,6.4238,6.539,6.414,6.3711,6.4004,6.4492,6.498,6.5449,6.5449,6.5449,6.5449,6.5449,6.5742,6.6113,6.5625,6.5742,6.6094,6.5605,6.5664,6.5898,6.5547,6.5215,6.5,6.5332,6.5781,6.6172,6.6172,6.6523,6.6894,6.6894,6.6894,6.6894,6.6894,6.6894,6.6894,6.6894,6.6894,6.6894,6.6894,6.6894,6.6894,6.6894,6.6894,6.6894,6.6894,6.6894,6.6894,6.6894,6.6894,6.6894,6.6894,6.6894,6.6894,6.6894,6.6894,6.6894,6.6894,6.6895,6.6888,6.6905,6.6606,6.6464,6.6442,6.609,6.6051,6.6346,6.6726,6.6758,6.6455,6.6067,6.5955,3.7218,4.2861,4.7278,5.176,5.4299,5.6181,5.803,5.8992,5.9531,5.9688,5.8954,5.8492,5.9169,5.9501,5.9756,6.0056,6.0996,6.1699,6.1699,6.1699,6.1699,6.1699,6.1699,6.1699,6.1699,6.1699,6.1699,6.1699,6.1699,6.1699,6.1699,6.1699,6.1699,6.1699,6.1699,6.1699,6.1699,6.1699,6.2031,6.2676,6.2676,6.3008,6.3613,6.2969,6.2305,6.1777,6.3301,6.4101,6.4297,6.4297,6.4297,6.4297,6.4297,6.4707,6.5195,6.4531,6.4707,6.5176,6.4531,6.4492,6.4687,6.4394,6.3887,6.3515,6.4121,6.4746,6.5293,6.5469,6.5859,6.6269,6.6426,6.6348,6.6348,6.6797,6.6738,6.6621,6.6855,6.6894,6.6894,6.6894,6.6894,6.6894,6.6894,6.6894,6.6894,6.6894,6.6894,6.6894,6.6894,6.6894,6.6894,6.6894,6.6894,6.6894,6.6894,6.6894,6.6894,6.6894,6.6894,6.6894,6.6894,6.665,6.6636,6.6903,6.6415,6.6144,6.6173,6.6659,6.6907,6.6894,6.6316,6.6109,3.2019,3.5412,3.9211,4.6587,5.0297,5.3253,5.7373,5.8915,5.9515,5.9511,5.8877,5.8107,5.7453,5.8122,5.8877,5.9216,6.0625,6.1699,6.1699,6.1699,6.1699,6.1699,6.1699,6.1699,6.1699,6.1699,6.1699,6.1699,6.1699,6.1699,6.1699,6.1699,6.1699,6.1699,6.1699,6.1699,6.1699,6.1699,6.1719,6.1777,6.1777,6.1797,6.1836,6.1797,6.1738,6.1758,6.2676,6.3535,6.4297,6.4297,6.4297,6.4297,6.4297,6.4336,6.4355,6.4316,6.4336,6.4355,6.4316,6.3945,6.3574,6.4121,6.3887,6.3515,6.4121,6.4336,6.4492,6.5058,6.4844,6.457,6.5137,6.4863,6.4844,6.6504,6.6269,6.5898,6.6719,6.6894,6.6894,6.6894,6.6894,6.6894,6.6894,6.6894,6.6894,6.6894,6.6894,6.6894,6.6894,6.6894,6.6894,6.6894,6.6894,6.6894,6.6894,6.6894,6.6894,6.6894,6.6894,6.6894,6.6894,6.6884,6.6887,6.689,6.6877,6.6857,6.6846,6.6882,6.6901,6.6894,6.6588,6.6384,3.0282,3.2905,3.5804,4.179,4.6397,5.0159,5.2818,5.5744,5.7896,5.7896,5.7665,5.7415,5.7223,5.8025,5.8761,5.8962,6.0527,6.1699,6.1699,6.1699,6.1699,6.1699,6.1699,6.1699,6.1699,6.1699,6.1699,6.1699,6.1699,6.1699,6.1699,6.1699,6.1699,6.1699,6.1699,6.1699,6.1699,6.1699,6.1699,6.1699,6.1699,6.1699,6.1699,6.1699,6.1699,6.1719,6.2031,6.2344,6.2637,6.2637,6.2637,6.2637,6.2637,6.2969,6.3398,6.2832,6.2988,6.3398,6.2832,6.248,6.2344,6.2558,6.248,6.2344,6.2578,6.2637,6.2793,6.3574,6.4043,6.4355,6.457,6.4453,6.4453,6.5078,6.5293,6.5312,6.5254,6.5664,6.6074,6.6074,6.6523,6.6894,6.6894,6.6894,6.6894,6.6894,6.6894,6.6894,6.6894,6.6894,6.6894,6.6894,6.6894,6.6894,6.6894,6.6894,6.6894,6.6894,6.6894,6.6894,6.6894,6.6901,6.6898,6.6894,6.6901,6.6895,6.6906,6.6906,6.6895,6.6894,6.6616,6.6485,2.7702,2.9916,3.2647,3.799,4.1822,4.5476,5.0067,5.3281,5.5607,5.6761,5.7223,5.7357,5.7165,5.7715,5.8421,5.9153,6.0558,6.1577,6.1577,6.1596,6.1621,6.1621,6.168,6.1699,6.1699,6.1699,6.1699,6.1699,6.1699,6.1699,6.1699,6.1699,6.1699,6.1699,6.1699,6.1699,6.1699,6.1699,6.1699,6.1699,6.1699,6.1699,6.1699,6.1699,6.1699,6.1699,6.1699,6.1699,6.1699,6.1699,6.1699,6.1699,6.1699,6.2051,6.248,6.1914,6.207,6.248,6.1894,6.1699,6.1699,6.1699,6.1699,6.1699,6.1699,6.1699,6.1816,6.2402,6.2988,6.3437,6.3437,6.3437,6.3496,6.3789,6.418,6.4355,6.3945,6.4394,6.4922,6.5117,6.5781,6.6445,6.6836,6.6894,6.6894,6.6894,6.6894,6.6894,6.6894,6.6894,6.6894,6.6894,6.6894,6.6426,6.5254,6.5156,6.5312,6.5703,6.5723,6.5918,6.6308,6.6328,6.6504,6.6894,6.6328,6.5742,6.5156,6.6328,6.6894,6.6894,6.6719,6.6622,0.0,0.0,0.0,3.5076,3.653,3.9181,4.9183,5.151,5.2568,5.6088,5.7473,5.7819,5.7126,5.7107,5.7795,5.9659,6.0682,6.1277,6.1297,6.1412,6.1484,6.1484,6.1601,6.1699,6.1699,6.1699,6.1699,6.1699,6.1699,6.1699,6.1699,6.1699,6.1699,6.1699,6.1699,6.1699,6.1699,6.1699,6.1699,6.1699,6.1699,6.1699,6.1699,6.1699,6.1699,6.1699,6.1699,6.1699,6.1699,6.1699,6.1699,6.1699,6.1699,6.1699,6.1699,6.1699,6.1699,6.1699,6.1699,6.1699,6.1699,6.1699,6.1699,6.1699,6.1699,6.1699,6.1699,6.1699,6.1699,6.1699,6.1699,6.1699,6.1914,6.2754,6.2969,6.2969,6.2969,6.3164,6.3535,6.414,6.4765,6.5527,6.6621,6.6777,6.6758,6.6758,6.6758,6.6758,6.6758,6.6836,6.6855,6.6758,6.6758,6.5371,6.1992,6.1699,6.2187,6.3359,6.3437,6.3965,6.5137,6.5215,6.5762,6.6875,6.5137,6.3398,6.1719,6.5137,6.6797,6.6797,6.6816,6.6719,2.3348,0.0,0.0,0.0,0.0,0.0,3.9704,4.2335,4.5336,5.1221,5.2125,5.2914,5.6357,5.703,5.7441,5.8587,5.9669,6.0596,6.1194,6.1329,6.1371,6.1363,6.1463,6.1562,6.1562,6.164,6.1699,6.1699,6.1699,6.1699,6.1699,6.1699,6.1699,6.1699,6.1699,6.1699,6.1699,6.1699,6.1699,6.1699,6.1699,6.1699,6.1699,6.1699,6.1699,6.1699,6.1699,6.1699,6.1699,6.1699,6.1699,6.1699,6.1699,6.1699,6.1699,6.1699,6.1699,6.1699,6.1699,6.1699,6.1699,6.1699,6.1699,6.1699,6.1699,6.1699,6.1699,6.1699,6.1699,6.1699,6.1699,6.1699,6.1758,6.1992,6.2051,6.2051,6.2051,6.2129,6.2402,6.3203,6.4004,6.4648,6.4961,6.3965,6.3144,6.3144,6.3144,6.3144,6.3144,6.5332,6.5937,6.3418,6.3144,6.2754,6.1777,6.1699,6.2363,6.3945,6.4453,6.4668,6.4551,6.5762,6.6582,6.6894,6.3945,6.2187,6.1699,6.3496,6.4375,6.4375,6.4824,6.498,2.3543,2.4487,2.5848,2.7406,0.0,0.0,3.743,3.9988,4.3278,5.1164,5.2375,5.3164,5.6857,5.6953,5.6857,5.8107,5.855,5.905,5.9915,6.0089,6.028,6.0627,6.0786,6.103,6.1378,6.1481,6.1561,6.1601,6.1621,6.164,6.1699,6.1699,6.1699,6.1699,6.1699,6.1699,6.1699,6.1699,6.1699,6.1699,6.1699,6.1699,6.1699,6.1699,6.1699,6.1699,6.1699,6.1699,6.1699,6.1699,6.1699,6.1699,6.1699,6.1699,6.1699,6.1699,6.1699,6.1699,6.1699,6.1699,6.1699,6.1699,6.1699,6.1699,6.1699,6.1699,6.1699,6.1699,6.1699,6.1699,6.1699,6.1699,6.1699,6.1699,6.1699,6.1699,6.1699,6.1699,6.1855,6.2363,6.2871,6.3223,6.3223,6.2363,6.1699,6.1699,6.1699,6.1699,6.1699,6.3476,6.3945,6.1914,6.1699,6.1699,6.1699,6.1699,6.2129,6.3144,6.3555,6.3574,6.3223,6.4199,6.4726,6.4726,6.2734,6.1699,6.1699,6.2832,6.3535,6.3789,6.414,6.4297,2.4454,2.5005,2.6207,2.8372,2.79,0.0,3.8219,4.0335,4.2912,5.176,5.351,5.4107,5.6222,5.5415,5.4914,5.6376,5.6511,5.6857,5.8127,5.8319,5.8604,5.9392,5.9604,6.0073,6.1045,6.1149,6.1247,6.1486,6.1502,6.1561,6.1687,6.1698,6.1699,6.1699,6.1699,6.1699,6.1699,6.1699,6.1699,6.1699,6.1699,6.1699,6.1699,6.1699,6.1699,6.1699,6.1699,6.1699,6.1699,6.1699,6.1699,6.1699,6.1699,6.1699,6.1699,6.1699,6.1699,6.1699,6.1699,6.1699,6.1699,6.1699,6.1699,6.1699,6.1699,6.1699,6.1699,6.1699,6.1699,6.1699,6.1699,6.1699,6.1699,6.1699,6.1699,6.1699,6.1699,6.1699,6.1699,6.1699,6.1699,6.1699,6.1699,6.1699,6.1699,6.1699,6.1699,6.1699,6.1699,6.1699,6.1699,6.1699,6.1699,6.1699,6.1699,6.1699,6.1699,6.1699,6.1699,6.1699,6.1699,6.1699,6.1699,6.1699,6.1699,6.1699,6.1699,6.2715,6.3496,6.4004,6.4004,6.4004,2.6092,2.6304,2.744,2.7248,2.796,0.0,3.0314,3.1102,3.3256,3.92,3.9892,4.0796,4.5259,4.6317,4.6413,4.6124,4.9913,5.4164,5.78,5.7723,5.7357,5.753,5.7662,5.8357,5.9933,6.0185,6.0614,6.1447,6.1595,6.1666,6.1715,6.1699,6.1699,6.1699,6.1699,6.1699,6.1699,6.1699,6.1699,6.1699,6.1699,6.1699,6.1699,6.1699,6.1699,6.1699,6.1699,6.1699,6.1699,6.1699,6.1699,6.1699,6.1699,6.1699,6.1699,6.1699,6.1699,6.1699,6.1699,6.1699,6.1699,6.1699,6.1699,6.1699,6.1699,6.1699,6.1699,6.1699,6.1699,6.1699,6.1699,6.1699,6.1699,6.1699,6.1699,6.1699,6.1699,6.1699,6.1699,6.1699,6.1699,6.1699,6.1699,6.1699,6.1699,6.1699,6.1699,6.1699,6.1699,6.1699,6.1699,6.1699,6.1699,6.1699,6.1699,6.1699,6.1699,6.1699,6.1699,6.1699,6.1699,6.1699,6.1699,6.1699,6.1699,6.1699,6.1699,6.1914,6.209,6.2207,6.2207,6.2207,2.6971,2.6647,2.7407,2.78,2.7896,0.0,0.0,3.0698,3.2083,3.8027,3.8257,3.8565,4.2393,4.3066,4.3181,4.3624,4.7605,5.0818,5.126,5.4587,5.6992,5.6992,5.7069,5.7604,5.8912,5.9104,5.956,6.0597,6.1215,6.1529,6.1496,6.1433,6.1432,6.1504,6.1504,6.1534,6.1601,6.1601,6.1621,6.1699,6.1699,6.1699,6.1699,6.1699,6.1699,6.1699,6.1699,6.1699,6.1699,6.1699,6.1699,6.1699,6.1699,6.1699,6.1699,6.1699,6.1699,6.1699,6.1699,6.1699,6.1699,6.1699,6.1699,6.1699,6.1699,6.1699,6.1699,6.1699,6.1699,6.1699,6.1699,6.1699,6.1699,6.1699,6.1699,6.1699,6.1699,6.1699,6.1699,6.1699,6.1699,6.1699,6.1699,6.1699,6.1699,6.1699,6.1699,6.1699,6.1699,6.1699,6.1699,6.1699,6.1699,6.1699,6.1699,6.1699,6.1699,6.1699,6.1699,6.1699,6.1699,6.1699,6.1699,6.1699,6.1699,6.1699,6.1699,6.1699,6.1699,6.1699,6.1699,6.1699,2.8568,2.7816,2.8219,2.8921,2.8445,2.8629,0.0,0.0,0.0,3.7777,3.7796,3.7526,3.9758,3.9719,3.9758,4.095,4.4547,4.6124,4.3047,4.9375,5.4318,5.4318,5.5472,5.653,5.7261,5.7341,5.7968,5.9428,5.9634,6.0137,6.12,6.1021,6.1,6.125,6.1283,6.1362,6.1466,6.1461,6.1543,6.166,6.1699,6.1699,6.1699,6.1699,6.1699,6.1699,6.1699,6.1699,6.1699,6.1699,6.1699,6.1699,6.1699,6.1699,6.1699,6.1699,6.1699,6.1699,6.1699,6.1699,6.1699,6.1699,6.1699,6.1699,6.1699,6.1699,6.1699,6.1699,6.1699,6.1699,6.1699,6.1699,6.1699,6.1699,6.1699,6.1699,6.1699,6.1699,6.1699,6.1699,6.1699,6.1699,6.1699,6.1699,6.1699,6.1699,6.1699,6.1699,6.1699,6.1699,6.1699,6.1699,6.1699,6.1699,6.1699,6.1699,6.1699,6.1699,6.1699,6.1699,6.1699,6.1699,6.1699,6.1699,6.1699,6.1699,6.1699,6.1699,6.1699,6.1699,6.1699,6.1699,3.2741,3.2205,3.266,2.9813,3.066,3.116,2.7217,0.0,2.8332,2.8332,0.0,2.8371,2.9429,0.0,0.0,2.9852,3.5122,3.8642,3.6757,4.1219,4.4682,4.4682,4.9971,5.3664,5.378,5.3899,5.5248,5.8406,5.5395,5.5665,6.086,6.0481,6.0439,6.1106,6.1241,6.1323,6.1328,6.138,6.1445,6.1523,6.164,6.1699,6.1699,6.1699,6.1699,6.1699,6.1699,6.1699,6.1699,6.1699,6.1699,6.1699,6.1699,6.1699,6.1699,6.1699,6.1699,6.1699,6.1699,6.1699,6.1699,6.1699,6.1699,6.1699,6.1699,6.1699,6.1699,6.1699,6.1699,6.1699,6.1699,6.1699,6.1699,6.1699,6.1699,6.1699,6.1699,6.1699,6.1699,6.1699,6.1699,6.1699,6.1699,6.1699,6.1699,6.1699,6.1699,6.1699,6.1699,6.1699,6.1699,6.1699,6.1699,6.1699,6.1699,6.1699,6.1699,6.1699,6.1699,6.1699,6.1699,6.1699,6.1699,6.1699,6.1699,6.1699,6.1699,6.1699,6.1699,6.1699,6.1699,6.1699,3.3417,3.3987,3.4949,3.2025,3.2487,3.2449,2.7852,2.6601,2.6428,2.6563,0.0,0.0,0.0,0.0,0.0,0.0,3.2333,3.4853,3.216,3.7046,4.1431,4.2912,4.5163,4.7433,4.9567,4.9221,4.974,5.1842,5.1156,5.3449,5.9823,5.9877,6.0089,6.0896,6.0973,6.1031,6.1131,6.1148,6.1242,6.1387,6.1516,6.1582,6.1582,6.166,6.1699,6.1699,6.1699,6.1699,6.1699,6.1699,6.1699,6.1699,6.1699,6.1699,6.1699,6.1699,6.1699,6.1699,6.1699,6.1699,6.1699,6.1699,6.1699,6.1699,6.1699,6.1699,6.1699,6.1699,6.1699,6.1699,6.1699,6.1699,6.1699,6.1699,6.1699,6.1699,6.1699,6.1699,6.1699,6.1699,6.1699,6.1699,6.1699,6.1699,6.1699,6.1699,6.1699,6.1699,6.1699,6.1699,6.1699,6.1699,6.1699,6.1699,6.1699,6.1699,6.1699,6.1699,6.1699,6.1699,6.1699,6.1699,6.1699,6.1699,6.1699,6.1699,6.1699,6.1699,6.1699,6.1699,6.1699,6.1699,3.5978,3.668,3.7386,3.3788,3.3199,3.2468,2.8467,2.6928,2.639,2.6563,2.6659,0.0,0.0,0.0,2.7082,2.7486,0.0,3.1506,2.8794,3.2679,3.668,3.8988,4.0142,4.2184,4.5802,4.4342,4.4383,4.7291,4.7396,5.0587,5.8069,5.8761,5.9396,6.0416,6.0685,6.0839,6.0935,6.0935,6.1039,6.1221,6.1344,6.1417,6.1486,6.1545,6.1594,6.1621,6.164,6.168,6.1699,6.1699,6.1699,6.1699,6.1699,6.1699,6.1699,6.1699,6.1699,6.1699,6.1699,6.1699,6.1699,6.1699,6.1699,6.1699,6.1699,6.1699,6.1699,6.1699,6.1699,6.1699,6.1699,6.1699,6.1699,6.1699,6.1699,6.1699,6.1699,6.1699,6.1699,6.1699,6.1699,6.1699,6.1699,6.1699,6.1699,6.1699,6.1699,6.1699,6.1699,6.1699,6.1699,6.1699,6.1699,6.1699,6.1699,6.1699,6.1699,6.1699,6.1699,6.1699,6.1699,6.1699,6.1699,6.1699,6.1699,6.1699,6.1699,6.1699,6.1699,6.1699,6.1699,6.1699,4.2494,4.1556,4.0726,3.4462,3.2333,3.0891,2.7428,2.7852,2.8525,2.6928,2.8544,2.9756,2.814,2.7852,2.7582,2.6774,2.7467,0.0,0.0,2.6871,2.764,2.9352,3.4622,3.9469,4.2912,3.945,4.0069,4.751,4.4335,4.6086,5.5318,5.6874,5.8104,5.9492,6.0358,6.08,6.08,6.08,6.0881,6.102,6.1081,6.1195,6.1398,6.134,6.1354,6.1406,6.1484,6.1582,6.1699,6.1699,6.1699,6.1699,6.1699,6.1699,6.1699,6.1699,6.1699,6.1699,6.1699,6.1699,6.1699,6.1699,6.1699,6.1699,6.1699,6.1699,6.1699,6.1699,6.1699,6.1699,6.1699,6.1699,6.1699,6.1699,6.1699,6.1699,6.1699,6.1699,6.1699,6.1699,6.1699,6.1699,6.1699,6.1699,6.1699,6.1699,6.1699,6.1699,6.1699,6.1699,6.1699,6.1699,6.1699,6.1699,6.1699,6.1699,6.1699,6.1699,6.1699,6.1699,6.1699,6.1699,6.1699,6.1699,6.1699,6.1699,6.1699,6.1699,6.1699,6.1699,6.1699,6.1699,4.6347,4.7591,4.7438,4.0504,3.8353,3.6226,2.9728,2.8679,2.8621,2.6948,2.864,3.0063,2.889,2.8255,2.7794,2.7505,2.7217,2.6736,0.0,2.5726,2.6149,2.7302,3.0721,3.3135,3.3527,3.568,3.9336,4.49,4.5223,4.8509,5.6145,5.6376,5.753,6.0262,5.9915,6.005,6.0781,6.08,6.0819,6.0858,6.0973,6.1068,6.1138,6.1254,6.1308,6.1341,6.1354,6.1378,6.1451,6.1536,6.1562,6.1582,6.168,6.1699,6.1699,6.1699,6.1699,6.1699,6.1699,6.1699,6.1699,6.1699,6.1699,6.1699,6.1699,6.1699,6.1699,6.1699,6.1699,6.1699,6.1699,6.1699,6.1699,6.1699,6.1699,6.1699,6.1699,6.1699,6.1699,6.1699,6.1699,6.1699,6.1699,6.1699,6.1699,6.1699,6.1699,6.1699,6.1699,6.1699,6.1699,6.1699,6.1699,6.1699,6.1699,6.1699,6.1699,6.1699,6.1699,6.1699,6.1699,6.1699,6.1699,6.1699,6.1699,6.1699,6.1699,6.1699,6.1699,6.1699,6.1699,6.1699,4.9604,5.1007,5.1035,4.5029,4.2986,4.0635,3.3615,3.2601,3.2679,3.1006,3.1237,3.2237,3.3795,3.0929,2.8621,2.9525,2.7948,2.6294,0.0,2.5303,2.5514,2.6072,2.7862,2.9596,3.0978,3.2239,3.6404,4.4766,4.4359,4.7471,5.6069,5.6398,5.7495,6.0108,5.9319,5.9454,6.0804,6.08,6.08,6.08,6.0877,6.0916,6.0916,6.105,6.1131,6.1135,6.1116,6.1194,6.1306,6.1392,6.1461,6.1504,6.1562,6.164,6.1699,6.1699,6.1699,6.1699,6.1699,6.1699,6.1699,6.1699,6.1699,6.1699,6.1699,6.1699,6.1699,6.1699,6.1699,6.1699,6.1699,6.1699,6.1699,6.1699,6.1699,6.1699,6.1699,6.1699,6.1699,6.1699,6.1699,6.1699,6.1699,6.1699,6.1699,6.1699,6.1699,6.1699,6.1699,6.1699,6.1699,6.1699,6.1699,6.1699,6.1699,6.1699,6.1699,6.1699,6.1699,6.1699,6.1699,6.1699,6.1699,6.1699,6.1699,6.1699,6.1699,6.1699,6.1699,6.1699,6.1699,6.1699]},{"header":{"parameterUnit":"m.s-1","parameterCategory":1,"la1":30.6,"la2":29.2853,"lo1":-89.7004,"lo2":-87.6739,"dx":0.0162,"dy":0.0183,"nx":112,"ny":82,"refTime":"2022-12-16T06:00:00:Z","depth":0,"parameterNumber":3,"parameterNumberName":"V-component_of_WINDS"},"data":[0.0,0.0,0.0,0.0,0.0,0.0,0.0,0.0,0.0,0.0,0.0,0.0,0.0,0.0,0.0,0.0,0.0,0.0,0.0,0.0,0.0,0.0,0.0,0.0,0.0,0.0,0.0,0.0,0.0,0.0,0.0,0.0,0.0,0.0,0.0,0.0,0.0,0.0,0.0,0.0,0.0,0.0,0.0,0.0,0.0,0.0,0.0,0.0,0.0,0.0,0.0,0.0,0.0,0.0,0.0,0.0,0.0,0.0,0.0,0.0,0.0,0.0,0.0,0.0,0.0,0.0,0.0,0.0,0.0,0.0,0.0,0.0,0.0,0.0,0.0,0.0,0.0,0.0,0.0,0.0,0.0,0.0,0.0,0.0,0.0,0.0,0.0,0.0,0.0,0.0,-1.4556,-1.6653,-1.6121,-1.5635,-1.5757,-1.2247,-1.0077,-1.0116,0.0,0.0,0.0,0.0,0.0,0.0,0.0,0.0,0.0,0.0,0.0,0.0,0.0,0.0,0.0,0.0,0.0,0.0,0.0,0.0,0.0,0.0,0.0,0.0,0.0,0.0,0.0,0.0,0.0,0.0,0.0,0.0,0.0,0.0,0.0,0.0,0.0,0.0,0.0,0.0,0.0,0.0,0.0,0.0,0.0,0.0,0.0,0.0,0.0,0.0,0.0,0.0,0.0,0.0,0.0,0.0,0.0,0.0,0.0,0.0,0.0,0.0,0.0,0.0,0.0,0.0,0.0,0.0,0.0,0.0,0.0,0.0,0.0,0.0,0.0,0.0,0.0,0.0,0.0,0.0,0.0,0.0,0.0,0.0,0.0,0.0,0.0,0.0,0.0,0.0,0.0,0.0,0.0,0.0,0.0,0.0,0.0,0.0,0.0,0.0,0.0,0.0,0.0,0.0,-1.5972,-1.9314,-1.7326,-1.5863,-1.5863,-1.2438,-1.0295,-1.0516,0.0,0.0,0.0,0.0,0.0,0.0,0.0,0.0,0.0,0.0,0.0,0.0,0.0,0.0,0.0,0.0,0.0,0.0,0.0,0.0,0.0,0.0,0.0,0.0,0.0,0.0,0.0,0.0,0.0,0.0,0.0,0.0,0.0,0.0,0.0,0.0,0.0,0.0,0.0,0.0,0.0,0.0,0.0,0.0,0.0,0.0,0.0,0.0,0.0,0.0,0.0,0.0,0.0,0.0,0.0,0.0,0.0,0.0,0.0,0.0,0.0,0.0,0.0,0.0,0.0,0.0,0.0,0.0,0.0,0.0,0.0,0.0,0.0,0.0,0.0,0.0,0.0,0.0,0.0,0.0,0.0,0.0,0.0,0.0,0.0,0.0,0.0,0.0,0.0,0.0,0.0,0.0,0.0,0.0,0.0,0.0,0.0,0.0,0.0,0.0,0.0,0.0,0.0,-1.5338,-1.7303,-2.012,-1.8542,-1.6953,-1.5913,-1.3423,-1.1595,-1.0613,-0.9322,0.0,0.0,0.0,0.0,0.0,0.0,0.0,0.0,0.0,0.0,0.0,0.0,0.0,0.0,0.0,0.0,0.0,0.0,0.0,0.0,0.0,0.0,0.0,0.0,0.0,0.0,0.0,0.0,0.0,0.0,0.0,0.0,0.0,0.0,0.0,0.0,0.0,0.0,0.0,0.0,0.0,0.0,0.0,0.0,0.0,0.0,0.0,0.0,0.0,0.0,0.0,0.0,0.0,0.0,0.0,0.0,0.0,0.0,0.0,0.0,0.0,0.0,0.0,0.0,0.0,0.0,0.0,0.0,0.0,0.0,0.0,0.0,0.0,0.0,0.0,0.0,0.0,0.0,0.0,0.0,0.0,0.0,0.0,0.0,0.0,0.0,0.0,0.0,0.0,0.0,0.0,0.0,0.0,0.0,0.0,0.0,0.0,0.0,0.0,0.0,0.0,0.0,-1.7687,-1.8698,-2.0581,-1.9478,-1.805,-1.6565,-1.4879,-1.3094,-1.1316,-1.0067,0.0,0.0,0.0,0.0,0.0,0.0,0.0,0.0,0.0,0.0,0.0,0.0,0.0,0.0,0.0,0.0,0.0,0.0,0.0,0.0,0.0,0.0,0.0,0.0,0.0,0.0,0.0,0.0,0.0,0.0,0.0,0.0,0.0,0.0,0.0,0.0,0.0,0.0,0.0,0.0,0.0,0.0,0.0,0.0,0.0,0.0,0.0,0.0,0.0,0.0,0.0,0.0,0.0,0.0,0.0,0.0,0.0,0.0,0.0,0.0,0.0,0.0,0.0,0.0,0.0,0.0,0.0,0.0,0.0,0.0,0.0,0.0,0.0,0.0,0.0,0.0,0.0,0.0,0.0,0.0,0.0,0.0,0.0,0.0,0.0,0.0,0.0,0.0,0.0,0.0,0.0,0.0,0.0,0.0,0.0,0.0,0.0,0.0,0.0,0.0,0.0,0.0,-1.9057,-2.0595,-2.1036,-1.9763,-1.8771,-1.8396,-1.6695,-1.4896,-1.309,-1.1623,0.0,0.0,0.0,0.0,0.0,0.0,0.0,0.0,0.0,0.0,0.0,0.0,0.0,0.0,0.0,0.0,0.0,0.0,0.0,0.0,0.0,0.0,0.0,0.0,0.0,0.0,0.0,0.0,0.0,0.0,0.0,0.0,0.0,0.0,0.0,0.0,0.0,0.0,0.0,0.0,0.0,0.0,0.0,0.0,0.0,0.0,0.0,0.0,0.0,0.0,0.0,0.0,0.0,0.0,0.0,0.0,0.0,0.0,0.0,0.0,0.0,0.0,0.0,0.0,0.0,0.0,0.0,0.0,0.0,0.0,0.0,0.0,0.0,0.0,0.0,0.0,0.0,0.0,0.0,0.0,0.0,0.0,0.0,0.0,0.0,0.0,0.0,0.0,0.0,0.0,0.0,0.0,0.0,0.0,0.0,0.0,0.0,0.0,0.0,0.0,0.0,0.0,-1.8548,-2.0047,-2.1256,-2.1111,-1.9897,-1.7537,-1.6602,-1.4988,-1.1917,0.0,0.0,0.0,0.0,0.0,0.0,0.0,0.0,0.0,0.0,0.0,0.0,0.0,0.0,0.0,0.0,0.0,0.0,0.0,0.0,0.0,0.0,0.0,0.0,0.0,0.0,0.0,0.0,0.0,0.0,0.0,0.0,0.0,0.0,0.0,0.0,0.0,0.0,0.0,0.0,0.0,0.0,0.0,0.0,0.0,0.0,0.0,0.0,0.0,0.0,0.0,0.0,0.0,0.0,0.0,0.0,0.0,0.0,0.0,0.0,0.0,0.0,0.0,0.0,0.0,0.0,0.0,0.0,0.0,0.0,0.0,0.0,0.0,0.0,0.0,0.0,0.0,0.0,0.0,0.0,0.0,0.0,0.0,0.0,0.0,0.0,0.0,0.0,0.0,0.0,0.0,0.0,0.0,0.0,0.0,0.0,0.0,0.0,0.0,0.0,0.0,0.0,-1.6317,-1.836,-2.0114,-2.1416,-2.1897,-2.1136,-1.8479,-1.7575,-1.5852,-1.285,0.0,0.0,0.0,0.0,0.0,0.0,0.0,0.0,0.0,0.0,0.0,0.0,0.0,0.0,0.0,0.0,0.0,0.0,0.0,0.0,0.0,0.0,0.0,0.0,0.0,0.0,0.0,0.0,0.0,0.0,0.0,0.0,0.0,0.0,0.0,0.0,0.0,0.0,0.0,0.0,0.0,0.0,0.0,0.0,0.0,0.0,0.0,0.0,0.0,0.0,0.0,0.0,0.0,0.0,0.0,0.0,0.0,0.0,0.0,0.0,0.0,0.0,0.0,0.0,0.0,0.0,0.0,0.0,0.0,0.0,0.0,0.0,0.0,0.0,0.0,0.0,0.0,0.0,0.0,0.0,0.0,0.0,0.0,0.0,0.0,0.0,0.0,0.0,0.0,0.0,0.0,0.0,0.0,0.0,0.0,0.0,0.0,0.0,0.0,0.0,0.0,0.0,-1.5645,-1.8925,-2.1229,-2.153,-2.2084,-2.2311,-2.2017,-2.0123,-1.8198,0.0,0.0,0.0,0.0,0.0,0.0,0.0,0.0,0.0,0.0,0.0,0.0,0.0,0.0,0.0,0.0,0.0,0.0,0.0,0.0,0.0,0.0,0.0,0.0,0.0,0.0,0.0,0.0,0.0,0.0,0.0,0.0,0.0,0.0,0.0,0.0,0.0,0.0,0.0,0.0,0.0,0.0,0.0,0.0,0.0,0.0,0.0,0.0,0.0,0.0,0.0,0.0,0.0,0.0,0.0,0.0,0.0,0.0,0.0,0.0,0.0,0.0,0.0,0.0,0.0,0.0,0.0,0.0,0.0,0.0,0.0,0.0,0.0,0.0,0.0,0.0,0.0,0.0,0.0,0.0,0.0,0.0,0.0,0.0,0.0,0.0,0.0,0.0,0.0,0.0,0.0,0.0,0.0,0.0,0.0,0.0,0.0,0.0,0.0,0.0,0.0,0.0,0.0,-1.5925,-1.9232,-2.161,-2.2111,-2.2699,-2.2369,-2.0823,-1.893,-1.67,-1.3821,0.0,0.0,0.0,0.0,0.0,0.0,0.0,0.0,0.0,0.0,0.0,0.0,0.0,0.0,0.0,0.0,0.0,0.0,0.0,0.0,0.0,0.0,0.0,0.0,0.0,0.0,0.0,0.0,0.0,0.0,0.0,0.0,0.0,0.0,0.0,0.0,0.0,0.0,0.0,0.0,0.0,0.0,0.0,0.0,0.0,0.0,0.0,0.0,0.0,0.0,0.0,0.0,0.0,0.0,0.0,0.0,0.0,0.0,0.0,0.0,0.0,0.0,0.0,0.0,0.0,0.0,0.0,0.0,0.0,0.0,0.0,0.0,0.0,0.0,0.0,0.0,0.0,0.0,0.0,0.0,0.0,0.0,0.0,0.0,0.0,0.0,0.0,0.0,0.0,0.0,0.0,0.0,0.0,0.0,0.0,0.0,0.0,0.0,0.0,0.0,0.0,0.0,-1.6046,-1.9259,-2.169,-2.2505,-2.3033,-2.2867,-2.1664,-1.9043,-1.654,-1.4439,0.0,0.0,0.0,0.0,0.0,0.0,0.0,0.0,0.0,0.0,0.0,0.0,0.0,0.0,0.0,0.0,0.0,0.0,0.0,0.0,0.0,0.0,0.0,0.0,0.0,0.0,0.0,0.0,0.0,0.0,0.0,0.0,0.0,0.0,0.0,0.0,0.0,0.0,0.0,0.0,0.0,0.0,0.0,0.0,0.0,0.0,0.0,0.0,0.0,0.0,0.0,0.0,0.0,0.0,0.0,0.0,0.0,0.0,0.0,0.0,0.0,0.0,0.0,0.0,0.0,0.0,0.0,0.0,0.0,0.0,0.0,0.0,0.0,0.0,0.0,0.0,0.0,0.0,0.0,0.0,0.0,0.0,0.0,0.0,0.0,0.0,0.0,0.0,0.0,0.0,0.0,0.0,0.0,0.0,0.0,0.0,0.0,0.0,0.0,0.0,0.0,0.0,-1.6086,-1.9165,-2.163,-2.2779,-2.3207,-2.3507,-2.3748,-1.9997,-1.7368,-1.6895,0.0,0.0,0.0,0.0,0.0,0.0,0.0,0.0,0.0,0.0,0.0,0.0,0.0,0.0,0.0,0.0,0.0,0.0,0.0,0.0,0.0,0.0,0.0,0.0,0.0,0.0,0.0,0.0,0.0,0.0,0.0,0.0,0.0,0.0,0.0,0.0,0.0,0.0,0.0,0.0,0.0,0.0,0.0,0.0,0.0,0.0,0.0,0.0,0.0,0.0,0.0,0.0,0.0,0.0,0.0,0.0,0.0,0.0,0.0,0.0,-0.4351,-0.3565,0.0,0.0,0.0,0.0,0.0,0.0,0.0,0.0,0.0,0.0,0.0,0.0,0.0,0.0,0.0,0.0,0.0,0.0,0.0,0.0,0.0,0.0,0.0,0.0,0.0,0.0,0.0,0.0,0.0,0.0,0.0,0.0,0.0,0.0,0.0,0.0,0.0,0.0,0.0,0.0,-1.6386,-1.9646,-2.2164,-2.3126,-2.3701,-2.3948,-2.3788,-2.0323,-1.7529,-1.6199,-1.1862,0.0,0.0,0.0,0.0,0.0,0.0,0.0,0.0,0.0,0.0,0.0,0.0,0.0,0.0,0.0,0.0,0.0,0.0,0.0,0.0,0.0,0.0,0.0,0.0,0.0,0.0,0.0,0.0,0.0,0.0,0.0,0.0,0.0,0.0,0.0,0.0,0.0,0.0,0.0,0.0,0.0,0.0,0.0,0.0,0.0,0.0,0.0,0.0,0.0,0.0,0.0,0.0,0.0,0.0,0.0,0.0,0.0,0.0,0.0,-0.5414,-0.468,0.0,0.0,0.0,0.0,0.0,0.0,0.0,0.0,0.0,0.0,0.0,0.0,0.0,0.0,0.0,0.0,0.0,0.0,0.0,0.0,0.0,0.0,0.0,0.0,0.0,0.0,0.0,0.0,0.0,0.0,0.0,0.0,0.0,0.0,0.0,0.0,0.0,0.0,0.0,0.0,-1.5609,-1.8701,-2.1192,-2.2162,-2.3425,-2.4202,-2.4189,-2.1501,-1.8845,-1.6758,-1.3225,0.0,0.0,0.0,0.0,0.0,0.0,0.0,0.0,0.0,0.0,0.0,0.0,0.0,0.0,0.0,0.0,0.0,0.0,0.0,0.0,0.0,0.0,0.0,0.0,0.0,0.0,0.0,0.0,0.0,0.0,0.0,0.0,0.0,0.0,0.0,0.0,0.0,0.0,0.0,0.0,0.0,0.0,0.0,0.0,0.0,0.0,0.0,0.0,0.0,0.0,0.0,0.0,0.0,-0.7555,-0.8299,-0.9336,-0.8562,-0.8396,-0.8542,-0.6747,-0.6282,-0.637,-0.1884,0.0,0.0,0.0,0.0,0.0,0.0,0.0,0.0,0.0,0.0,0.0,0.0,0.0,0.0,0.0,0.0,0.0,0.0,0.0,0.0,0.0,0.0,-0.8112,-0.7813,-0.8004,-0.8065,-0.744,0.0,0.0,0.0,0.0,0.0,0.0,0.0,0.0,0.0,0.0,0.0,-1.5048,-1.7821,-2.0065,-2.109,-2.305,-2.4376,-2.4616,-2.2602,-2.0289,-1.7705,-1.4907,-1.1902,0.0,0.0,0.0,0.0,0.0,0.0,0.0,0.0,0.0,0.0,0.0,0.0,0.0,0.0,0.0,0.0,0.0,0.0,0.0,0.0,0.0,0.0,0.0,0.0,0.0,0.0,0.0,0.0,0.0,0.0,0.0,0.0,-0.4678,-0.4646,0.0,0.0,0.0,0.0,0.0,0.0,0.0,0.0,0.0,0.0,0.0,0.0,0.0,-0.6599,-0.6907,-0.7482,-0.7916,-0.8307,-0.8699,-0.9158,-0.9349,-0.9126,-0.9095,-0.9119,-0.8641,0.0,-0.6652,-0.1988,0.0,0.0,0.0,0.0,0.0,0.0,0.0,0.0,0.0,0.0,0.0,0.0,0.0,0.0,0.0,0.0,0.0,0.0,0.0,0.0,0.0,0.0,-1.0393,-0.9402,-0.9161,-0.9157,-0.9089,-0.8214,-0.7356,-0.7308,-0.7179,-0.6716,0.0,0.0,0.0,0.0,0.0,0.0,-1.6177,-1.8719,-2.0527,-2.1149,-2.3222,-2.4596,-2.4636,-2.2775,-2.0552,-1.8104,-1.5682,-1.3099,-1.0535,-0.9529,0.0,0.0,0.0,0.0,0.0,0.0,0.0,0.0,0.0,0.0,0.0,0.0,0.0,0.0,0.0,0.0,0.0,0.0,0.0,0.0,0.0,0.0,0.0,0.0,0.0,0.0,0.0,0.0,0.0,-0.5589,-0.4939,-0.2412,-0.3086,-0.3608,0.0,0.0,0.0,0.0,0.0,0.0,0.0,0.0,0.0,-0.7455,-0.7546,-0.7828,-0.8434,-0.8639,-0.894,-0.9084,-0.9342,-0.9486,-0.9629,-0.9585,-0.9564,-0.9568,-0.9486,-0.9103,-0.8194,-0.2417,-0.1957,-0.4985,0.0,0.0,0.0,0.0,-0.5673,-0.677,-0.7292,-0.8503,-0.9666,-0.8737,0.0,0.0,0.0,0.0,0.0,0.0,0.0,-0.8232,-0.8578,-0.9374,-0.9953,-0.9889,-0.9886,-0.9886,-0.9886,-0.9509,-0.9043,-0.8741,-0.883,-0.836,-0.6608,-0.7553,0.0,0.0,0.0,-1.1972,-1.4052,-1.7343,-1.9599,-1.9924,-2.3104,-2.513,-2.513,-2.435,-2.2668,-2.0207,-1.7847,-1.5381,-1.2689,-1.0744,-0.8987,0.0,0.0,0.0,0.0,0.0,0.0,0.0,0.0,0.0,0.0,0.0,0.0,0.0,0.0,0.0,0.0,0.0,0.0,0.0,0.0,0.0,0.0,0.0,0.0,0.0,0.0,0.0,0.0,-0.6142,-0.5532,-0.2295,-0.3205,-0.3862,0.0,0.0,0.0,0.0,0.0,0.0,-0.6936,-0.7017,-0.755,-0.8523,-0.8594,-0.8879,-0.9435,-0.9476,-0.9571,-0.9724,-0.9724,-0.9798,-0.9937,-0.991,-0.9897,-0.9897,-0.9967,-0.9866,-0.9526,-0.4569,-0.5171,-0.8963,-0.7735,-0.6957,-0.6599,-0.7287,-0.845,-0.9822,-0.9822,-0.9822,-0.9666,-0.8723,-0.8197,-0.7828,-0.7272,0.0,0.0,0.0,0.0,-0.8018,-0.8838,-0.9273,-0.9639,-1.0202,-1.0365,-1.0392,-1.0392,-1.0361,-1.016,-0.9802,-0.9835,-0.937,-0.7663,-0.8729,0.0,-0.9784,-1.0225,-1.1178,-1.2751,-1.6358,-1.8772,-1.9009,-2.2838,-2.5511,-2.5511,-2.5511,-2.4454,-2.2001,-1.9599,-1.7107,-1.4401,-1.1505,-0.954,-0.8784,0.0,0.0,0.0,0.0,0.0,0.0,0.0,0.0,0.0,0.0,0.0,0.0,0.0,0.0,0.0,0.0,0.0,0.0,0.0,0.0,0.0,0.0,0.0,0.0,0.0,0.0,0.0,0.0,0.0,-0.7204,-0.3063,0.0,0.0,0.0,0.0,-0.5905,-0.6955,-0.7596,-0.7683,-0.7994,-0.854,-0.9303,-0.9466,-0.9561,-0.9598,-0.973,-0.9876,-1.0025,-1.0025,-1.0107,-1.0253,-1.0151,-1.0103,-1.0093,-1.0159,-1.0242,-1.0232,-0.9536,-0.9533,-0.9771,-0.9649,-0.9598,-0.9615,-0.964,-0.9697,-0.9822,-0.9822,-0.9822,-0.9781,-0.9527,-0.8991,-0.8414,-0.8241,-0.7984,0.0,0.0,-0.8828,-0.9205,-0.9822,-1.0202,-1.0432,-1.0473,-1.0592,-1.0697,-1.0697,-1.0582,-1.0422,-1.0345,-1.0304,-1.0046,-0.9257,0.0,-1.0011,-1.1765,-1.1004,-1.1261,-1.3904,-1.6925,-1.8785,-1.9024,-2.2838,-2.5511,-2.5511,-2.5511,-2.4706,-2.2621,-1.9872,-1.7443,-1.535,-1.2224,-1.0314,-0.9568,-0.8801,0.0,0.0,0.0,0.0,0.0,0.0,0.0,0.0,0.0,0.0,0.0,0.0,0.0,0.0,0.0,0.0,0.0,0.0,0.0,0.0,0.0,0.0,0.0,0.0,0.0,0.0,0.0,0.0,-0.7569,-0.5879,0.0,-0.2573,-0.4514,-0.5721,-0.5252,-0.6208,-0.7453,-0.8901,-0.902,-0.9296,-0.9652,-0.9812,-0.9893,-0.9893,-1.0042,-1.0144,-1.0198,-1.0198,-1.0226,-1.028,-1.0304,-1.028,-1.0229,-1.0348,-1.0354,-1.0276,-1.0226,-1.0168,-1.0117,-1.0117,-1.0117,-1.0124,-1.0185,-1.0209,-1.0198,-1.0137,-1.0117,-1.0107,-1.0032,-0.9842,-0.9629,-0.9578,-0.9486,-0.9435,-0.9595,-0.9893,-1.0212,-1.0426,-1.07,-1.0924,-1.0924,-1.0965,-1.1006,-1.1006,-1.0962,-1.0907,-1.0856,-1.0616,-1.0239,-0.968,-1.0032,-1.0527,-1.0793,-1.1161,-1.1844,-1.2802,-1.6649,-1.9396,-1.9478,-2.3502,-2.6072,-2.6072,-2.5905,-2.5476,-2.4843,-2.2103,-1.9528,-1.7331,-1.4647,-1.2372,-1.048,-1.011,-0.9103,0.0,0.0,0.0,0.0,0.0,0.0,0.0,0.0,0.0,0.0,0.0,0.0,0.0,0.0,0.0,0.0,0.0,0.0,0.0,0.0,0.0,0.0,0.0,0.0,0.0,-0.7045,-0.7674,-0.7932,-0.704,-0.5584,-0.339,-0.5951,-0.7072,-0.5439,-0.6648,-0.8115,-0.9637,-0.9764,-0.9825,-0.9971,-1.0073,-1.0127,-1.0127,-1.0229,-1.0304,-1.0351,-1.0402,-1.0456,-1.051,-1.0619,-1.0619,-1.0675,-1.0601,-1.0575,-1.0541,-1.0538,-1.0663,-1.0558,-1.0358,-1.028,-1.0287,-1.0351,-1.0375,-1.0371,-1.0354,-1.0385,-1.0429,-1.0429,-1.0429,-1.0429,-1.0429,-1.0466,-1.0507,-1.0507,-1.0683,-1.087,-1.087,-1.1053,-1.1253,-1.1304,-1.1352,-1.1402,-1.1457,-1.1467,-1.1467,-1.1467,-1.1063,-1.0609,-1.0263,-1.0616,-1.0795,-1.0344,-1.1165,-1.1853,-1.1908,-1.6317,-1.9442,-1.9595,-2.3654,-2.6246,-2.6246,-2.5705,-2.5531,-2.5932,-2.2301,-1.9779,-1.8684,-1.519,-1.2528,-1.0877,-1.0524,-0.9486,-0.7743,0.0,0.0,0.0,0.0,0.0,0.0,0.0,0.0,0.0,0.0,0.0,0.0,0.0,0.0,0.0,0.0,0.0,0.0,0.0,0.0,0.0,0.0,0.0,-0.7161,-0.7689,-0.814,-0.8628,-0.6267,-0.5916,-0.9018,-0.9652,-0.8816,-0.6595,-0.8546,-0.9902,-1.0073,-1.007,-1.0127,-1.0276,-1.0283,-1.029,-1.0293,-1.03,-1.0371,-1.0514,-1.0663,-1.0812,-1.0958,-1.1097,-1.1252,-1.1166,-1.1166,-1.1166,-1.1183,-1.1233,-1.1253,-1.1107,-1.0531,-1.031,-1.031,-1.031,-1.031,-1.0327,-1.0466,-1.0609,-1.0734,-1.0734,-1.0734,-1.0734,-1.0734,-1.0843,-1.0962,-1.0962,-1.107,-1.1185,-1.1185,-1.1297,-1.145,-1.1599,-1.1738,-1.1877,-1.203,-1.206,-1.206,-1.206,-1.1592,-1.1145,-1.1006,-1.0985,-1.0931,-1.0782,-1.1141,0.0,-1.163,-1.5842,-1.8892,-1.9304,-2.335,-2.5912,-2.5899,-2.4857,-2.4703,-2.5872,-2.0489,-1.7763,-1.9152,-1.3825,-1.0755,-1.0741,-1.0002,-0.9106,-0.8072,0.0,0.0,0.0,0.0,0.0,0.0,0.0,0.0,0.0,0.0,0.0,0.0,0.0,0.0,0.0,0.0,0.0,0.0,0.0,0.0,0.0,-0.7226,-0.777,-0.7798,-0.8401,-0.8954,-0.9239,-0.8701,-0.7747,-0.6359,-0.8377,-0.9549,-0.9064,-0.9684,-1.0026,-1.0228,-1.0243,-1.0176,-1.028,-1.0382,-1.0487,-1.0599,-1.0711,-1.0836,-1.0978,-1.1023,-1.1063,-1.1104,-1.1145,-1.1148,-1.1262,-1.1262,-1.1262,-1.1265,-1.1182,-1.1189,-1.1148,-1.0985,-1.0921,-1.0921,-1.0921,-1.0921,-1.0928,-1.0965,-1.1006,-1.104,-1.104,-1.104,-1.104,-1.104,-1.1148,-1.127,-1.127,-1.1453,-1.1647,-1.1647,-1.1762,-1.1887,-1.1932,-1.1969,-1.201,-1.2054,-1.206,-1.206,-1.206,-1.1928,-1.1803,-1.1762,-1.1755,-1.1742,-1.1701,-1.1979,-1.221,-1.2254,-1.6261,-1.8911,-1.8406,-2.2374,-2.491,-2.4703,-2.4389,-2.4609,-2.5571,-2.2265,-1.9911,-1.887,-1.5576,-1.3082,-1.1212,-1.0256,-0.9459,0.0,0.0,0.0,0.0,0.0,0.0,0.0,0.0,0.0,0.0,0.0,0.0,0.0,0.0,0.0,0.0,0.0,0.0,0.0,0.0,0.0,0.0,-0.7889,-0.8401,-0.8635,-0.9069,-0.9435,-0.9566,-0.9677,-0.913,-0.7311,-0.879,-1.0043,-1.0225,-1.0184,-1.0273,-1.0373,-1.0378,-1.0453,-1.0466,-1.0605,-1.0724,-1.0816,-1.0965,-1.108,-1.1162,-1.1226,-1.1257,-1.126,-1.1324,-1.1399,-1.1477,-1.1474,-1.1518,-1.1592,-1.1555,-1.1541,-1.1514,0.0,0.0,0.0,0.0,-1.1212,-1.1335,-1.1348,-1.1444,-1.1609,-1.1526,-1.1557,-1.1622,-1.1622,-1.1572,-1.167,-1.167,-1.1796,-1.1928,-1.1928,-1.1993,-1.2077,-1.2142,-1.2155,-1.2176,-1.2233,-1.2247,-1.2247,-1.2247,-1.2247,0.0,-1.2247,-1.2091,-1.1925,-1.1799,-1.203,-1.222,-1.222,-1.612,-1.8739,-1.8391,-2.2283,-2.4756,-2.4589,-2.4122,0.0,0.0,0.0,-1.967,-1.6976,-1.4627,0.0,0.0,0.0,-0.9914,-0.971,-0.9015,0.0,0.0,-0.7587,-0.766,0.0,0.0,0.0,0.0,0.0,0.0,0.0,0.0,0.0,0.0,0.0,0.0,0.0,0.0,0.0,0.0,-0.823,-0.9093,-0.9595,-0.9649,-0.9707,-0.9832,-0.9863,-0.993,-1.0063,-1.0098,-1.0221,-1.0256,-1.0304,-1.0432,-1.05,-1.0534,0.0,0.0,0.0,-1.0982,-1.0999,-1.1124,-1.1199,-1.1216,-1.1352,-1.1423,-1.1447,-1.1565,-1.1735,-1.1784,-1.1784,-1.1878,-1.2025,-1.2098,-1.206,-1.201,-1.1474,-1.1257,-1.124,-1.1296,-1.1492,-1.1619,-1.1657,0.0,0.0,-1.216,-1.2091,-1.2103,-1.2103,-1.2165,-1.2088,-1.2088,-1.2098,-1.2111,-1.2111,-1.2111,-1.2145,-1.2281,-1.2315,-1.2349,-1.2474,-1.2501,-1.2501,-1.2501,-1.2501,-1.2501,-1.2501,-1.2172,-1.1816,-1.1555,-1.1738,-1.1908,-1.1908,-1.5672,-1.839,-1.8714,-2.2452,0.0,-2.4883,-2.3955,-2.3848,-2.4957,-2.1863,-1.8396,-1.471,-1.2727,-1.1347,-1.0677,-1.0527,-1.051,-1.0619,-1.0582,-1.0504,-1.0337,-0.8537,-0.8143,0.0,0.0,0.0,0.0,0.0,0.0,0.0,0.0,0.0,0.0,0.0,0.0,0.0,0.0,0.0,-0.4188,-0.6989,-0.9486,-0.9758,-0.9886,-0.9975,-1.0002,-1.0008,-1.007,-1.0222,-1.0137,-1.0249,-1.0499,-1.0417,-1.0514,-1.0849,-1.0816,-1.0965,-1.1073,-1.1107,-1.1182,-1.1304,-1.1331,-1.1409,-1.1531,-1.1562,0.0,-1.1742,-1.1804,-1.1921,-1.2037,-1.2111,-1.2121,-1.2088,-1.2067,-1.206,-1.205,-1.1932,-1.199,-1.1921,-1.1904,-1.1945,-1.2028,-1.1969,-1.2117,-1.2065,-1.2028,-1.2144,-1.2145,-1.2145,-1.2193,0.0,-1.2247,-1.2328,-1.2416,-1.2416,-1.2416,-1.2423,-1.2454,-1.2461,-1.2467,-1.2494,-1.2501,-1.2501,-1.2501,-1.2501,-1.2501,-1.2501,-1.243,-1.2352,-1.2294,-1.2335,-1.2372,-1.2372,-1.6045,-1.8335,-1.7739,-2.1523,-2.3928,-2.3688,-2.3674,-2.3981,-2.4676,-2.2434,-1.9344,-1.5341,-1.4583,-1.3578,-1.1759,-1.1609,-1.1487,-1.1402,-1.1155,-1.1019,-1.0972,-1.0117,-0.9937,0.0,0.0,0.0,0.0,0.0,0.0,0.0,0.0,0.0,0.0,0.0,0.0,0.0,0.0,-0.335,-0.3962,-0.723,-0.969,-0.992,-1.0002,-1.0049,-1.0049,-1.0117,-1.0215,-1.0337,-1.0259,-0.9888,-0.8889,-0.9961,-1.0712,-1.0862,-1.0977,-1.1111,-1.1162,-1.1236,-1.1314,-1.1392,-1.1467,-1.1579,-1.1725,-1.1725,-1.1803,-1.1945,-1.2021,-1.1965,-1.2182,-1.2146,-1.2169,-1.2281,-1.2281,-1.2281,-1.2281,-1.2281,-1.2285,-1.2062,-1.2108,-1.2164,-1.2179,-1.2264,-1.2288,-1.2364,-1.2364,-1.2274,-1.2349,-1.2349,-1.2372,-1.2396,-1.2396,-1.2447,-1.2501,-1.2501,-1.2501,-1.2501,-1.2501,-1.2501,-1.2501,-1.2501,-1.2501,-1.2501,-1.2501,-1.2501,-1.2501,-1.2501,-1.2501,-1.2501,-1.2501,-1.2501,-1.2501,-1.2501,-1.5085,-1.7242,-1.7817,-2.0845,-2.31,-2.3851,-2.4115,-2.4329,-2.4616,-2.2676,-2.0649,-1.855,-1.641,-1.4683,-1.3645,-1.2607,-1.1911,-1.184,-1.1687,-1.1613,-1.1606,-1.1307,-1.1131,0.0,0.0,0.0,0.0,0.0,0.0,0.0,0.0,0.0,0.0,0.0,0.0,0.0,0.0,-0.1377,-0.5314,-0.8164,-0.9981,-1.0083,-1.012,-1.0137,-1.0137,-1.0246,-1.0365,-1.0466,-1.0025,-0.9016,-0.7318,-0.9552,-1.0987,-1.0958,-1.1212,-1.1212,-1.125,-1.1372,-1.145,-1.1477,-1.1599,-1.1731,-1.1874,-1.1874,-1.1955,-1.2104,-1.2094,-1.2179,-1.2338,-1.2296,-1.2343,-1.2501,-1.2501,-1.2501,-1.2501,-1.2501,-1.2311,-1.2168,-1.2154,-1.2247,-1.2337,-1.2416,-1.2343,-1.2501,-1.2501,-1.2501,-1.2501,-1.2501,-1.2501,-1.2501,-1.2501,-1.2501,-1.2501,-1.2501,-1.2501,-1.2501,-1.2501,-1.2501,-1.2501,-1.2501,-1.2501,-1.2501,-1.2501,-1.2501,-1.2501,-1.2501,-1.2501,-1.2501,-1.2501,-1.2501,-1.2501,-1.2501,-1.4326,-1.6294,-1.8421,-2.0386,-2.2354,-2.4482,-2.4636,-2.4636,-2.4636,-2.3116,-2.2049,-2.1601,-1.7946,-1.5759,-1.5311,-1.3244,-1.2135,-1.2104,-1.2104,-1.2104,-1.2104,-1.2104,-1.1894,0.6874,0.3458,0.0,0.0,0.0,0.0,0.0,0.0,0.0,0.0,0.0,0.0,0.0,0.0,-0.2174,-0.8983,-1.0201,-1.0263,-1.0369,-1.0365,-1.0443,-1.0443,-1.046,-1.0524,-1.0673,-0.8952,-0.7614,-0.7332,-0.9794,-1.1285,-1.1392,-1.1399,-1.1385,-1.1562,-1.1586,-1.1653,-1.1779,-1.1799,-1.1884,-1.2037,-1.2037,-1.2115,-1.2264,-1.2213,-1.2294,-1.2478,-1.2494,-1.2501,-1.2501,-1.2501,-1.2501,-1.2501,-1.2501,-1.2474,-1.2437,-1.2413,-1.2427,-1.2457,-1.2488,-1.2501,-1.2501,-1.2501,-1.2501,-1.2501,-1.2501,-1.2501,-1.2501,-1.2501,-1.2501,-1.2501,-1.2501,-1.2501,-1.2501,-1.2501,-1.2501,-1.2501,-1.2501,-1.2501,-1.2501,-1.2501,-1.2501,-1.2501,-1.2501,-1.2501,-1.2501,-1.2501,-1.2501,-1.2501,-1.2501,-1.4326,-1.6294,-1.8421,-2.0386,-2.2354,-2.4482,-2.4636,-2.4636,-2.4636,-2.4334,-2.3419,-2.1601,-1.9451,-1.7322,-1.5506,-1.3524,-1.2389,-1.2264,-1.2264,-1.2264,-1.2264,-1.2264,-1.2166,0.6334,0.3613,0.0,0.0,0.0,0.0,0.0,0.0,0.0,0.0,0.0,0.0,0.0,-0.3179,-0.5418,-0.463,-0.7929,-1.0559,-1.0375,-1.0456,-1.0658,-1.0616,-1.0704,-1.0748,-1.086,-0.8025,-0.7184,-0.9524,-1.0812,-1.1495,-1.1456,-1.1538,-1.1535,-1.1616,-1.1697,-1.1772,-1.183,-1.1921,-1.2043,-1.2193,-1.2104,-1.2142,-1.2288,-1.2227,-1.2247,-1.2335,-1.245,-1.2501,-1.2501,-1.2501,-1.2501,-1.2501,-1.2501,-1.2501,-1.2501,-1.2501,-1.2501,-1.2501,-1.2501,-1.2501,-1.2501,-1.2501,-1.2501,-1.2501,-1.2501,-1.2501,-1.2501,-1.2501,-1.2501,-1.2501,-1.2501,-1.2501,-1.2501,-1.2501,-1.2501,-1.2501,-1.2501,-1.2501,-1.2501,-1.2501,-1.2501,-1.2501,-1.2501,-1.2501,-1.2501,-1.2501,-1.2501,-1.2501,-1.2501,-1.3263,-1.4931,-1.827,-2.1446,-2.3722,-2.4488,-2.4636,-2.4636,-2.4636,-2.4636,-2.4179,-2.3419,-2.0236,-1.8118,-1.736,-1.4176,-1.2471,-1.2413,-1.2413,-1.2413,-1.2413,-1.2413,-1.2379,0.4204,0.2614,0.0,0.0,0.0,0.0,0.0,0.0,0.0,0.0,0.0,0.0,0.0,-0.395,-0.6085,-0.3145,-0.7207,-1.0637,-1.0517,-1.0558,-1.073,-1.0707,-1.089,-1.0965,-1.0994,-0.8686,-0.8188,-1.1201,-1.1489,-1.1619,-1.1472,-1.1619,-1.1643,-1.1701,-1.1786,-1.187,-1.1955,-1.2026,-1.2138,-1.2288,-1.2162,-1.2145,-1.2227,-1.2182,-1.2162,-1.2176,-1.2362,-1.2444,-1.2447,-1.2484,-1.2501,-1.2501,-1.2501,-1.2501,-1.2501,-1.2501,-1.2501,-1.2501,-1.2501,-1.2501,-1.2501,-1.2501,-1.2501,-1.2501,-1.2501,-1.2501,-1.2501,-1.2501,-1.2501,-1.2501,-1.2501,-1.2501,-1.2501,-1.2501,-1.2501,-1.2501,-1.2501,-1.2501,-1.2501,-1.2501,-1.2501,-1.2501,-1.2501,-1.2501,-1.2501,-1.2501,-1.2501,-1.2501,-1.2501,-1.2958,-1.4633,-1.827,-2.1751,-2.4025,-2.4488,-2.4636,-2.4636,-2.4636,-2.4636,-2.4636,-2.4636,-2.0692,-1.8572,-1.8572,-1.4629,-1.2501,-1.2501,-1.2501,-1.2501,-1.2501,-1.2501,-1.2501,0.0185,0.0097,0.0,0.0,0.0,0.0,0.0,0.0,0.0,0.0,0.0,0.0,0.0,-0.0123,-0.236,-0.8469,-1.0193,-1.067,-1.0677,-1.0714,-1.0714,-1.0721,-1.0978,-1.1155,-1.1151,-1.1158,-1.1338,-1.161,-1.1539,-1.1619,-1.1619,-1.1619,-1.1708,-1.1754,-1.1857,-1.1976,-1.2274,-1.2135,-1.2138,-1.2291,-1.2223,-1.2152,-1.2071,-1.2067,-1.2064,-1.2074,-1.223,-1.2298,-1.2308,-1.2444,-1.2501,-1.2501,-1.2501,-1.2501,-1.2501,-1.2501,-1.2501,-1.2501,-1.2501,-1.2501,-1.2501,-1.2501,-1.2501,-1.2501,-1.2501,-1.2501,-1.2501,-1.2501,-1.2501,-1.2501,-1.2501,-1.2501,-1.2501,-1.2501,-1.2501,-1.2501,-1.2501,-1.2501,-1.2501,-1.2501,-1.2501,-1.2501,-1.2501,-1.2501,-1.2501,-1.2501,-1.2501,-1.2501,-1.2501,-1.4176,-1.6299,-1.8421,-2.0386,-2.2509,-2.4482,-2.4636,-2.4636,-2.4636,-2.4636,-2.4636,-2.4636,-2.0692,-1.8572,-1.8572,-1.4629,-1.2501,-1.2501,-1.2501,-1.2501,-1.2501,-1.2501,-1.2501,0.0,0.0,0.0,0.0,0.0,0.0,0.0,0.0,0.0,0.0,0.0,0.0,0.0,0.0,-0.2162,-0.8742,-1.0197,-1.05,-1.0694,-1.0721,-1.0721,-1.0721,-1.0982,-1.1189,-1.126,-1.1389,-1.1525,-1.1667,-1.1643,-1.1619,-1.1619,-1.1657,-1.1764,-1.1767,-1.206,-1.2186,-1.2288,-1.224,-1.2284,-1.227,-1.1995,-1.1777,-1.1772,-1.1864,-1.1908,-1.1918,-1.2071,-1.2172,-1.2233,-1.2281,-1.2264,-1.2216,-1.2277,-1.2227,-1.2275,-1.2186,-1.2274,-1.2376,-1.2467,-1.2501,-1.2501,-1.2501,-1.2501,-1.2501,-1.2501,-1.2501,-1.2501,-1.2501,-1.2501,-1.2501,-1.2501,-1.2501,-1.2501,-1.2501,-1.2501,-1.2501,-1.2501,-1.2501,-1.2501,-1.2501,-1.2501,-1.2501,-1.2501,-1.2501,-1.2501,-1.2501,-1.2501,-1.2501,-1.2501,-1.4326,-1.5841,-1.6447,-1.9629,-2.19,-2.2509,-2.387,-2.4636,-2.4636,-2.3309,-2.316,-2.4488,-1.9473,-1.7208,-1.8572,-1.4629,-1.2501,-1.2501,-1.2501,-1.2501,-1.2501,-1.2501,-1.2501,0.0,0.0,0.0,0.0,0.0,0.0,0.0,0.0,0.0,0.0,-0.1734,-0.2484,-0.0372,0.0,-0.2159,-0.9048,-1.0478,-1.0833,-1.0816,-1.0904,-1.0951,-1.0934,-1.1118,-1.125,-1.1263,-1.1477,-1.1619,-1.1619,-1.1619,-1.1563,-1.162,-1.1709,-1.1775,-1.1971,-1.2233,-1.2291,-1.2291,-1.2267,-1.223,-1.2028,-1.178,-1.1742,-1.1623,-1.1714,-1.1755,-1.1765,-1.1915,-1.1986,-1.1999,-1.2071,-1.2067,-1.2168,-1.2077,-1.203,-1.2083,-1.2026,-1.2125,-1.2237,-1.243,-1.2501,-1.2501,-1.2501,-1.2501,-1.2501,-1.2501,-1.2501,-1.2501,-1.2501,-1.2501,-1.2501,-1.2501,-1.2501,-1.2501,-1.2501,-1.2501,-1.2501,-1.2501,-1.2501,-1.2501,-1.2501,-1.2501,-1.2501,-1.2501,-1.2501,-1.2501,-1.2501,-1.2501,-1.2501,-1.2501,-1.3564,-1.4629,-1.5387,-1.8567,-2.0847,-2.1475,-2.3432,-2.4636,-2.4636,-2.2719,-2.2127,-2.3451,-1.8426,-1.6146,-1.7512,-1.4176,-1.2501,-1.2501,-1.2501,-1.2501,-1.2501,-1.2501,-1.2501,0.0,0.0,0.0,0.0,0.0,0.0,0.0,0.0,0.0,0.0,-0.475,-0.712,-0.1438,-0.0484,-0.2725,-0.9626,-1.1164,-1.1529,-1.1292,-1.1368,-1.1362,-1.1174,-1.1355,-1.1331,-1.1469,-1.1585,-1.1619,-1.1619,-1.1647,-1.1603,-1.1814,-1.1763,-1.1901,-1.2323,-1.2366,-1.2298,-1.2291,-1.222,-1.1847,-1.1619,-1.1619,-1.1619,-1.1619,-1.1619,-1.1619,-1.1626,-1.1762,-1.1745,-1.1784,-1.198,-1.2055,-1.2055,-1.2055,-1.2055,-1.2065,-1.2006,-1.2047,-1.2091,-1.2206,-1.2313,-1.2488,-1.2498,-1.2494,-1.2488,-1.2498,-1.2501,-1.2501,-1.2501,-1.2501,-1.2501,-1.2501,-1.2501,-1.2501,-1.2501,-1.2501,-1.2501,-1.2491,-1.2498,-1.2501,-1.2491,-1.2498,-1.2501,-1.2501,-1.2501,-1.2501,-1.2501,-1.2501,-1.2501,-1.2501,-1.2501,-1.3263,-1.5085,-1.7203,-1.9192,-2.1066,-2.329,-2.4468,-2.4468,-2.2701,-2.1534,-2.1563,-1.7697,-1.554,-1.554,-1.3568,-1.2498,-1.2491,-1.2498,-1.2498,-1.2491,-1.2498,-1.2501,0.0,0.0,0.0,0.0,0.0,0.0,0.0,0.0,0.0,0.0,-0.4399,-0.7914,-0.6797,-0.6607,-0.749,-1.0294,-1.1631,-1.2214,-1.1946,-1.1541,-1.1358,-1.1202,-1.1284,-1.1465,-1.1427,-1.1487,-1.1619,-1.1619,-1.1719,-1.1776,-1.1864,-1.2,-1.2216,-1.2342,-1.241,-1.2396,-1.2291,-1.2088,-1.1717,-1.1619,-1.1619,-1.1619,-1.1619,-1.1619,-1.1619,-1.1619,-1.1657,-1.1653,-1.1623,-1.1677,-1.1697,-1.1697,-1.1697,-1.1697,-1.1701,-1.1725,-1.182,-1.1932,-1.1867,-1.2033,-1.2149,-1.2293,-1.24,-1.2308,-1.2457,-1.2501,-1.2501,-1.2501,-1.2501,-1.2501,-1.2501,-1.2501,-1.2501,-1.2501,-1.2501,-1.2474,-1.2369,-1.2427,-1.2471,-1.2366,-1.243,-1.2501,-1.2501,-1.2501,-1.2501,-1.2501,-1.2501,-1.2501,-1.2501,-1.2501,-1.2652,-1.3263,-1.5056,-1.6554,-1.7019,-2.0269,-2.2325,-2.2325,-2.1894,-2.1654,-2.1653,-1.7664,-1.554,-1.554,-1.3568,-1.2447,-1.2345,-1.245,-1.2447,-1.2345,-1.2454,-1.2501,0.0,0.0,0.0,0.0,0.0,0.0,0.0,0.0,0.0,0.0,-0.3188,-0.6527,-0.8152,-0.8555,-0.8961,-1.0408,-1.1212,-1.1739,-1.181,-1.1657,-1.1578,-1.1369,-1.1416,-1.1453,-1.1453,-1.1552,-1.158,-1.1682,-1.1762,-1.1788,-1.1755,-1.2102,-1.2189,-1.2291,-1.2369,-1.2318,-1.2128,-1.1901,-1.1728,-1.1619,-1.1619,-1.1619,-1.1619,-1.1619,-1.1619,-1.1619,-1.1619,-1.1619,-1.1619,-1.1619,-1.1619,-1.1619,-1.1619,-1.1619,-1.1619,-1.1619,-1.1687,-1.1762,-1.166,-1.1762,-1.1965,-1.2081,-1.2309,-1.2381,-1.2366,-1.241,-1.241,-1.241,-1.241,-1.241,-1.241,-1.2457,-1.2484,-1.2423,-1.2457,-1.2464,-1.2322,-1.2352,-1.2386,-1.2305,-1.2406,-1.2501,-1.2501,-1.2501,-1.2501,-1.2501,-1.2501,-1.2501,-1.2501,-1.2501,-1.2501,-1.2501,-1.4291,-1.5502,-1.5573,-1.841,-2.0273,-2.0253,-1.9452,-1.8984,-1.8891,-1.5944,-1.4172,-1.4172,-1.3112,-1.2464,-1.2383,-1.24,-1.2369,-1.2291,-1.2372,-1.241,0.0,0.0,0.0,0.0,0.0,0.0,0.0,0.0,0.0,0.0,-0.1945,-0.4546,-0.7408,-0.7979,-0.8648,-1.0273,-1.0622,-1.0897,-1.1362,-1.167,-1.1738,-1.1636,-1.1619,-1.1619,-1.1619,-1.1619,-1.1714,-1.1821,-1.1649,-1.1606,-1.1759,-1.1992,-1.2206,-1.2257,-1.2247,-1.2135,-1.177,-1.1718,-1.1619,-1.1619,-1.1619,-1.1619,-1.1619,-1.1619,-1.1619,-1.1619,-1.1619,-1.1633,-1.1653,-1.163,-1.163,-1.1647,-1.1626,-1.1619,-1.1619,-1.1619,-1.1619,-1.1619,-1.1619,-1.1619,-1.1623,-1.1949,-1.2185,-1.2169,-1.2237,-1.226,-1.226,-1.226,-1.226,-1.226,-1.226,-1.2352,-1.2413,-1.2288,-1.2352,-1.2406,-1.226,-1.223,-1.2237,-1.2257,-1.2376,-1.2474,-1.2474,-1.2488,-1.2501,-1.2501,-1.2501,-1.2501,-1.2501,-1.2501,-1.2501,-1.2501,-1.3992,-1.5081,-1.5061,-1.6935,-1.82,-1.8128,-1.6821,-1.5755,-1.5557,-1.3876,-1.2807,-1.2501,-1.2501,-1.2481,-1.2444,-1.2338,-1.2271,-1.223,-1.225,-1.2271,0.0,0.0,0.0,0.0,0.0,0.0,0.0,0.0,0.0,0.0,-0.2085,-0.4628,-0.6884,-0.7947,-0.8821,-0.9741,-1.0383,-1.0744,-1.0886,-1.1297,-1.166,-1.1633,-1.163,-1.1619,-1.1619,-1.1619,-1.1714,-1.1821,-1.1649,-1.1782,-1.2005,-1.2118,-1.2091,-1.2101,-1.2023,-1.1814,-1.1767,-1.1718,-1.1619,-1.1619,-1.1619,-1.1619,-1.1619,-1.1619,-1.1619,-1.1619,-1.1619,-1.1708,-1.169,-1.1684,-1.1687,-1.1782,-1.1664,-1.1619,-1.1619,-1.1619,-1.1619,-1.1619,-1.1619,-1.1619,-1.1647,-1.1813,-1.1881,-1.1921,-1.206,-1.2101,-1.2101,-1.2101,-1.2101,-1.2101,-1.2101,-1.2121,-1.2132,-1.2108,-1.2121,-1.2098,-1.1945,-1.1911,-1.1948,-1.2077,-1.2223,-1.2328,-1.2328,-1.2423,-1.2501,-1.2501,-1.2501,-1.2501,-1.2501,-1.2501,-1.2501,-1.2501,-1.28,-1.2958,-1.2979,-1.4838,-1.6094,-1.5979,-1.7301,-1.7297,-1.5521,-1.513,-1.4176,-1.2501,-1.2501,-1.2383,-1.2138,-1.224,-1.2159,-1.1915,-1.2043,-1.2169,0.0,0.0,0.0,0.0,0.0,0.0,0.0,0.0,0.0,0.0,-0.1978,-0.4522,-0.7068,-0.7903,-0.836,-0.9227,-0.9798,-1.0354,-1.0652,-1.1155,-1.1598,-1.1616,-1.1653,-1.1653,-1.1623,-1.1596,-1.1841,-1.2017,-1.1837,-1.171,-1.1891,-1.1982,-1.1942,-1.1942,-1.1777,-1.172,-1.1762,-1.1667,-1.1619,-1.1619,-1.1619,-1.1619,-1.1619,-1.1619,-1.1619,-1.1619,-1.1619,-1.167,-1.1755,-1.162,-1.1606,-1.1714,-1.1647,-1.1619,-1.1619,-1.1619,-1.1619,-1.1619,-1.1619,-1.1619,-1.1636,-1.1731,-1.1792,-1.1843,-1.1918,-1.1942,-1.1942,-1.1942,-1.1942,-1.1942,-1.1942,-1.2003,-1.2043,-1.1962,-1.1942,-1.1921,-1.1847,-1.1894,-1.1948,-1.1942,-1.2067,-1.2196,-1.2277,-1.2345,-1.2416,-1.2491,-1.2501,-1.2501,-1.2501,-1.2501,-1.2501,-1.2501,-1.2501,-1.2501,-1.2501,-1.3303,-1.3944,-1.3944,-1.4842,-1.4992,-1.394,-1.3895,-1.3414,-1.2501,-1.2501,-1.2396,-1.2182,-1.2176,-1.2054,-1.1833,-1.1908,-1.2023,0.0,0.0,0.0,0.0,0.1116,0.1835,0.0347,0.0,0.0,0.0,-0.1891,-0.4473,-0.7472,-0.7836,-0.7965,-0.8696,-0.9222,-0.9787,-1.0568,-1.1125,-1.1489,-1.1606,-1.1667,-1.166,-1.1586,-1.1722,-1.1808,-1.2159,-1.2026,-1.177,-1.1707,-1.1809,-1.1786,-1.1786,-1.183,-1.1779,-1.1619,-1.1619,-1.1619,-1.1619,-1.1619,-1.1619,-1.1619,-1.1619,-1.1619,-1.1619,-1.1619,-1.1643,-1.1691,-1.1657,-1.163,-1.166,-1.1633,-1.1619,-1.1619,-1.1619,-1.1619,-1.1619,-1.1619,-1.1619,-1.1619,-1.1619,-1.1694,-1.1786,-1.1786,-1.1786,-1.1786,-1.1786,-1.1786,-1.1786,-1.1786,-1.1874,-1.1935,-1.1816,-1.1786,-1.1786,-1.1786,-1.1881,-1.1932,-1.1809,-1.1908,-1.205,-1.2169,-1.2247,-1.2328,-1.244,-1.2481,-1.2501,-1.2501,-1.2501,-1.2501,-1.2501,-1.2501,-1.2501,-1.2501,-1.2501,-1.2501,-1.2501,-1.2501,-1.2501,-1.2501,-1.2501,-1.2501,-1.2501,-1.2501,-1.2416,-1.224,-1.2121,-1.1965,-1.1786,-1.1786,-1.1867,0.0,0.0,0.0,0.0,0.4916,0.806,0.1487,0.0,0.0,0.0,-0.1967,-0.4457,-0.7449,-0.7986,-0.8167,-0.8598,-0.883,-0.9261,-1.0219,-1.0588,-1.1009,-1.1479,-1.1657,-1.1579,-1.1602,-1.163,-1.1816,-1.2134,-1.2179,-1.1932,-1.166,-1.1643,-1.164,-1.164,-1.1643,-1.164,-1.1619,-1.1619,-1.1619,-1.1619,-1.1619,-1.1619,-1.1619,-1.1619,-1.1619,-1.1619,-1.1619,-1.1721,-1.173,-1.1714,-1.1711,-1.1799,-1.167,-1.1619,-1.1619,-1.1619,-1.1619,-1.1619,-1.1619,-1.1619,-1.1619,-1.1619,-1.163,-1.164,-1.164,-1.164,-1.164,-1.164,-1.164,-1.164,-1.164,-1.165,-1.1657,-1.1643,-1.164,-1.164,-1.164,-1.165,-1.1657,-1.1643,-1.1752,-1.1857,-1.187,-1.2104,-1.2294,-1.2308,-1.242,-1.2501,-1.2501,-1.2501,-1.2501,-1.2501,-1.2501,-1.2501,-1.2501,-1.2501,-1.2501,-1.2501,-1.2501,-1.2501,-1.2501,-1.2501,-1.2501,-1.2501,-1.2501,-1.2362,-1.2084,-1.2071,-1.1918,-1.164,-1.164,-1.1714,0.0,0.0,0.0,0.0,0.509,0.9464,0.701,0.3074,0.0,0.0,-0.0729,-0.2732,-0.7012,-0.7763,-0.7913,-0.8398,-0.8431,-0.8623,-0.941,-1.0471,-1.1381,-1.1625,-0.947,-0.9088,-1.1345,-0.9443,-0.9334,-1.2241,-1.2265,-1.1891,-1.1681,-1.164,-1.1619,-1.1619,-1.1619,-1.1619,-1.1619,-1.1619,-1.1619,-1.1619,-1.1619,-1.1619,-1.1619,-1.1619,-1.1619,-1.1619,-1.1619,-1.1711,-1.1853,-1.1687,-1.1701,-1.1816,-1.1674,-1.1619,-1.1619,-1.1619,-1.1619,-1.1619,-1.1619,-1.1619,-1.1619,-1.1619,-1.1619,-1.1619,-1.1619,-1.1619,-1.1619,-1.1619,-1.1619,-1.1619,-1.1619,-1.1619,-1.1619,-1.1619,-1.1619,-1.1619,-1.1619,-1.1619,-1.1619,-1.1619,-1.1664,-1.1731,-1.1816,-1.1932,-1.2077,-1.226,-1.241,-1.2343,-1.2501,-1.2501,-1.2501,-1.2501,-1.2501,-1.2501,-1.2501,-1.2501,-1.2501,-1.2501,-1.2501,-1.2501,-1.2501,-1.2501,-1.2501,-1.2501,-1.2416,-1.2271,-1.206,-1.1969,-1.182,-1.1619,-1.1619,-1.1694,0.0,0.0,0.0,0.0,0.3446,0.7526,0.9873,0.6619,0.2544,0.0456,0.0,-0.1337,-0.5657,-0.7082,-0.7699,-0.8133,-0.8059,-0.8177,-0.8762,-1.0112,-1.0703,-0.9968,-0.7525,-0.7345,-1.1151,-0.9258,-0.7998,-0.8715,-0.9787,-1.0202,-0.9928,-0.9891,-1.0462,-1.1499,-1.1647,-1.1647,-1.1647,-1.1633,-1.163,-1.163,-1.1623,-1.1619,-1.1619,-1.1619,-1.1619,-1.1619,-1.1619,-1.1701,-1.182,-1.1677,-1.1701,-1.1816,-1.1674,-1.1619,-1.1619,-1.1619,-1.1619,-1.1619,-1.1619,-1.1619,-1.1619,-1.1619,-1.1619,-1.1619,-1.1619,-1.1619,-1.1619,-1.1619,-1.1619,-1.1619,-1.1619,-1.1619,-1.1619,-1.1619,-1.1619,-1.1619,-1.1619,-1.1619,-1.1619,-1.1619,-1.1619,-1.165,-1.1752,-1.1803,-1.1904,-1.2121,-1.2196,-1.2343,-1.2498,-1.2501,-1.2501,-1.2501,-1.2501,-1.2501,-1.2501,-1.2501,-1.2501,-1.2501,-1.2501,-1.2501,-1.2501,-1.2447,-1.2413,-1.2413,-1.2288,-1.2149,-1.1993,-1.1884,-1.1759,-1.1619,-1.1619,-1.1674,0.0,0.0,0.0,0.0,0.0,0.1811,0.8332,1.0221,0.8536,0.1424,0.0,-0.0784,-0.3201,-0.5735,-0.7546,-0.7974,-0.8045,-0.8092,-0.85,-0.9139,-0.8625,-0.6133,-0.585,-0.7393,-1.1259,-1.1808,-0.8749,-0.0726,-0.3965,-0.618,-0.5813,-0.581,-0.7566,-1.1411,-1.1559,-1.1559,-1.1559,-1.167,-1.1653,-1.1653,-1.163,-1.1619,-1.1619,-1.1619,-1.1619,-1.1619,-1.1619,-1.1701,-1.182,-1.1677,-1.1701,-1.1816,-1.1674,-1.1619,-1.1619,-1.1619,-1.1619,-1.1619,-1.1619,-1.1619,-1.1619,-1.1619,-1.1619,-1.1619,-1.1619,-1.1619,-1.1619,-1.1619,-1.1619,-1.1619,-1.1619,-1.1619,-1.1619,-1.1619,-1.1619,-1.1619,-1.1619,-1.1619,-1.1619,-1.1619,-1.1619,-1.1619,-1.1619,-1.1738,-1.1833,-1.1833,-1.2062,-1.234,-1.234,-1.2343,-1.2501,-1.2501,-1.2501,-1.2501,-1.2501,-1.2501,-1.2501,-1.2501,-1.2501,-1.2501,-1.2501,-1.2311,-1.2361,-1.2361,-1.2115,-1.1986,-1.1833,-1.183,-1.1759,-1.1619,-1.1619,-1.1619,0.0,0.0,0.0,0.0,0.0,0.0576,0.258,0.6677,0.8161,0.1393,0.0,-0.0769,-0.3132,-0.5528,-0.7336,-0.7753,-0.8144,-0.8511,-0.8815,-0.9332,-0.7763,-0.2472,-0.1893,-0.4446,-1.0897,-0.6942,-0.2706,-0.0144,-0.3931,-0.6157,-0.584,-0.5839,-0.6415,-0.7566,-0.7566,-0.7566,-0.7566,-0.7704,-0.9013,-1.1653,-1.1647,-1.1643,-1.1643,-1.165,-1.165,-1.1643,-1.1653,-1.1782,-1.1979,-1.171,-1.1734,-1.1965,-1.1718,-1.1619,-1.1619,-1.1619,-1.1619,-1.1619,-1.1619,-1.1619,-1.1619,-1.1619,-1.1619,-1.1619,-1.1619,-1.1619,-1.1619,-1.1619,-1.1619,-1.1619,-1.1619,-1.1619,-1.1619,-1.1619,-1.1619,-1.1619,-1.1619,-1.1619,-1.1619,-1.1619,-1.1619,-1.1619,-1.1619,-1.1657,-1.1731,-1.1857,-1.1891,-1.2043,-1.2132,-1.234,-1.2343,-1.2343,-1.2501,-1.2501,-1.2501,-1.2501,-1.2501,-1.2501,-1.2501,-1.2501,-1.2343,-1.2311,-1.2295,-1.2165,-1.1942,-1.1881,-1.183,-1.1735,-1.1664,-1.1619,-1.1619,-1.1619,0.0,0.0,0.0,0.0,0.0,0.0,0.0,0.3207,0.4975,0.0846,0.0,-0.05,-0.1935,-0.4947,-0.7212,-0.7472,-0.8069,-0.8653,-0.8998,-0.9268,-0.7104,-0.0781,0.0,-0.1932,-0.6778,-0.5514,-0.3119,-0.0286,-0.2464,-0.3799,-0.3652,-0.3652,-0.3647,-0.3636,-0.3635,-0.3635,-0.3635,-0.3631,-0.4789,-0.7255,-1.0194,-1.1529,-1.1526,-1.0052,-0.946,-0.946,-1.0929,-1.1789,0.0,-1.163,-1.178,-1.1952,-1.1714,-1.1619,-1.1619,-1.1619,-1.1619,-1.1619,-1.1619,-1.1619,-1.1619,-1.1619,-1.1619,-1.1619,-1.1619,-1.1619,-1.1619,-1.1619,-1.1619,-1.1619,-1.1619,-1.1619,-1.1619,-1.1619,-1.1619,-1.1619,-1.1619,-1.1619,-1.1619,-1.1619,-1.1619,-1.1619,-1.1619,-1.1619,-1.166,-1.1775,-1.1697,-1.1901,-1.1965,-1.2166,-1.2254,-1.2162,-1.234,-1.2343,-1.2343,-1.2501,-1.2501,-1.2501,-1.2501,-1.2501,-1.2343,-1.2319,-1.223,-1.2108,-1.1918,-1.1752,-1.1752,-1.166,-1.1619,-1.1619,-1.1619,-1.1619,0.0,0.0207,0.0108,0.0424,0.0208,0.0,0.0,0.0,0.0,0.0,0.0,0.0,0.0,-0.3892,-0.7101,-0.709,-0.7778,-0.854,-0.9108,-0.9098,-0.6719,-0.0657,0.0,0.0,0.0,-0.6489,-0.7739,-0.0572,0.0,0.0,0.0,0.0,0.0,0.0,0.0,0.0,0.0,0.0,-0.0145,-0.0435,-0.7423,-1.0964,-1.1112,-0.7713,-0.596,-0.567,-0.9457,-1.1299,-1.1583,-1.1593,-1.172,-1.1816,-1.1674,-1.1619,-1.1619,-1.1619,-1.1619,-1.1619,-1.1619,-1.1619,-1.1619,-1.1619,-1.1619,-1.1619,-1.1619,-1.1619,-1.1619,-1.1619,-1.1619,-1.1619,-1.1619,-1.1619,-1.1619,-1.1619,-1.1619,-1.1619,-1.1619,-1.1619,-1.1619,-1.1619,-1.1619,-1.1619,-1.1619,-1.1619,-1.1619,-1.1619,-1.1767,-1.177,-1.177,-1.1917,-1.2129,-1.2066,-1.2119,-1.2119,-1.2119,-1.232,-1.2501,-1.2501,-1.2501,-1.2501,-1.2501,-1.2279,-1.2107,-1.2065,-1.1767,-1.1619,-1.1619,-1.1619,-1.1619,-1.1619,-1.1619,-1.1619,0.3414,0.0,0.0768,0.4054,0.2429,0.0,0.0,0.0,0.0,0.0,0.0,0.0,0.0,-0.3926,-0.7078,-0.7141,-0.7772,-0.8428,-0.8901,-0.9605,-0.7491,-0.0835,0.0,0.0,0.0,-0.17,-0.1994,-0.0141,0.0,0.0,0.0,0.0,0.0,0.0,0.0,0.0,0.0,0.0,-0.1456,-0.4358,-0.3342,-0.4215,-0.728,-0.9348,-0.6996,-0.1598,-0.5522,-0.8793,-1.1573,-1.1593,-1.1745,-1.1816,-1.1674,-1.1619,-1.1619,-1.1619,-1.1619,-1.1619,-1.1619,-1.1619,-1.1619,-1.1619,-1.1619,-1.1619,-1.1619,-1.1619,-1.1619,-1.1619,-1.1619,-1.1619,-1.1619,-1.1619,-1.1619,-1.1619,-1.1619,-1.1619,-1.1619,-1.1619,-1.1619,-1.1619,-1.1619,-1.1619,-1.1619,-1.1619,-1.1619,-1.1619,-1.1619,-1.1619,-1.1619,-1.177,-1.1822,-1.1813,-1.198,-1.2129,-1.2129,-1.2244,-1.234,-1.2182,-1.234,-1.2185,-1.2024,-1.1893,-1.1775,-1.1777,-1.1619,-1.1619,-1.1619,-1.1619,-1.1619,-1.1619,-1.1619,-1.1619,0.439,0.4561,0.3933,0.4937,0.4039,0.2399,0.043,0.0,0.0,0.0,0.0,0.0,0.0,-0.2107,-0.462,-0.7083,-0.7915,-0.8379,-0.8883,-0.9607,-0.8855,-0.5323,-0.1952,0.0,0.0,0.0,0.0,0.0,0.0,0.0,0.0,0.0,0.0,0.0,0.0,0.0,0.0,0.0,-0.1021,-0.3203,-0.4665,-0.4519,-0.3203,-0.5252,-0.3936,-0.0146,-0.4072,-0.8043,-1.1657,-1.1546,-1.1684,-1.1742,-1.1664,-1.1626,-1.1619,-1.1619,-1.1619,-1.1619,-1.1619,-1.1619,-1.1619,-1.1619,-1.1619,-1.1619,-1.1619,-1.1619,-1.1619,-1.1619,-1.1619,-1.1619,-1.1619,-1.1619,-1.1619,-1.1619,-1.1619,-1.1619,-1.1619,-1.1619,-1.1619,-1.1619,-1.1619,-1.1619,-1.1619,-1.1619,-1.1619,-1.1619,-1.1619,-1.1619,-1.1619,-1.1619,-1.1767,-1.1767,-1.177,-1.1914,-1.1914,-1.2062,-1.2059,-1.2165,-1.2247,-1.2098,-1.1945,-1.1792,-1.1791,-1.1626,-1.1619,-1.1619,-1.1619,-1.1619,-1.1619,-1.1619,-1.1619,-1.1619,0.4447,0.6603,0.7268,0.4907,0.5412,0.5426,0.1765,0.0492,0.0,0.0,0.0,0.0,0.0,0.0,-0.1534,-0.606,-0.6834,-0.7178,-0.812,-0.8233,-0.8935,-1.056,-0.5368,-0.1234,-0.0137,0.0,0.0,0.0,0.0,0.0,0.0,0.0,0.0,0.0,0.0,0.0,0.0,0.0,0.0,-0.0146,-0.6735,-0.7031,-0.1752,-0.0584,0.0,-0.0146,-0.3494,-0.7438,-1.159,-1.0954,-1.0781,-1.0772,-1.1368,-1.165,-1.163,-1.1626,-1.1623,-1.1623,-1.1619,-1.1619,-1.1619,-1.1619,-1.1619,-1.1619,-1.1619,-1.1619,-1.1619,-1.1619,-1.1619,-1.1619,-1.1619,-1.1619,-1.1619,-1.1619,-1.1619,-1.1619,-1.1619,-1.1619,-1.1619,-1.1619,-1.1619,-1.1619,-1.1619,-1.1619,-1.1619,-1.1619,-1.1619,-1.1619,-1.1619,-1.1619,-1.1619,-1.1619,-1.1619,-1.1619,-1.1619,-1.1767,-1.1833,-1.202,-1.2048,-1.2065,-1.2065,-1.1914,-1.1767,-1.1619,-1.1619,-1.1619,-1.1619,-1.1619,-1.1619,-1.1619,-1.1619,-1.1619,0.4446,0.626,0.7038,0.6179,0.6471,0.6699,0.5572,0.2563,0.0,0.0,0.0,0.0,0.0,0.0,-0.0309,-0.1132,-0.1176,-0.2205,-0.4818,-0.3032,-0.3757,-0.9944,-0.9778,-0.666,-0.0549,0.0,0.0,0.0,0.0,0.0,0.0,0.0,0.0,0.0,0.0,0.0,0.0,0.0,0.0,-0.0,-0.1168,-0.4531,-0.9551,-0.3067,0.0,-0.0,-0.0583,-0.496,-1.1292,-0.8017,-0.6686,-0.6974,-1.036,-1.1549,-1.1543,-1.166,-1.165,-1.1647,-1.1626,-1.1619,-1.1619,-1.1619,-1.1619,-1.1619,-1.1619,-1.1619,-1.1619,-1.1619,-1.1619,-1.1619,-1.1619,-1.1619,-1.1619,-1.1619,-1.1619,-1.1619,-1.1619,-1.1619,-1.1619,-1.1619,-1.1619,-1.1619,-1.1619,-1.1619,-1.1619,-1.1619,-1.1619,-1.1619,-1.1619,-1.1619,-1.1619,-1.1619,-1.1619,-1.1619,-1.1619,-1.1619,-1.1657,-1.16,-1.1818,-1.177,-1.1623,-1.1619,-1.1619,-1.1619,-1.1619,-1.1619,-1.1619,-1.1619,-1.1619,-1.1619,-1.1619,-1.1619,0.4442,0.6256,0.7127,0.7315,0.7631,0.7705,0.7305,0.5108,0.2944,0.2289,0.0984,0.0,0.0,0.0,0.0,0.0,0.0,-0.0524,-0.1896,-0.0822,-0.1241,-0.4577,-0.4942,-0.3675,-0.0272,0.0,0.0,0.0,0.0,0.0,0.0,0.0,0.0,0.0,0.0,0.0,0.0,0.0,0.0,0.0,0.0,-0.1898,-0.5265,-0.1606,0.0,0.0,0.0,-0.2042,-0.5547,-0.7899,-0.6415,-0.3049,-0.699,-0.8454,-0.8739,-1.08,-1.1529,-1.166,-1.163,-1.163,-1.1643,-1.1626,-1.1619,-1.1619,-1.1619,-1.1619,-1.1619,-1.1619,-1.1619,-1.1619,-1.1619,-1.1619,-1.1619,-1.1619,-1.1619,-1.1619,-1.1619,-1.1619,-1.1619,-1.1619,-1.1619,-1.1619,-1.1619,-1.1619,-1.1619,-1.1619,-1.1619,-1.1619,-1.1619,-1.1619,-1.1619,-1.1619,-1.1619,-1.1619,-1.1619,-1.1619,-1.1619,-1.1619,-1.1619,-1.1619,-1.1619,-1.1619,-1.1619,-1.1619,-1.1619,-1.1619,-1.1619,-1.1619,-1.1619,-1.1619,-1.1619,-1.1619,0.4663,0.5778,0.65,0.7929,0.8365,0.8397,0.8408,0.7323,0.6241,0.5706,0.3578,0.1527,0.0208,0.0,0.0,0.0,0.0,0.0,0.0,0.0,0.0,0.0,0.0,0.0,0.0,0.0,0.0,0.0,0.0,0.0,0.0,0.0,0.0,0.0,0.0,0.0,0.0,0.0,0.0,0.0,0.0,0.0,0.0,0.0,0.0,0.0,0.0,0.0,-0.0438,-0.6441,-0.5405,-0.0291,-0.3348,-0.4509,-0.4792,-0.772,-0.9474,-1.0194,-1.017,-1.0913,-1.1667,-1.1647,-1.1636,-1.1633,-1.164,-1.164,-1.164,-1.164,-1.164,-1.1636,-1.1623,-1.1619,-1.1619,-1.1619,-1.1619,-1.1619,-1.1619,-1.1619,-1.1619,-1.1619,-1.1619,-1.1619,-1.1619,-1.1619,-1.1619,-1.1619,-1.1619,-1.1619,-1.1619,-1.1619,-1.1619,-1.1619,-1.1619,-1.1619,-1.1619,-1.1619,-1.1619,-1.1619,-1.1619,-1.1619,-1.1619,-1.1619,-1.1619,-1.1619,-1.1619,-1.1619,-1.1619,-1.1619,-1.1619,-1.1619,-1.1619,-1.1619,0.5363,0.443,0.4172,0.7478,0.8349,0.8468,0.9197,0.9022,0.8937,0.9971,0.8723,0.5951,0.0924,0.0,0.0,0.0,0.0,0.0,0.0,0.0,0.0,0.0,0.0,0.0,0.0,0.0,0.0,0.0,0.0,0.0,0.0,0.0,0.0,0.0,0.0,0.0,0.0,0.0,0.0,0.0,0.0,0.0,0.0,0.0,0.0,0.0,0.0,0.0,-0.0,-0.0584,-0.0438,-0.0,-0.0292,-0.0437,-0.0436,-0.0726,-0.3049,-0.6246,-0.6244,-0.8579,-1.1529,-1.1549,-1.1539,-1.167,-1.1549,-1.1553,-1.1553,-1.1553,-1.1553,-1.1543,-1.1633,-1.1619,-1.1619,-1.1619,-1.1619,-1.1619,-1.1619,-1.1619,-1.1619,-1.1619,-1.1619,-1.1619,-1.1619,-1.1619,-1.1619,-1.1619,-1.1619,-1.1619,-1.1619,-1.1619,-1.1619,-1.1619,-1.1619,-1.1619,-1.1619,-1.1619,-1.1619,-1.1619,-1.1619,-1.1619,-1.1619,-1.1619,-1.1619,-1.1619,-1.1619,-1.1619,-1.1619,-1.1619,-1.1619,-1.1619,-1.1619,-1.1619,0.4051,0.3414,0.3749,0.6388,0.631,0.6268,0.8592,0.9464,0.9856,1.0296,1.0008,0.7638,0.1193,0.0,0.0,0.0,0.0,0.0,0.0,0.0,0.0,0.0,0.0,0.0,0.0,0.0,0.0,0.0,0.0,0.0,0.0,0.0,0.0,0.0,0.0,0.0,0.0,0.0,0.0,0.0,0.0,0.0,0.0,0.0,0.0,0.0,0.0,0.0,0.0,0.0,0.0,0.0,0.0,0.0,0.0,0.0,-0.0874,-0.2184,-0.2184,-0.3197,-0.4788,-0.7276,-0.801,-0.8005,-0.8005,-0.8005,-0.8005,-0.8005,-0.8005,-0.8589,-1.0938,-1.1657,-1.164,-1.164,-1.163,-1.1619,-1.1619,-1.1619,-1.1619,-1.1619,-1.1619,-1.1619,-1.1619,-1.1619,-1.1619,-1.1619,-1.1619,-1.1619,-1.1619,-1.1619,-1.1619,-1.1619,-1.1619,-1.1619,-1.1619,-1.1619,-1.1619,-1.1619,-1.1619,-1.1619,-1.1619,-1.1619,-1.1619,-1.1619,-1.1619,-1.1619,-1.1619,-1.1619,-1.1619,-1.1619,-1.1619,-1.1619,0.3439,0.3724,0.5124,0.7224,0.6081,0.5214,0.797,0.9261,0.9923,1.01,1.0429,0.8453,0.1357,0.0,0.0,0.0,0.0,0.0,0.0,0.0,0.0,0.0,0.0,0.0,0.0,0.0,0.0,0.0,0.0,0.0,0.0,0.0,0.0,0.0,0.0,0.0,0.0,0.0,0.0,0.0,0.0,0.0,0.0,0.0,0.0,0.0,0.0,0.0,0.0,0.0,0.0,0.0,0.0,0.0,0.0,0.0,0.0,0.0,0.0,0.0,-0.0436,-0.3055,-0.393,-0.3929,-0.3925,-0.3925,-0.4217,-0.5385,-0.5823,-0.641,-0.9058,-1.0061,-1.0615,-1.1358,-1.1636,-1.1619,-1.1619,-1.1619,-1.1619,-1.1619,-1.1619,-1.1619,-1.1619,-1.1619,-1.1619,-1.1619,-1.1619,-1.1619,-1.1619,-1.1619,-1.1619,-1.1619,-1.1619,-1.1619,-1.1619,-1.1619,-1.1619,-1.1619,-1.1619,-1.1619,-1.1619,-1.1619,-1.1619,-1.1619,-1.1619,-1.1619,-1.1619,-1.1619,-1.1619,-1.1619,-1.1619,-1.1619,0.3826,0.5553,0.847,1.0237,0.8206,0.614,0.7654,0.8398,0.9025,1.0093,1.0492,0.8402,0.1287,0.0,0.0,0.0,0.0,0.0,0.0,0.0,0.0,0.0,0.0,0.0,0.0,0.0,0.0,0.0,0.0,0.0,0.0,0.0,0.0,0.0,0.0,0.0,0.0,0.0,0.0,0.0,0.0,0.0,0.0,0.0,0.0,0.0,0.0,0.0,0.0,0.0,0.0,0.0,0.0,0.0,0.0,0.0,0.0,0.0,0.0,0.0,0.0,0.0,0.0,0.0,0.0,0.0,-0.0876,-0.4679,-0.5706,-0.5706,-0.5706,-0.6696,-0.8263,-1.0916,-1.1636,-1.1619,-1.1619,-1.1619,-1.1619,-1.1619,-1.1619,-1.1619,-1.1619,-1.1619,-1.1619,-1.1619,-1.1619,-1.1619,-1.1619,-1.1619,-1.1619,-1.1619,-1.1619,-1.1619,-1.1619,-1.1619,-1.1619,-1.1619,-1.1619,-1.1619,-1.1619,-1.1619,-1.1619,-1.1619,-1.1619,-1.1619,-1.1619,-1.1619,-1.1619,-1.1619,-1.1619,-1.1619,0.6254,0.812,0.939,0.7504,0.7666,0.85,0.9469,0.9639,0.9131,0.7291,0.6801,0.5299,0.0765,0.0,0.0,0.0,0.0,0.0,0.0,0.0,0.0,0.0,0.0,0.0,0.0,0.0,0.0,0.0,0.0,0.0,0.0,0.0,0.0,0.0,0.0,0.0,0.0,0.0,0.0,0.0,0.0,0.0,0.0,0.0,0.0,0.0,0.0,0.0,0.0,0.0,0.0,0.0,0.0,0.0,0.0,0.0,0.0,0.0,0.0,0.0,0.0,0.0,0.0,0.0,0.0,0.0,-0.0292,-0.146,-0.1752,-0.1752,-0.1752,-0.2037,-0.3919,-1.0079,-1.1533,-1.1643,-1.1643,-1.163,-1.1619,-1.1619,-1.1619,-1.1619,-1.1619,-1.1619,-1.1619,-1.1619,-1.1619,-1.1619,-1.1619,-1.1619,-1.1619,-1.1619,-1.1619,-1.1619,-1.1619,-1.1619,-1.1619,-1.1619,-1.1619,-1.1619,-1.1619,-1.1619,-1.1619,-1.1619,-1.1619,-1.1619,-1.1619,-1.1619,-1.1619,-1.1619,-1.1619,-1.1619,0.7544,0.8981,0.9671,0.7861,0.8568,0.994,1.0278,1.0256,0.9462,0.7226,0.4756,0.2339,0.0388,0.0,0.0,0.0,0.0,0.0,0.0,0.0,0.0,0.0,0.0,0.0,0.0,0.0,0.0,0.0,0.0,0.0,0.0,0.0,0.0,0.0,0.0,0.0,0.0,0.0,0.0,0.0,0.0,0.0,0.0,0.0,0.0,0.0,0.0,0.0,0.0,0.0,0.0,0.0,0.0,0.0,0.0,0.0,0.0,0.0,0.0,0.0,0.0,0.0,0.0,0.0,0.0,0.0,0.0,0.0,0.0,0.0,0.0,0.0,-0.1164,-0.5829,-0.8152,-0.9749,-1.123,-1.1664,-1.165,-1.1643,-1.164,-1.164,-1.164,-1.164,-1.1643,-1.1653,-1.1653,-1.1653,-1.1653,-1.1647,-1.164,-1.164,-1.1626,-1.1619,-1.1619,-1.1619,-1.1619,-1.1619,-1.1619,-1.1619,-1.1619,-1.1619,-1.1619,-1.1619,-1.1619,-1.1619,-1.1619,-1.1619,-1.1619,-1.1619,-1.1619,-1.1619,0.7965,0.8692,0.9513,1.019,1.0368,1.0418,1.0325,1.0349,1.0066,0.927,0.4766,0.078,0.0133,0.0,0.0,0.0,0.0,0.0,0.0,0.0,0.0,0.0,0.0,0.0,0.0,0.0,0.0,0.0,0.0,0.0,0.0,0.0,0.0,0.0,0.0,0.0,0.0,0.0,0.0,0.0,0.0,0.0,0.0,0.0,0.0,0.0,0.0,0.0,0.0,0.0,0.0,0.0,0.0,0.0,0.0,0.0,0.0,0.0,0.0,0.0,0.0,0.0,0.0,0.0,0.0,0.0,0.0,0.0,0.0,0.0,0.0,0.0,0.0,0.0,-0.2759,-0.625,-0.9777,-1.0816,-1.1105,-1.1086,-1.1083,-1.1083,-1.1083,-1.1083,-1.1089,-1.1108,-1.1108,-1.1108,-1.1108,-1.1092,-1.1079,-1.1073,-1.1047,-1.1178,-1.1619,-1.1619,-1.1619,-1.1619,-1.1619,-1.1619,-1.1619,-1.1619,-1.1619,-1.1619,-1.1619,-1.1619,-1.1619,-1.1619,-1.1619,-1.1619,-1.1619,-1.1619,0.8214,0.9373,1.0054,0.9786,1.007,1.0458,1.0572,1.0652,1.0548,1.0206,0.9196,0.6651,0.1056,0.0,0.0,0.0,0.0,0.0,0.0,0.0,0.0,0.0,0.0,0.0,0.0,0.0,0.0,0.0,0.0,0.0,0.0,0.0,0.0,0.0,0.0,0.0,0.0,0.0,0.0,0.0,0.0,0.0,0.0,0.0,0.0,0.0,0.0,0.0,0.0,0.0,0.0,0.0,0.0,0.0,0.0,0.0,0.0,0.0,0.0,0.0,0.0,0.0,0.0,0.0,0.0,0.0,0.0,0.0,0.0,0.0,0.0,0.0,0.0,0.0,-0.0582,-0.1452,-0.2324,-0.4939,-0.6978,-0.6976,-0.6976,-0.6976,-0.6976,-0.6976,-0.6976,-0.698,-0.7115,-0.7108,-0.7108,-0.7115,-0.711,-0.7081,-0.7075,-0.8239,-1.1325,-1.1619,-1.1619,-1.1619,-1.1619,-1.1619,-1.1619,-1.1619,-1.1619,-1.1619,-1.1619,-1.1619,-1.1619,-1.1619,-1.1619,-1.1619,-1.1619,-1.1619,0.8906,0.9647,0.9845,0.9851,1.0005,1.0215,1.0441,1.0555,1.0644,1.0524,1.0663,0.8448,0.1326,0.0,0.0,0.0,0.0,0.0,0.0,0.0,0.0,0.0,0.0,0.0,0.0,0.0,0.0,0.0,0.0,0.0,0.0,0.0,0.0,0.0,0.0,0.0,0.0,0.0,0.0,0.0,0.0,0.0,0.0,0.0,0.0,0.0,0.0,0.0,0.0,0.0,0.0,0.0,0.0,0.0,0.0,0.0,0.0,0.0,0.0,0.0,0.0,0.0,0.0,0.0,0.0,0.0,0.0,0.0,0.0,0.0,0.0,0.0,0.0,0.0,0.0,0.0,0.0,-0.1601,-0.3055,-0.3055,-0.3055,-0.3055,-0.3055,-0.3055,-0.422,-0.8015,-0.538,-0.305,-0.305,-0.3053,-0.3052,-0.3044,-0.3043,-0.3914,-0.5808,-0.7711,-0.9604,-1.1476,-1.1619,-1.1643,-1.1556,-1.165,-1.1619,-1.1619,-1.1619,-1.1619,-1.1619,-1.1619,-1.1619,-1.1619,-1.1619,-1.1619,0.8931,0.9298,0.9266,0.9893,1.007,1.0002,1.0146,1.0025,1.0035,1.0581,1.0731,0.8823,0.2932,0.081,0.0,0.0,0.0,0.0,0.0,0.0,0.0,0.0,0.0,0.0,0.0,0.0,0.0,0.0,0.0,0.0,0.0,0.0,0.0,0.0,0.0,0.0,0.0,0.0,0.0,0.0,0.0,0.0,0.0,0.0,0.0,0.0,0.0,0.0,0.0,0.0,0.0,0.0,0.0,0.0,0.0,0.0,0.0,0.0,0.0,0.0,0.0,0.0,0.0,0.0,0.0,0.0,0.0,0.0,0.0,0.0,0.0,0.0,0.0,0.0,0.0,0.0,0.0,0.0,0.0,0.0,0.0,0.0,0.0,0.0,-0.2187,-0.8619,-0.4084,0.0,0.0,0.0,0.0,0.0,0.0,0.0,0.0,-0.2921,-0.6126,-0.9438,-1.017,-1.0948,-1.164,-1.0951,-1.0894,-1.1619,-1.1619,-1.163,-1.165,-1.165,-1.164,-1.1619,-1.1619,-1.1619,0.6302,0.7664,0.914,0.9866,1.0022,1.0126,1.028,0.8895,0.8122,1.0309,1.0508,1.0176,0.9392,0.4133,0.0,0.0,0.0,0.0,0.0,0.0,0.0,0.0,0.0,0.0,0.0,0.0,0.0,0.0,0.0,0.0,0.0,0.0,0.0,0.0,0.0,0.0,0.0,0.0,0.0,0.0,0.0,0.0,0.0,0.0,0.0,0.0,0.0,0.0,0.0,0.0,0.0,0.0,0.0,0.0,0.0,0.0,0.0,0.0,0.0,0.0,0.0,0.0,0.0,0.0,0.0,0.0,0.0,0.0,0.0,0.0,0.0,0.0,0.0,0.0,0.0,0.0,0.0,0.0,0.0,0.0,0.0,0.0,0.0,0.0,-0.0292,-0.1458,-0.0729,0.0,0.0,0.0,0.0,0.0,0.0,0.0,0.0,-0.0438,-0.1021,-0.1457,-0.4669,-0.8057,-1.1494,-0.8324,-0.8136,-1.1476,-1.1619,-1.167,-1.1623,-1.1623,-1.1573,-1.1619,-1.1619,-1.1619,0.616,0.7586,0.8971,0.9516,0.9851,1.0049,1.0276,0.9651,0.9252,1.0346,1.037,1.0432,1.0424,0.6345,0.2381,0.0396,0.0,0.0,0.0,0.0,0.0,0.0,0.0,0.0,0.0,0.0,0.0,0.0,0.0,0.0,0.0,0.0,0.0,0.0,0.0,0.0,0.0,0.0,0.0,0.0,0.0,0.0,0.0,0.0,0.0,0.0,0.0,0.0,0.0,0.0,0.0,0.0,0.0,0.0,0.0,0.0,0.0,0.0,0.0,0.0,0.0,0.0,0.0,0.0,0.0,0.0,0.0,0.0,0.0,0.0,0.0,0.0,0.0,0.0,0.0,0.0,0.0,0.0,0.0,0.0,0.0,0.0,0.0,0.0,0.0,0.0,0.0,0.0,0.0,0.0,0.0,0.0,0.0,0.0,0.0,0.0,0.0,0.0,-0.1606,-0.3359,-0.4972,-0.5535,-0.7573,-1.1566,-1.1653,-1.1647,-1.1549,-0.716,-0.5107,-0.523,-0.9579,-1.163,0.5978,0.7172,0.8336,0.9127,0.9574,1.0033,1.0232,1.0402,1.0497,1.039,1.0395,1.0314,1.03,0.7569,0.4179,0.0524,0.0,0.0,0.0,0.0,0.0,0.0,0.0,0.0,0.0,0.0,0.0,0.0,0.0,0.0,0.0,0.0,0.0,0.0,0.0,0.0,0.0,0.0,0.0,0.0,0.0,0.0,0.0,0.0,0.0,0.0,0.0,0.0,0.0,0.0,0.0,0.0,0.0,0.0,0.0,0.0,0.0,0.0,0.0,0.0,0.0,0.0,0.0,0.0,0.0,0.0,0.0,0.0,0.0,0.0,0.0,0.0,0.0,0.0,0.0,0.0,0.0,0.0,0.0,0.0,0.0,0.0,0.0,0.0,0.0,0.0,0.0,0.0,0.0,0.0,0.0,0.0,0.0,0.0,0.0,0.0,0.0,0.0,0.0,0.0,0.0,-0.3785,-0.671,-0.8659,-0.963,-1.0624,-1.1519,-0.5832,-0.1898,-0.0146,-0.7996,-1.1657,0.4571,0.5767,0.7179,0.8319,0.9208,0.987,1.0246,1.0388,1.036,1.0493,1.0382,1.0246,1.0131,0.7265,0.3859,0.0517,0.0,0.0,0.0,0.0,0.0,0.0,0.0,0.0,0.0,0.0,0.0,0.0,0.0,0.0,0.0,0.0,0.0,0.0,0.0,0.0,0.0,0.0,0.0,0.0,0.0,0.0,0.0,0.0,0.0,0.0,0.0,0.0,0.0,0.0,0.0,0.0,0.0,0.0,0.0,0.0,0.0,0.0,0.0,0.0,0.0,0.0,0.0,0.0,0.0,0.0,0.0,0.0,0.0,0.0,0.0,0.0,0.0,0.0,0.0,0.0,0.0,0.0,0.0,0.0,0.0,0.0,0.0,0.0,0.0,0.0,0.0,0.0,0.0,0.0,0.0,0.0,0.0,0.0,0.0,0.0,0.0,0.0,0.0,0.0,0.0,-0.3798,-0.4091,-0.073,-0.4237,-0.7913,-1.1636,-1.1192,-0.7179,-0.0146,-0.8029,-1.1556,0.2051,0.3458,0.5671,0.7181,0.8599,0.9523,0.9313,0.9704,1.0209,1.0209,1.0168,1.0124,1.009,0.7253,0.3851,0.0515,0.0,0.0,0.0,0.0,0.0,0.0,0.0,0.0,0.0,0.0,0.0,0.0,0.0,0.0,0.0,0.0,0.0,0.0,0.0,0.0,0.0,0.0,0.0,0.0,0.0,0.0,0.0,0.0,0.0,0.0,0.0,0.0,0.0,0.0,0.0,0.0,0.0,0.0,0.0,0.0,0.0,0.0,0.0,0.0,0.0,0.0,0.0,0.0,0.0,0.0,0.0,0.0,0.0,0.0,0.0,0.0,0.0,0.0,0.0,0.0,0.0,0.0,0.0,0.0,0.0,0.0,0.0,0.0,0.0,0.0,0.0,0.0,0.0,0.0,0.0,0.0,0.0,0.0,0.0,0.0,0.0,0.0,0.0,0.0,0.0,-0.1314,-0.146,-0.0,-0.1314,-0.2775,-0.4092,-0.4092,-0.2775,-0.0,-0.2909,-0.6841,0.1694,0.2486,0.4153,0.6102,0.7563,0.8531,0.8716,0.9275,0.9805,1.0008,1.009,1.0114,1.008,0.824,0.5625,0.2324,0.185,0.1747,0.1747,0.0806,0.0,0.0,0.0,0.0,0.0,0.0,0.0,0.0,0.0,0.0,0.0,0.0,0.0,0.0,0.0,0.0,0.0,0.0,0.0,0.0,0.0,0.0,0.0,0.0,0.0,0.0,0.0,0.0,0.0,0.0,0.0,0.0,0.0,0.0,0.0,0.0,0.0,0.0,0.0,0.0,0.0,0.0,0.0,0.0,0.0,0.0,0.0,0.0,0.0,0.0,0.0,0.0,0.0,0.0,0.0,0.0,0.0,0.0,0.0,0.0,0.0,0.0,0.0,0.0,0.0,0.0,0.0,0.0,0.0,0.0,0.0,0.0,0.0,0.0,0.0,0.0,0.0,0.0,0.0,0.0,0.0,0.0,0.0,0.0,0.0,0.0,0.0,0.0,0.0,0.0,0.0,-0.2763,0.0,0.0,0.0,0.4852,0.5949,0.6909,0.8672,0.9083,0.9269,0.989,1.0134,1.0195,1.0073,1.007,0.9154,0.6007,0.5576,0.5496,0.5498,0.2547,0.0268,0.0134,0.0,0.0,0.0,0.0,0.0,0.0,0.0,0.0,0.0,0.0,0.0,0.0,0.0,0.0,0.0,0.0,0.0,0.0,0.0,0.0,0.0,0.0,0.0,0.0,0.0,0.0,0.0,0.0,0.0,0.0,0.0,0.0,0.0,0.0,0.0,0.0,0.0,0.0,0.0,0.0,0.0,0.0,0.0,0.0,0.0,0.0,0.0,0.0,0.0,0.0,0.0,0.0,0.0,0.0,0.0,0.0,0.0,0.0,0.0,0.0,0.0,0.0,0.0,0.0,0.0,0.0,0.0,0.0,0.0,0.0,0.0,0.0,0.0,0.0,0.0,0.0,0.0,0.0,0.0,0.0,0.0,0.0,0.0,0.0,0.0,0.0,0.0,0.0,0.0,0.0,0.153,0.0,0.0,0.0,0.0,0.0,0.709,0.7465,0.7994,0.9032,0.9191,0.933,0.9937,1.0056,0.9741,0.9017,0.9051,0.9191,0.9282,0.8347,0.6721,0.4156,0.1609,0.0,0.0,0.0,0.0,0.0,0.0,0.0,0.0,0.0,0.0,0.0,0.0,0.0,0.0,0.0,0.0,0.0,0.0,0.0,0.0,0.0,0.0,0.0,0.0,0.0,0.0,0.0,0.0,0.0,0.0,0.0,0.0,0.0,0.0,0.0,0.0,0.0,0.0,0.0,0.0,0.0,0.0,0.0,0.0,0.0,0.0,0.0,0.0,0.0,0.0,0.0,0.0,0.0,0.0,0.0,0.0,0.0,0.0,0.0,0.0,0.0,0.0,0.0,0.0,0.0,0.0,0.0,0.0,0.0,0.0,0.0,0.0,0.0,0.0,0.0,0.0,0.0,0.0,0.0,0.0,0.0,0.0,0.0,0.0,0.0,0.0,0.0,0.0,0.0,0.206,0.1766,0.2148,0.3244,0.0,0.0,0.66,0.7051,0.7631,0.9022,0.9235,0.9374,1.0025,1.0042,1.0025,1.0246,1.0324,1.0412,1.0565,1.0595,0.9817,0.7847,0.5719,0.3866,0.2412,0.2281,0.1612,0.0134,0.0,0.0,0.0,0.0,0.0,0.0,0.0,0.0,0.0,0.0,0.0,0.0,0.0,0.0,0.0,0.0,0.0,0.0,0.0,0.0,0.0,0.0,0.0,0.0,0.0,0.0,0.0,0.0,0.0,0.0,0.0,0.0,0.0,0.0,0.0,0.0,0.0,0.0,0.0,0.0,0.0,0.0,0.0,0.0,0.0,0.0,0.0,0.0,0.0,0.0,0.0,0.0,0.0,0.0,0.0,0.0,0.0,0.0,0.0,0.0,0.0,0.0,0.0,0.0,0.0,0.0,0.0,0.0,0.0,0.0,0.0,0.0,0.0,0.0,0.0,0.0,0.0,0.0,0.0,0.0,0.0,0.0,0.0,0.0,0.4037,0.4297,0.4209,0.2857,0.3549,0.0,0.6739,0.7112,0.7567,0.9127,0.9435,0.954,0.9914,0.9771,0.9683,0.9941,0.9964,1.0025,1.0249,1.0283,1.0465,1.0606,1.0644,0.938,0.6281,0.6023,0.4686,0.1476,0.0403,0.0403,0.1211,0.0404,0.0,0.0,0.0,0.0,0.0,0.0,0.0,0.0,0.0,0.0,0.0,0.0,0.0,0.0,0.0,0.0,0.0,0.0,0.0,0.0,0.0,0.0,0.0,0.0,0.0,0.0,0.0,0.0,0.0,0.0,0.0,0.0,0.0,0.0,0.0,0.0,0.0,0.0,0.0,0.0,0.0,0.0,0.0,0.0,0.0,0.0,0.0,0.0,0.0,0.0,0.0,0.0,0.0,0.0,0.0,0.0,0.0,0.0,0.0,0.0,0.0,0.0,0.0,0.0,0.0,0.0,0.0,0.0,0.0,0.0,0.0,0.0,0.0,0.0,0.0,0.0,0.0,0.0,0.0,0.0,0.4425,0.4579,0.4653,0.4377,0.4742,0.0,0.5345,0.5484,0.5864,0.6912,0.7034,0.7193,0.798,0.8167,0.8184,0.8133,0.8801,0.9551,1.0192,1.0178,1.0114,1.0144,1.0297,1.029,0.9761,0.9667,0.9329,0.8636,0.3228,0.2558,0.8262,0.3099,0.0,0.0,0.0,0.0,0.0,0.0,0.0,0.0,0.0,0.0,0.0,0.0,0.0,0.0,0.0,0.0,0.0,0.0,0.0,0.0,0.0,0.0,0.0,0.0,0.0,0.0,0.0,0.0,0.0,0.0,0.0,0.0,0.0,0.0,0.0,0.0,0.0,0.0,0.0,0.0,0.0,0.0,0.0,0.0,0.0,0.0,0.0,0.0,0.0,0.0,0.0,0.0,0.0,0.0,0.0,0.0,0.0,0.0,0.0,0.0,0.0,0.0,0.0,0.0,0.0,0.0,0.0,0.0,0.0,0.0,0.0,0.0,0.0,0.0,0.0,0.0,0.0,0.0,0.0,0.0,0.506,0.4879,0.4956,0.509,0.5107,0.0,0.0,0.5413,0.5657,0.6705,0.6746,0.68,0.7475,0.7594,0.7614,0.7692,0.8394,0.896,0.9039,0.9625,1.0049,1.0049,1.0063,1.0287,1.052,1.0555,1.01,0.8921,0.5087,0.4303,0.7823,0.6321,0.4565,0.2685,0.2685,0.188,0.0,0.0,0.0,0.0,0.0,0.0,0.0,0.0,0.0,0.0,0.0,0.0,0.0,0.0,0.0,0.0,0.0,0.0,0.0,0.0,0.0,0.0,0.0,0.0,0.0,0.0,0.0,0.0,0.0,0.0,0.0,0.0,0.0,0.0,0.0,0.0,0.0,0.0,0.0,0.0,0.0,0.0,0.0,0.0,0.0,0.0,0.0,0.0,0.0,0.0,0.0,0.0,0.0,0.0,0.0,0.0,0.0,0.0,0.0,0.0,0.0,0.0,0.0,0.0,0.0,0.0,0.0,0.0,0.0,0.0,0.0,0.0,0.0,0.0,0.0,0.0,0.5747,0.5218,0.5294,0.536,0.5144,0.5113,0.0,0.0,0.0,0.6661,0.6664,0.6617,0.701,0.7004,0.701,0.7221,0.7855,0.8133,0.759,0.8706,0.9578,0.9578,0.9781,0.9968,1.0097,0.9982,0.9311,0.7824,0.6794,0.6321,0.6297,0.912,0.9389,0.6573,0.6441,0.4964,0.2146,0.067,0.0,0.0,0.0,0.0,0.0,0.0,0.0,0.0,0.0,0.0,0.0,0.0,0.0,0.0,0.0,0.0,0.0,0.0,0.0,0.0,0.0,0.0,0.0,0.0,0.0,0.0,0.0,0.0,0.0,0.0,0.0,0.0,0.0,0.0,0.0,0.0,0.0,0.0,0.0,0.0,0.0,0.0,0.0,0.0,0.0,0.0,0.0,0.0,0.0,0.0,0.0,0.0,0.0,0.0,0.0,0.0,0.0,0.0,0.0,0.0,0.0,0.0,0.0,0.0,0.0,0.0,0.0,0.0,0.0,0.0,0.0,0.0,0.0,0.0,0.629,0.5751,0.5759,0.5257,0.5406,0.5494,0.4799,0.0,0.4996,0.4996,0.0,0.5003,0.5189,0.0,0.0,0.5264,0.6193,0.6814,0.6481,0.7268,0.7879,0.7879,0.8811,0.9462,0.9483,0.902,0.9121,0.9774,0.9768,0.9815,0.9775,1.0392,1.0521,1.0089,1.0111,0.985,0.9439,0.3217,0.0,0.0,0.0,0.0,0.0,0.0,0.0,0.0,0.0,0.0,0.0,0.0,0.0,0.0,0.0,0.0,0.0,0.0,0.0,0.0,0.0,0.0,0.0,0.0,0.0,0.0,0.0,0.0,0.0,0.0,0.0,0.0,0.0,0.0,0.0,0.0,0.0,0.0,0.0,0.0,0.0,0.0,0.0,0.0,0.0,0.0,0.0,0.0,0.0,0.0,0.0,0.0,0.0,0.0,0.0,0.0,0.0,0.0,0.0,0.0,0.0,0.0,0.0,0.0,0.0,0.0,0.0,0.0,0.0,0.0,0.0,0.0,0.0,0.0,0.6496,0.5993,0.6162,0.5647,0.5728,0.5722,0.4911,0.4691,0.466,0.4684,0.0,0.0,0.0,0.0,0.0,0.0,0.5701,0.6146,0.5671,0.6532,0.7305,0.7567,0.7963,0.847,0.9075,0.879,0.8994,1.0077,0.9712,0.9665,1.0414,1.0558,1.0595,1.0738,1.0751,1.0761,1.0642,0.7779,0.5223,0.3083,0.094,0.0,0.0,0.0,0.0,0.0,0.0,0.0,0.0,0.0,0.0,0.0,0.0,0.0,0.0,0.0,0.0,0.0,0.0,0.0,0.0,0.0,0.0,0.0,0.0,0.0,0.0,0.0,0.0,0.0,0.0,0.0,0.0,0.0,0.0,0.0,0.0,0.0,0.0,0.0,0.0,0.0,0.0,0.0,0.0,0.0,0.0,0.0,0.0,0.0,0.0,0.0,0.0,0.0,0.0,0.0,0.0,0.0,0.0,0.0,0.0,0.0,0.0,0.0,0.0,0.0,0.0,0.0,0.0,0.0,0.0,0.0,0.7812,0.7213,0.7267,0.611,0.5854,0.5725,0.502,0.4748,0.4653,0.4684,0.4701,0.0,0.0,0.0,0.4775,0.4847,0.0,0.5555,0.5077,0.5762,0.6468,0.6875,0.7078,0.7533,0.8489,0.8218,0.8426,0.9729,0.8891,0.892,1.0239,1.0361,1.0473,1.0653,1.07,1.0727,1.0744,1.0744,0.9395,0.684,0.4155,0.2413,0.1476,0.1477,0.0941,0.0,0.0,0.0,0.0,0.0,0.0,0.0,0.0,0.0,0.0,0.0,0.0,0.0,0.0,0.0,0.0,0.0,0.0,0.0,0.0,0.0,0.0,0.0,0.0,0.0,0.0,0.0,0.0,0.0,0.0,0.0,0.0,0.0,0.0,0.0,0.0,0.0,0.0,0.0,0.0,0.0,0.0,0.0,0.0,0.0,0.0,0.0,0.0,0.0,0.0,0.0,0.0,0.0,0.0,0.0,0.0,0.0,0.0,0.0,0.0,0.0,0.0,0.0,0.0,0.0,0.0,0.0,1.0891,0.9881,0.9402,0.6543,0.5701,0.5447,0.4836,0.4911,0.503,0.4748,0.5033,0.5247,0.4962,0.4911,0.4863,0.4721,0.4843,0.0,0.0,0.4738,0.4874,0.5176,0.6105,0.6959,0.7567,0.6956,0.7155,0.8484,0.7818,0.8126,0.9754,1.0156,1.0376,1.049,1.0643,1.0721,1.0721,1.0721,1.0598,1.0485,1.0358,0.86,0.5237,0.5232,0.335,0.0,0.0,0.0,0.0,0.0,0.0,0.0,0.0,0.0,0.0,0.0,0.0,0.0,0.0,0.0,0.0,0.0,0.0,0.0,0.0,0.0,0.0,0.0,0.0,0.0,0.0,0.0,0.0,0.0,0.0,0.0,0.0,0.0,0.0,0.0,0.0,0.0,0.0,0.0,0.0,0.0,0.0,0.0,0.0,0.0,0.0,0.0,0.0,0.0,0.0,0.0,0.0,0.0,0.0,0.0,0.0,0.0,0.0,0.0,0.0,0.0,0.0,0.0,0.0,0.0,0.0,0.0,1.1341,1.1097,1.0625,0.7598,0.7716,0.7865,0.551,0.5057,0.5047,0.4752,0.505,0.5301,0.5094,0.4982,0.4901,0.485,0.4799,0.4714,0.0,0.4594,0.467,0.4876,0.5833,0.6516,0.6745,0.6935,0.7468,0.8423,0.8178,0.8554,0.99,0.9941,1.0144,1.0626,1.0565,1.0588,1.0717,1.0721,1.0724,1.0731,1.0751,1.0082,0.8865,0.8881,0.8208,0.6989,0.4559,0.362,0.3355,0.094,0.0,0.0,0.0,0.0,0.0,0.0,0.0,0.0,0.0,0.0,0.0,0.0,0.0,0.0,0.0,0.0,0.0,0.0,0.0,0.0,0.0,0.0,0.0,0.0,0.0,0.0,0.0,0.0,0.0,0.0,0.0,0.0,0.0,0.0,0.0,0.0,0.0,0.0,0.0,0.0,0.0,0.0,0.0,0.0,0.0,0.0,0.0,0.0,0.0,0.0,0.0,0.0,0.0,0.0,0.0,0.0,0.0,0.0,0.0,0.0,0.0,0.0,1.364,1.331,1.2724,0.9571,0.9039,0.8545,0.5852,0.5529,0.5762,0.5467,0.5508,0.5684,0.5959,0.5454,0.5047,0.5206,0.4928,0.4636,0.0,0.4519,0.4556,0.4656,0.529,0.5887,0.6443,0.6413,0.6994,0.8398,0.8021,0.837,0.9886,0.9818,1.0009,1.0599,1.046,1.0483,1.0585,1.0721,1.0721,1.0721,1.0734,1.0741,1.0741,1.0765,1.0642,1.0505,0.8318,0.7243,0.7121,0.4832,0.2281,0.0,0.0,0.0,0.0,0.0,0.0,0.0,0.0,0.0,0.0,0.0,0.0,0.0,0.0,0.0,0.0,0.0,0.0,0.0,0.0,0.0,0.0,0.0,0.0,0.0,0.0,0.0,0.0,0.0,0.0,0.0,0.0,0.0,0.0,0.0,0.0,0.0,0.0,0.0,0.0,0.0,0.0,0.0,0.0,0.0,0.0,0.0,0.0,0.0,0.0,0.0,0.0,0.0,0.0,0.0,0.0,0.0,0.0,0.0,0.0,0.0]}]]